Wetterdaten: Dienstag, 25.12.2018
Datum Zeit Temp. A. Pool Temp. Temp. 5cm Feuchte A. Luftdruck Regen Wind Richtung Richtung Sonnenschein ET UV Solar Taupunkt Windchill Windben Empfang
25.12.2018 00:00 2,7 C 4,4 C 2,2 C 90 % 1030,9 hPa 0,0 l/m 13,1 km/h (3 Bft) W 263 0 min 0,000 mm 0,0 UV-I 0 W/m 1,2 C -2,6 C 24,1 km/h (4 Bft) 93,62 %
25.12.2018 00:02 2,7 C 4,4 C 2,2 C 90 % 1030,9 hPa 0,0 l/m 13,3 km/h (3 Bft) W 265 0 min 0,000 mm 0,0 UV-I 0 W/m 1,2 C -2,7 C 24,1 km/h (4 Bft) 88,37 %
25.12.2018 00:04 2,8 C 4,4 C 2,2 C 90 % 1030,8 hPa 0,0 l/m 12,8 km/h (3 Bft) NW 315 0 min 0,000 mm 0,0 UV-I 0 W/m 1,3 C -2,3 C 22,5 km/h (4 Bft) 94,00 %
25.12.2018 00:06 2,8 C 4,4 C 2,2 C 90 % 1030,8 hPa 0,0 l/m 15,2 km/h (3 Bft) W 270 0 min 0,000 mm 0,0 UV-I 0 W/m 1,3 C -3,7 C 24,1 km/h (4 Bft) 95,74 %
25.12.2018 00:08 2,8 C 4,4 C 2,2 C 90 % 1030,8 hPa 0,0 l/m 16,2 km/h (3 Bft) W-SW 256 0 min 0,000 mm 0,0 UV-I 0 W/m 1,3 C -4,2 C 24,1 km/h (4 Bft) 97,14 %
25.12.2018 00:10 2,8 C 4,4 C 2,2 C 90 % 1030,8 hPa 0,0 l/m 13,1 km/h (3 Bft) W 275 0 min 0,000 mm 0,0 UV-I 0 W/m 1,3 C -2,5 C 20,9 km/h (4 Bft) 94,00 %
25.12.2018 00:12 2,8 C 4,4 C 2,2 C 90 % 1030,8 hPa 0,0 l/m 13,7 km/h (3 Bft) W 274 0 min 0,000 mm 0,0 UV-I 0 W/m 1,3 C -2,8 C 22,5 km/h (4 Bft) 94,34 %
25.12.2018 00:14 2,8 C 4,4 C 2,2 C 89 % 1030,8 hPa 0,0 l/m 13,9 km/h (3 Bft) W-NW 300 0 min 0,000 mm 0,0 UV-I 0 W/m 1,2 C -3,0 C 24,1 km/h (4 Bft) 93,62 %
25.12.2018 00:16 2,8 C 4,4 C 2,2 C 89 % 1030,9 hPa 0,0 l/m 14,9 km/h (3 Bft) W-SW 251 0 min 0,000 mm 0,0 UV-I 0 W/m 1,2 C -3,5 C 20,9 km/h (4 Bft) 94,44 %
25.12.2018 00:18 2,9 C 4,4 C 2,2 C 89 % 1030,8 hPa 0,0 l/m 14,5 km/h (3 Bft) W-NW 286 0 min 0,000 mm 0,0 UV-I 0 W/m 1,3 C -3,2 C 20,9 km/h (4 Bft) 94,00 %
25.12.2018 00:20 2,9 C 4,4 C 2,2 C 89 % 1030,9 hPa 0,0 l/m 11,4 km/h (2 Bft) W-NW 294 0 min 0,000 mm 0,0 UV-I 0 W/m 1,3 C -1,3 C 16,1 km/h (3 Bft) 93,62 %
25.12.2018 00:22 2,9 C 4,4 C 2,2 C 89 % 1030,9 hPa 0,0 l/m 12,9 km/h (3 Bft) NW 323 0 min 0,000 mm 0,0 UV-I 0 W/m 1,3 C -2,2 C 20,9 km/h (4 Bft) 93,62 %
25.12.2018 00:24 2,9 C 4,4 C 2,2 C 89 % 1031,0 hPa 0,0 l/m 12,3 km/h (3 Bft) W 274 0 min 0,000 mm 0,0 UV-I 0 W/m 1,3 C -1,9 C 22,5 km/h (4 Bft) 95,74 %
25.12.2018 00:26 2,9 C 4,4 C 2,2 C 89 % 1031,0 hPa 0,0 l/m 11,6 km/h (2 Bft) W 271 0 min 0,000 mm 0,0 UV-I 0 W/m 1,3 C -1,4 C 16,1 km/h (3 Bft) 96,00 %
25.12.2018 00:28 2,9 C 4,4 C 2,2 C 89 % 1031,0 hPa 0,0 l/m 13,9 km/h (3 Bft) W 269 0 min 0,000 mm 0,0 UV-I 0 W/m 1,3 C -2,8 C 22,5 km/h (4 Bft) 97,87 %
25.12.2018 00:30 2,9 C 4,4 C 2,2 C 89 % 1031,1 hPa 0,0 l/m 13,0 km/h (3 Bft) W 278 0 min 0,000 mm 0,0 UV-I 0 W/m 1,3 C -2,3 C 19,3 km/h (3 Bft) 96,00 %
25.12.2018 00:32 2,9 C 4,4 C 2,2 C 89 % 1031,1 hPa 0,0 l/m 11,7 km/h (2 Bft) W 268 0 min 0,000 mm 0,0 UV-I 0 W/m 1,3 C -1,5 C 25,7 km/h (4 Bft) 97,87 %
25.12.2018 00:34 2,9 C 4,4 C 2,2 C 90 % 1031,1 hPa 0,0 l/m 10,7 km/h (2 Bft) NW 324 0 min 0,000 mm 0,0 UV-I 0 W/m 1,4 C -0,8 C 14,5 km/h (3 Bft) 97,56 %
25.12.2018 00:36 2,9 C 4,4 C 2,2 C 90 % 1031,1 hPa 0,0 l/m 15,4 km/h (3 Bft) W-NW 290 0 min 0,000 mm 0,0 UV-I 0 W/m 1,4 C -3,7 C 27,4 km/h (4 Bft) 91,49 %
25.12.2018 00:38 2,9 C 4,4 C 2,2 C 90 % 1031,1 hPa 0,0 l/m 10,0 km/h (2 Bft) W 277 0 min 0,000 mm 0,0 UV-I 0 W/m 1,4 C -0,2 C 17,7 km/h (3 Bft) 95,74 %
25.12.2018 00:40 2,9 C 4,4 C 2,2 C 90 % 1031,2 hPa 0,0 l/m 11,7 km/h (2 Bft) W 259 0 min 0,000 mm 0,0 UV-I 0 W/m 1,4 C -1,5 C 20,9 km/h (4 Bft) 97,87 %
25.12.2018 00:42 2,9 C 4,4 C 2,2 C 90 % 1031,2 hPa 0,0 l/m 15,6 km/h (3 Bft) W-NW 300 0 min 0,000 mm 0,0 UV-I 0 W/m 1,4 C -3,8 C 27,4 km/h (4 Bft) 95,74 %
25.12.2018 00:44 2,9 C 4,4 C 2,2 C 90 % 1031,2 hPa 0,0 l/m 13,4 km/h (3 Bft) W 281 0 min 0,000 mm 0,0 UV-I 0 W/m 1,4 C -2,5 C 20,9 km/h (4 Bft) 98,00 %
25.12.2018 00:46 2,9 C 4,4 C 2,2 C 90 % 1031,2 hPa 0,0 l/m 12,3 km/h (3 Bft) W 279 0 min 0,000 mm 0,0 UV-I 0 W/m 1,4 C -1,9 C 19,3 km/h (3 Bft) 94,00 %
25.12.2018 00:48 2,9 C 4,4 C 2,2 C 90 % 1031,2 hPa 0,0 l/m 12,7 km/h (3 Bft) W 265 0 min 0,000 mm 0,0 UV-I 0 W/m 1,4 C -2,1 C 25,7 km/h (4 Bft) 97,87 %
25.12.2018 00:50 2,9 C 4,4 C 2,2 C 90 % 1031,3 hPa 0,0 l/m 13,3 km/h (3 Bft) W 275 0 min 0,000 mm 0,0 UV-I 0 W/m 1,4 C -2,5 C 19,3 km/h (3 Bft) 95,74 %
25.12.2018 00:52 2,9 C 4,4 C 2,2 C 90 % 1031,2 hPa 0,0 l/m 15,8 km/h (3 Bft) W 265 0 min 0,000 mm 0,0 UV-I 0 W/m 1,4 C -3,9 C 25,7 km/h (4 Bft) 97,87 %
25.12.2018 00:54 2,9 C 4,4 C 2,2 C 90 % 1031,2 hPa 0,0 l/m 12,9 km/h (3 Bft) W 273 0 min 0,000 mm 0,0 UV-I 0 W/m 1,4 C -2,2 C 17,7 km/h (3 Bft) 95,74 %
25.12.2018 00:56 3,0 C 4,4 C 2,2 C 90 % 1031,2 hPa 0,0 l/m 16,7 km/h (3 Bft) W-NW 288 0 min 0,000 mm 0,0 UV-I 0 W/m 1,5 C -4,2 C 27,4 km/h (4 Bft) 95,74 %
25.12.2018 00:58 3,0 C 4,4 C 2,8 C 90 % 1031,3 hPa 0,0 l/m 16,0 km/h (3 Bft) W 262 0 min 0,000 mm 0,0 UV-I 0 W/m 1,5 C -3,9 C 25,7 km/h (4 Bft) 95,74 %
25.12.2018 01:00 3,0 C 4,4 C 2,8 C 90 % 1031,3 hPa 0,0 l/m 13,6 km/h (3 Bft) W 277 0 min 0,025 mm 0,0 UV-I 0 W/m 1,5 C -2,5 C 20,9 km/h (4 Bft) 95,74 %
25.12.2018 01:02 3,1 C 4,4 C 2,8 C 89 % 1031,4 hPa 0,0 l/m 16,0 km/h (3 Bft) W 264 0 min 0,000 mm 0,0 UV-I 0 W/m 1,5 C -3,8 C 29,0 km/h (5 Bft) 97,87 %
25.12.2018 01:04 3,1 C 4,4 C 2,8 C 89 % 1031,3 hPa 0,0 l/m 18,4 km/h (3 Bft) W 267 0 min 0,000 mm 0,0 UV-I 0 W/m 1,5 C -4,9 C 24,1 km/h (4 Bft) 97,62 %
25.12.2018 01:06 3,1 C 4,4 C 2,8 C 89 % 1031,4 hPa 0,0 l/m 14,6 km/h (3 Bft) W-SW 248 0 min 0,000 mm 0,0 UV-I 0 W/m 1,5 C -3,0 C 25,7 km/h (4 Bft) 97,87 %
25.12.2018 01:08 3,1 C 4,4 C 2,8 C 89 % 1031,4 hPa 0,0 l/m 15,3 km/h (3 Bft) W 259 0 min 0,000 mm 0,0 UV-I 0 W/m 1,5 C -3,4 C 24,1 km/h (4 Bft) 98,00 %
25.12.2018 01:10 3,1 C 4,4 C 2,8 C 89 % 1031,4 hPa 0,0 l/m 14,2 km/h (3 Bft) W 269 0 min 0,000 mm 0,0 UV-I 0 W/m 1,5 C -2,8 C 25,7 km/h (4 Bft) 95,74 %
25.12.2018 01:12 3,1 C 4,4 C 2,8 C 89 % 1031,4 hPa 0,0 l/m 13,6 km/h (3 Bft) NW 308 0 min 0,000 mm 0,0 UV-I 0 W/m 1,5 C -2,4 C 19,3 km/h (3 Bft) 97,87 %
25.12.2018 01:14 3,1 C 4,4 C 2,8 C 89 % 1031,3 hPa 0,0 l/m 21,5 km/h (4 Bft) W-SW 248 0 min 0,000 mm 0,0 UV-I 0 W/m 1,5 C -6,2 C 32,2 km/h (5 Bft) 97,87 %
25.12.2018 01:16 3,1 C 4,4 C 2,2 C 89 % 1031,3 hPa 0,0 l/m 16,7 km/h (3 Bft) W-NW 295 0 min 0,000 mm 0,0 UV-I 0 W/m 1,5 C -4,1 C 27,4 km/h (4 Bft) 95,74 %
25.12.2018 01:18 3,1 C 4,4 C 2,2 C 88 % 1031,3 hPa 0,0 l/m 16,0 km/h (3 Bft) W-NW 303 0 min 0,000 mm 0,0 UV-I 0 W/m 1,3 C -3,8 C 29,0 km/h (5 Bft) 100,00 %
25.12.2018 01:20 3,1 C 4,4 C 2,2 C 88 % 1031,3 hPa 0,0 l/m 10,8 km/h (2 Bft) W-SW 250 0 min 0,000 mm 0,0 UV-I 0 W/m 1,3 C -0,6 C 17,7 km/h (3 Bft) 97,14 %
25.12.2018 01:22 3,0 C 4,4 C 2,2 C 88 % 1031,3 hPa 0,0 l/m 16,2 km/h (3 Bft) W-NW 282 0 min 0,000 mm 0,0 UV-I 0 W/m 1,2 C -4,0 C 24,1 km/h (4 Bft) 96,00 %
25.12.2018 01:24 3,0 C 4,4 C 2,2 C 88 % 1031,3 hPa 0,0 l/m 11,8 km/h (2 Bft) W 270 0 min 0,000 mm 0,0 UV-I 0 W/m 1,2 C -1,4 C 17,7 km/h (3 Bft) 100,00 %
25.12.2018 01:26 3,0 C 4,4 C 2,2 C 88 % 1031,3 hPa 0,0 l/m 12,2 km/h (2 Bft) W-SW 247 0 min 0,000 mm 0,0 UV-I 0 W/m 1,2 C -1,7 C 17,7 km/h (3 Bft) 100,00 %
25.12.2018 01:28 3,0 C 4,4 C 2,2 C 88 % 1031,3 hPa 0,0 l/m 18,5 km/h (3 Bft) W-NW 296 0 min 0,000 mm 0,0 UV-I 0 W/m 1,2 C -5,1 C 27,4 km/h (4 Bft) 97,87 %
25.12.2018 01:30 2,9 C 4,4 C 2,2 C 88 % 1031,3 hPa 0,0 l/m 19,8 km/h (3 Bft) W-NW 292 0 min 0,000 mm 0,0 UV-I 0 W/m 1,1 C -5,8 C 30,6 km/h (5 Bft) 97,87 %
25.12.2018 01:32 3,0 C 4,4 C 2,2 C 88 % 1031,4 hPa 0,0 l/m 11,4 km/h (2 Bft) W-NW 288 0 min 0,000 mm 0,0 UV-I 0 W/m 1,2 C -1,1 C 20,9 km/h (4 Bft) 100,00 %
25.12.2018 01:34 2,9 C 4,4 C 2,2 C 88 % 1031,3 hPa 0,0 l/m 13,1 km/h (3 Bft) W-NW 284 0 min 0,000 mm 0,0 UV-I 0 W/m 1,1 C -2,4 C 20,9 km/h (4 Bft) 100,00 %
25.12.2018 01:36 2,9 C 4,4 C 2,2 C 88 % 1031,3 hPa 0,0 l/m 16,0 km/h (3 Bft) W-NW 284 0 min 0,000 mm 0,0 UV-I 0 W/m 1,1 C -4,0 C 32,2 km/h (5 Bft) 100,00 %
25.12.2018 01:38 2,9 C 4,4 C 2,2 C 88 % 1031,3 hPa 0,0 l/m 14,4 km/h (3 Bft) W 275 0 min 0,000 mm 0,0 UV-I 0 W/m 1,1 C -3,1 C 22,5 km/h (4 Bft) 100,00 %
25.12.2018 01:40 2,9 C 4,4 C 2,2 C 88 % 1031,4 hPa 0,0 l/m 15,4 km/h (3 Bft) NW 316 0 min 0,000 mm 0,0 UV-I 0 W/m 1,1 C -3,7 C 24,1 km/h (4 Bft) 100,00 %
25.12.2018 01:42 2,9 C 4,4 C 2,2 C 88 % 1031,4 hPa 0,0 l/m 13,7 km/h (3 Bft) W 281 0 min 0,000 mm 0,0 UV-I 0 W/m 1,1 C -2,7 C 24,1 km/h (4 Bft) 100,00 %
25.12.2018 01:44 2,9 C 4,4 C 2,2 C 88 % 1031,4 hPa 0,0 l/m 15,6 km/h (3 Bft) W 267 0 min 0,000 mm 0,0 UV-I 0 W/m 1,1 C -3,8 C 24,1 km/h (4 Bft) 100,00 %
25.12.2018 01:46 2,9 C 4,4 C 2,2 C 88 % 1031,4 hPa 0,0 l/m 15,3 km/h (3 Bft) W 265 0 min 0,000 mm 0,0 UV-I 0 W/m 1,1 C -3,6 C 24,1 km/h (4 Bft) 98,11 %
25.12.2018 01:48 2,9 C 4,4 C 2,2 C 88 % 1031,3 hPa 0,0 l/m 16,0 km/h (3 Bft) W 259 0 min 0,000 mm 0,0 UV-I 0 W/m 1,1 C -4,0 C 25,7 km/h (4 Bft) 97,87 %
25.12.2018 01:50 2,9 C 4,4 C 2,2 C 88 % 1031,3 hPa 0,0 l/m 10,0 km/h (2 Bft) W 263 0 min 0,000 mm 0,0 UV-I 0 W/m 1,1 C -0,2 C 14,5 km/h (3 Bft) 100,00 %
25.12.2018 01:52 2,9 C 4,4 C 2,2 C 88 % 1031,3 hPa 0,0 l/m 17,5 km/h (3 Bft) W 278 0 min 0,000 mm 0,0 UV-I 0 W/m 1,1 C -4,8 C 32,2 km/h (5 Bft) 100,00 %
25.12.2018 01:54 2,9 C 4,4 C 2,2 C 88 % 1031,3 hPa 0,0 l/m 13,0 km/h (3 Bft) W 275 0 min 0,000 mm 0,0 UV-I 0 W/m 1,1 C -2,3 C 22,5 km/h (4 Bft) 95,74 %
25.12.2018 01:56 2,9 C 4,4 C 2,2 C 88 % 1031,2 hPa 0,0 l/m 15,8 km/h (3 Bft) W-NW 298 0 min 0,000 mm 0,0 UV-I 0 W/m 1,1 C -3,9 C 27,4 km/h (4 Bft) 97,87 %
25.12.2018 01:58 2,9 C 4,4 C 2,2 C 88 % 1031,2 hPa 0,0 l/m 15,0 km/h (3 Bft) NW 309 0 min 0,000 mm 0,0 UV-I 0 W/m 1,1 C -3,5 C 22,5 km/h (4 Bft) 97,37 %
25.12.2018 02:00 2,8 C 4,4 C 2,2 C 88 % 1031,2 hPa 0,0 l/m 13,5 km/h (3 Bft) N-NW 327 0 min 0,026 mm 0,0 UV-I 0 W/m 1,0 C -2,7 C 22,5 km/h (4 Bft) 100,00 %
25.12.2018 02:02 2,8 C 4,4 C 2,2 C 88 % 1031,1 hPa 0,0 l/m 14,4 km/h (3 Bft) W 273 0 min 0,000 mm 0,0 UV-I 0 W/m 1,0 C -3,3 C 22,5 km/h (4 Bft) 96,23 %
25.12.2018 02:04 2,8 C 4,4 C 2,2 C 88 % 1031,1 hPa 0,0 l/m 10,9 km/h (2 Bft) W 266 0 min 0,000 mm 0,0 UV-I 0 W/m 1,0 C -1,0 C 20,9 km/h (4 Bft) 95,74 %
25.12.2018 02:06 2,8 C 4,4 C 2,2 C 88 % 1031,1 hPa 0,0 l/m 14,6 km/h (3 Bft) W-NW 284 0 min 0,000 mm 0,0 UV-I 0 W/m 1,0 C -3,4 C 29,0 km/h (5 Bft) 95,74 %
25.12.2018 02:08 2,8 C 4,4 C 2,2 C 88 % 1031,1 hPa 0,0 l/m 14,5 km/h (3 Bft) W 267 0 min 0,000 mm 0,0 UV-I 0 W/m 1,0 C -3,3 C 20,9 km/h (4 Bft) 97,87 %
25.12.2018 02:10 2,8 C 4,4 C 2,2 C 88 % 1031,2 hPa 0,0 l/m 11,9 km/h (2 Bft) W 281 0 min 0,000 mm 0,0 UV-I 0 W/m 1,0 C -1,7 C 24,1 km/h (4 Bft) 98,00 %
25.12.2018 02:12 2,8 C 4,4 C 2,2 C 88 % 1031,1 hPa 0,0 l/m 17,3 km/h (3 Bft) W-NW 288 0 min 0,000 mm 0,0 UV-I 0 W/m 1,0 C -4,8 C 32,2 km/h (5 Bft) 95,74 %
25.12.2018 02:14 2,8 C 4,4 C 2,2 C 87 % 1031,2 hPa 0,0 l/m 15,5 km/h (3 Bft) N-NW 327 0 min 0,000 mm 0,0 UV-I 0 W/m 0,9 C -3,9 C 25,7 km/h (4 Bft) 94,44 %
25.12.2018 02:16 2,8 C 4,4 C 2,2 C 87 % 1031,2 hPa 0,0 l/m 13,4 km/h (3 Bft) W 277 0 min 0,000 mm 0,0 UV-I 0 W/m 0,9 C -2,7 C 22,5 km/h (4 Bft) 96,00 %
25.12.2018 02:18 2,8 C 4,4 C 2,2 C 87 % 1031,2 hPa 0,0 l/m 9,8 km/h (2 Bft) NW 318 0 min 0,000 mm 0,0 UV-I 0 W/m 0,9 C -0,2 C 16,1 km/h (3 Bft) 93,62 %
25.12.2018 02:20 2,8 C 4,4 C 2,2 C 88 % 1031,2 hPa 0,0 l/m 13,6 km/h (3 Bft) NW 306 0 min 0,000 mm 0,0 UV-I 0 W/m 1,0 C -2,8 C 24,1 km/h (4 Bft) 93,62 %
25.12.2018 02:22 2,8 C 4,4 C 2,2 C 88 % 1031,3 hPa 0,0 l/m 11,7 km/h (2 Bft) W 275 0 min 0,000 mm 0,0 UV-I 0 W/m 1,0 C -1,6 C 20,9 km/h (4 Bft) 95,74 %
25.12.2018 02:24 2,8 C 4,4 C 2,2 C 88 % 1031,3 hPa 0,0 l/m 15,2 km/h (3 Bft) W-NW 300 0 min 0,000 mm 0,0 UV-I 0 W/m 1,0 C -3,7 C 24,1 km/h (4 Bft) 95,74 %
25.12.2018 02:26 2,8 C 4,4 C 2,2 C 88 % 1031,4 hPa 0,0 l/m 12,4 km/h (3 Bft) W-NW 288 0 min 0,000 mm 0,0 UV-I 0 W/m 1,0 C -2,0 C 22,5 km/h (4 Bft) 96,00 %
25.12.2018 02:28 2,8 C 4,4 C 2,2 C 88 % 1031,3 hPa 0,0 l/m 12,4 km/h (3 Bft) W 271 0 min 0,000 mm 0,0 UV-I 0 W/m 1,0 C -2,0 C 22,5 km/h (4 Bft) 95,74 %
25.12.2018 02:30 2,8 C 4,4 C 2,2 C 88 % 1031,4 hPa 0,0 l/m 10,0 km/h (2 Bft) W-NW 294 0 min 0,000 mm 0,0 UV-I 0 W/m 1,0 C -0,4 C 17,7 km/h (3 Bft) 95,74 %
25.12.2018 02:32 2,7 C 4,4 C 2,2 C 88 % 1031,4 hPa 0,0 l/m 13,4 km/h (3 Bft) W-NW 294 0 min 0,000 mm 0,0 UV-I 0 W/m 0,9 C -2,8 C 27,4 km/h (4 Bft) 95,74 %
25.12.2018 02:34 2,8 C 4,4 C 2,2 C 88 % 1031,3 hPa 0,0 l/m 13,3 km/h (3 Bft) W 275 0 min 0,000 mm 0,0 UV-I 0 W/m 1,0 C -2,6 C 24,1 km/h (4 Bft) 92,00 %
25.12.2018 02:36 2,7 C 4,4 C 2,2 C 88 % 1031,4 hPa 0,0 l/m 14,5 km/h (3 Bft) W 280 0 min 0,000 mm 0,0 UV-I 0 W/m 0,9 C -3,4 C 24,1 km/h (4 Bft) 100,00 %
25.12.2018 02:38 2,7 C 4,4 C 2,2 C 88 % 1031,3 hPa 0,0 l/m 10,3 km/h (2 Bft) NW 315 0 min 0,000 mm 0,0 UV-I 0 W/m 0,9 C -0,7 C 19,3 km/h (3 Bft) 97,87 %
25.12.2018 02:40 2,7 C 4,4 C 2,2 C 88 % 1031,3 hPa 0,0 l/m 12,0 km/h (2 Bft) W 268 0 min 0,000 mm 0,0 UV-I 0 W/m 0,9 C -1,9 C 24,1 km/h (4 Bft) 97,87 %
25.12.2018 02:42 2,7 C 4,4 C 2,2 C 88 % 1031,3 hPa 0,0 l/m 13,2 km/h (3 Bft) NW 311 0 min 0,000 mm 0,0 UV-I 0 W/m 0,9 C -2,7 C 25,7 km/h (4 Bft) 100,00 %
25.12.2018 02:44 2,7 C 4,4 C 2,2 C 88 % 1031,4 hPa 0,0 l/m 16,8 km/h (3 Bft) W-SW 249 0 min 0,000 mm 0,0 UV-I 0 W/m 0,9 C -4,7 C 25,7 km/h (4 Bft) 97,37 %
25.12.2018 02:46 2,7 C 4,4 C 2,2 C 88 % 1031,4 hPa 0,0 l/m 12,6 km/h (3 Bft) NW 306 0 min 0,000 mm 0,0 UV-I 0 W/m 0,9 C -2,3 C 25,7 km/h (4 Bft) 100,00 %
25.12.2018 02:48 2,7 C 4,4 C 2,2 C 88 % 1031,4 hPa 0,0 l/m 12,1 km/h (2 Bft) W 261 0 min 0,000 mm 0,0 UV-I 0 W/m 0,9 C -2,0 C 19,3 km/h (3 Bft) 100,00 %
25.12.2018 02:50 2,7 C 4,4 C 2,2 C 88 % 1031,4 hPa 0,0 l/m 13,0 km/h (3 Bft) W 279 0 min 0,000 mm 0,0 UV-I 0 W/m 0,9 C -2,5 C 20,9 km/h (4 Bft) 97,87 %
25.12.2018 02:52 2,7 C 4,4 C 2,2 C 88 % 1031,4 hPa 0,0 l/m 12,4 km/h (3 Bft) W 263 0 min 0,000 mm 0,0 UV-I 0 W/m 0,9 C -2,2 C 25,7 km/h (4 Bft) 100,00 %
25.12.2018 02:54 2,7 C 4,4 C 2,2 C 88 % 1031,4 hPa 0,0 l/m 11,3 km/h (2 Bft) W 281 0 min 0,000 mm 0,0 UV-I 0 W/m 0,9 C -1,4 C 20,9 km/h (4 Bft) 100,00 %
25.12.2018 02:56 2,7 C 4,4 C 2,2 C 88 % 1031,4 hPa 0,0 l/m 11,5 km/h (2 Bft) W 259 0 min 0,000 mm 0,0 UV-I 0 W/m 0,9 C -1,6 C 24,1 km/h (4 Bft) 100,00 %
25.12.2018 02:58 2,7 C 4,4 C 2,2 C 88 % 1031,4 hPa 0,0 l/m 13,2 km/h (3 Bft) W-SW 257 0 min 0,000 mm 0,0 UV-I 0 W/m 0,9 C -2,7 C 22,5 km/h (4 Bft) 100,00 %
25.12.2018 03:00 2,7 C 4,4 C 2,2 C 88 % 1031,5 hPa 0,0 l/m 14,3 km/h (3 Bft) W-NW 286 0 min 0,000 mm 0,0 UV-I 0 W/m 0,9 C -3,3 C 19,3 km/h (3 Bft) 95,74 %
25.12.2018 03:02 2,6 C 4,4 C 2,2 C 88 % 1031,6 hPa 0,0 l/m 18,6 km/h (3 Bft) W-NW 292 0 min 0,025 mm 0,0 UV-I 0 W/m 0,8 C -5,7 C 27,4 km/h (4 Bft) 96,00 %
25.12.2018 03:04 2,6 C 4,4 C 2,2 C 88 % 1031,5 hPa 0,0 l/m 19,1 km/h (3 Bft) W-NW 285 0 min 0,000 mm 0,0 UV-I 0 W/m 0,8 C -5,9 C 25,7 km/h (4 Bft) 97,87 %
25.12.2018 03:06 2,6 C 4,4 C 2,2 C 88 % 1031,7 hPa 0,0 l/m 14,8 km/h (3 Bft) W-NW 282 0 min 0,000 mm 0,0 UV-I 0 W/m 0,8 C -3,7 C 24,1 km/h (4 Bft) 100,00 %
25.12.2018 03:08 2,6 C 4,4 C 2,2 C 87 % 1031,6 hPa 0,0 l/m 17,7 km/h (3 Bft) NW 317 0 min 0,000 mm 0,0 UV-I 0 W/m 0,7 C -5,2 C 38,6 km/h (5 Bft) 95,74 %
25.12.2018 03:10 2,5 C 4,4 C 1,7 C 87 % 1031,7 hPa 0,0 l/m 12,0 km/h (2 Bft) W 279 0 min 0,000 mm 0,0 UV-I 0 W/m 0,6 C -2,1 C 22,5 km/h (4 Bft) 100,00 %
25.12.2018 03:12 2,5 C 4,4 C 1,7 C 87 % 1031,7 hPa 0,0 l/m 13,0 km/h (3 Bft) NW 315 0 min 0,000 mm 0,0 UV-I 0 W/m 0,6 C -2,8 C 20,9 km/h (4 Bft) 97,87 %
25.12.2018 03:15 2,4 C 4,4 C 1,7 C 87 % 1031,8 hPa 0,0 l/m 15,0 km/h (3 Bft) W 274 0 min 0,000 mm 0,0 UV-I 0 W/m 0,5 C -4,1 C 25,7 km/h (4 Bft) 98,61 %
25.12.2018 03:16 2,4 C 4,4 C 1,7 C 87 % 1031,8 hPa 0,0 l/m 13,5 km/h (3 Bft) W 276 0 min 0,000 mm 0,0 UV-I 0 W/m 0,5 C -3,2 C 22,5 km/h (4 Bft) 100,00 %
25.12.2018 03:18 2,4 C 4,4 C 1,7 C 87 % 1031,9 hPa 0,0 l/m 12,2 km/h (2 Bft) W 270 0 min 0,000 mm 0,0 UV-I 0 W/m 0,5 C -2,4 C 20,9 km/h (4 Bft) 98,00 %
25.12.2018 03:20 2,3 C 4,4 C 1,7 C 87 % 1032,0 hPa 0,0 l/m 16,9 km/h (3 Bft) W 275 0 min 0,000 mm 0,0 UV-I 0 W/m 0,4 C -5,2 C 24,1 km/h (4 Bft) 100,00 %
25.12.2018 03:22 2,3 C 4,4 C 1,7 C 87 % 1032,0 hPa 0,0 l/m 15,6 km/h (3 Bft) W 276 0 min 0,000 mm 0,0 UV-I 0 W/m 0,4 C -4,5 C 24,1 km/h (4 Bft) 100,00 %
25.12.2018 03:24 2,3 C 4,4 C 1,7 C 87 % 1032,0 hPa 0,0 l/m 14,5 km/h (3 Bft) W-NW 294 0 min 0,000 mm 0,0 UV-I 0 W/m 0,4 C -3,9 C 22,5 km/h (4 Bft) 97,87 %
25.12.2018 03:26 2,3 C 4,4 C 1,7 C 87 % 1032,0 hPa 0,0 l/m 14,9 km/h (3 Bft) W 277 0 min 0,000 mm 0,0 UV-I 0 W/m 0,4 C -4,1 C 20,9 km/h (4 Bft) 100,00 %
25.12.2018 03:28 2,3 C 4,4 C 1,7 C 87 % 1032,0 hPa 0,0 l/m 14,0 km/h (3 Bft) SW 229 0 min 0,000 mm 0,0 UV-I 0 W/m 0,4 C -3,6 C 19,3 km/h (3 Bft) 95,74 %
25.12.2018 03:31 2,2 C 4,4 C 1,7 C 87 % 1032,0 hPa 0,0 l/m 11,2 km/h (2 Bft) W-NW 282 0 min 0,000 mm 0,0 UV-I 0 W/m 0,3 C -1,9 C 19,3 km/h (3 Bft) 98,65 %
25.12.2018 03:32 2,2 C 4,4 C 1,7 C 87 % 1032,0 hPa 0,0 l/m 10,0 km/h (2 Bft) W 272 0 min 0,000 mm 0,0 UV-I 0 W/m 0,3 C -1,0 C 16,1 km/h (3 Bft) 100,00 %
25.12.2018 03:34 2,2 C 4,4 C 1,7 C 87 % 1032,0 hPa 0,0 l/m 16,1 km/h (3 Bft) W 277 0 min 0,000 mm 0,0 UV-I 0 W/m 0,3 C -4,9 C 25,7 km/h (4 Bft) 91,38 %
25.12.2018 03:36 2,2 C 4,4 C 1,7 C 87 % 1032,0 hPa 0,0 l/m 14,6 km/h (3 Bft) W 268 0 min 0,000 mm 0,0 UV-I 0 W/m 0,3 C -4,1 C 24,1 km/h (4 Bft) 97,22 %
25.12.2018 03:38 2,2 C 4,4 C 1,7 C 87 % 1031,9 hPa 0,0 l/m 13,6 km/h (3 Bft) W 259 0 min 0,000 mm 0,0 UV-I 0 W/m 0,3 C -3,5 C 25,7 km/h (4 Bft) 95,74 %
25.12.2018 03:40 2,2 C 4,4 C 1,7 C 87 % 1031,9 hPa 0,0 l/m 15,6 km/h (3 Bft) W 265 0 min 0,000 mm 0,0 UV-I 0 W/m 0,3 C -4,6 C 24,1 km/h (4 Bft) 97,87 %
25.12.2018 03:42 2,2 C 4,4 C 1,7 C 87 % 1032,0 hPa 0,0 l/m 13,9 km/h (3 Bft) W-NW 286 0 min 0,000 mm 0,0 UV-I 0 W/m 0,3 C -3,7 C 20,9 km/h (4 Bft) 97,96 %
25.12.2018 03:45 2,1 C 4,4 C 1,7 C 86 % 1031,9 hPa 0,0 l/m 13,7 km/h (3 Bft) W-NW 286 0 min 0,000 mm 0,0 UV-I 0 W/m 0,0 C -3,7 C 22,5 km/h (4 Bft) 97,26 %
25.12.2018 03:46 2,1 C 4,4 C 1,7 C 86 % 1031,9 hPa 0,0 l/m 21,8 km/h (4 Bft) W 275 0 min 0,000 mm 0,0 UV-I 0 W/m 0,0 C -7,7 C 32,2 km/h (5 Bft) 95,83 %
25.12.2018 03:48 2,1 C 4,4 C 1,7 C 86 % 1032,0 hPa 0,0 l/m 17,2 km/h (3 Bft) W-NW 283 0 min 0,000 mm 0,0 UV-I 0 W/m 0,0 C -5,6 C 25,7 km/h (4 Bft) 95,74 %
25.12.2018 03:50 2,1 C 4,4 C 1,7 C 86 % 1031,8 hPa 0,0 l/m 16,4 km/h (3 Bft) W 267 0 min 0,000 mm 0,0 UV-I 0 W/m 0,0 C -5,2 C 27,4 km/h (4 Bft) 95,74 %
25.12.2018 03:52 2,1 C 4,4 C 1,7 C 86 % 1031,9 hPa 0,0 l/m 13,6 km/h (3 Bft) W 265 0 min 0,000 mm 0,0 UV-I 0 W/m 0,0 C -3,6 C 25,7 km/h (4 Bft) 97,87 %
25.12.2018 03:54 2,1 C 4,4 C 1,7 C 86 % 1031,8 hPa 0,0 l/m 16,4 km/h (3 Bft) W-NW 288 0 min 0,000 mm 0,0 UV-I 0 W/m 0,0 C -5,2 C 24,1 km/h (4 Bft) 97,87 %
25.12.2018 03:56 2,1 C 4,4 C 1,7 C 86 % 1031,9 hPa 0,0 l/m 12,5 km/h (3 Bft) W 273 0 min 0,000 mm 0,0 UV-I 0 W/m 0,0 C -2,9 C 20,9 km/h (4 Bft) 95,74 %
25.12.2018 03:58 2,1 C 4,4 C 1,7 C 86 % 1031,9 hPa 0,0 l/m 7,2 km/h (2 Bft) W-SW 238 0 min 0,000 mm 0,0 UV-I 0 W/m 0,0 C 1,3 C 11,3 km/h (2 Bft) 93,62 %
25.12.2018 04:00 2,1 C 4,4 C 1,7 C 86 % 1031,9 hPa 0,0 l/m 9,8 km/h (2 Bft) W-SW 248 0 min 0,026 mm 0,0 UV-I 0 W/m 0,0 C -1,0 C 14,5 km/h (3 Bft) 97,87 %
25.12.2018 04:02 2,1 C 4,4 C 1,7 C 86 % 1031,9 hPa 0,0 l/m 9,4 km/h (2 Bft) W-SW 250 0 min 0,000 mm 0,0 UV-I 0 W/m 0,0 C -0,7 C 14,5 km/h (3 Bft) 90,62 %
25.12.2018 04:04 2,1 C 4,4 C 1,7 C 86 % 1031,9 hPa 0,0 l/m 8,9 km/h (2 Bft) W-NW 282 0 min 0,000 mm 0,0 UV-I 0 W/m 0,0 C -0,2 C 14,5 km/h (3 Bft) 97,87 %
25.12.2018 04:06 2,1 C 4,4 C 1,7 C 87 % 1031,9 hPa 0,0 l/m 10,7 km/h (2 Bft) W 277 0 min 0,000 mm 0,0 UV-I 0 W/m 0,2 C -1,7 C 14,5 km/h (3 Bft) 95,74 %
25.12.2018 04:08 2,1 C 4,4 C 1,7 C 87 % 1031,9 hPa 0,0 l/m 12,5 km/h (3 Bft) NW 306 0 min 0,000 mm 0,0 UV-I 0 W/m 0,2 C -2,9 C 19,3 km/h (3 Bft) 93,62 %
25.12.2018 04:10 2,1 C 4,4 C 1,7 C 87 % 1031,9 hPa 0,0 l/m 9,9 km/h (2 Bft) NW 308 0 min 0,000 mm 0,0 UV-I 0 W/m 0,2 C -1,1 C 14,5 km/h (3 Bft) 95,74 %
25.12.2018 04:12 2,1 C 4,4 C 1,7 C 87 % 1031,9 hPa 0,0 l/m 7,7 km/h (2 Bft) W-NW 303 0 min 0,000 mm 0,0 UV-I 0 W/m 0,2 C 0,8 C 12,9 km/h (3 Bft) 95,74 %
25.12.2018 04:14 2,1 C 4,4 C 1,7 C 87 % 1031,9 hPa 0,0 l/m 10,2 km/h (2 Bft) W 260 0 min 0,000 mm 0,0 UV-I 0 W/m 0,2 C -1,3 C 17,7 km/h (3 Bft) 95,74 %
25.12.2018 04:16 2,1 C 4,4 C 1,7 C 87 % 1031,9 hPa 0,0 l/m 13,1 km/h (3 Bft) W-NW 282 0 min 0,000 mm 0,0 UV-I 0 W/m 0,2 C -3,3 C 25,7 km/h (4 Bft) 95,83 %
25.12.2018 04:18 2,1 C 4,4 C 1,7 C 87 % 1031,9 hPa 0,0 l/m 10,3 km/h (2 Bft) SW 231 0 min 0,000 mm 0,0 UV-I 0 W/m 0,2 C -1,4 C 16,1 km/h (3 Bft) 93,62 %
25.12.2018 04:20 2,1 C 4,4 C 1,7 C 87 % 1031,9 hPa 0,0 l/m 8,2 km/h (2 Bft) W 272 0 min 0,000 mm 0,0 UV-I 0 W/m 0,2 C 0,4 C 12,9 km/h (3 Bft) 95,74 %
25.12.2018 04:22 2,1 C 4,4 C 1,7 C 87 % 1031,9 hPa 0,0 l/m 10,0 km/h (2 Bft) W-NW 285 0 min 0,000 mm 0,0 UV-I 0 W/m 0,2 C -1,1 C 19,3 km/h (3 Bft) 93,62 %
25.12.2018 04:24 2,1 C 4,4 C 1,7 C 87 % 1031,9 hPa 0,0 l/m 12,1 km/h (2 Bft) W-NW 284 0 min 0,000 mm 0,0 UV-I 0 W/m 0,2 C -2,7 C 16,1 km/h (3 Bft) 97,14 %
25.12.2018 04:26 2,1 C 4,4 C 1,7 C 87 % 1032,0 hPa 0,0 l/m 11,5 km/h (2 Bft) W 269 0 min 0,000 mm 0,0 UV-I 0 W/m 0,2 C -2,2 C 20,9 km/h (4 Bft) 90,00 %
25.12.2018 04:28 2,1 C 4,4 C 1,7 C 87 % 1032,0 hPa 0,0 l/m 11,1 km/h (2 Bft) W 279 0 min 0,000 mm 0,0 UV-I 0 W/m 0,2 C -2,0 C 22,5 km/h (4 Bft) 96,00 %
25.12.2018 04:30 2,1 C 4,4 C 1,7 C 87 % 1032,0 hPa 0,0 l/m 11,6 km/h (2 Bft) W 273 0 min 0,000 mm 0,0 UV-I 0 W/m 0,2 C -2,3 C 19,3 km/h (3 Bft) 95,74 %
25.12.2018 04:32 2,1 C 4,4 C 1,7 C 87 % 1032,0 hPa 0,0 l/m 12,3 km/h (3 Bft) W 261 0 min 0,000 mm 0,0 UV-I 0 W/m 0,2 C -2,8 C 19,3 km/h (3 Bft) 95,74 %
25.12.2018 04:34 2,1 C 4,4 C 1,7 C 87 % 1032,0 hPa 0,0 l/m 12,9 km/h (3 Bft) W 271 0 min 0,000 mm 0,0 UV-I 0 W/m 0,2 C -3,2 C 27,4 km/h (4 Bft) 94,00 %
25.12.2018 04:36 2,1 C 4,4 C 1,7 C 87 % 1032,0 hPa 0,0 l/m 17,1 km/h (3 Bft) W-SW 252 0 min 0,000 mm 0,0 UV-I 0 W/m 0,2 C -5,6 C 22,5 km/h (4 Bft) 93,62 %
25.12.2018 04:38 2,1 C 4,4 C 1,7 C 87 % 1031,9 hPa 0,0 l/m 14,7 km/h (3 Bft) W-NW 284 0 min 0,000 mm 0,0 UV-I 0 W/m 0,2 C -4,3 C 22,5 km/h (4 Bft) 95,74 %
25.12.2018 04:40 2,1 C 4,4 C 1,7 C 87 % 1031,9 hPa 0,0 l/m 12,5 km/h (3 Bft) W-SW 257 0 min 0,000 mm 0,0 UV-I 0 W/m 0,2 C -2,9 C 17,7 km/h (3 Bft) 97,87 %
25.12.2018 04:42 2,1 C 4,4 C 1,7 C 86 % 1032,0 hPa 0,0 l/m 11,1 km/h (2 Bft) W 260 0 min 0,000 mm 0,0 UV-I 0 W/m 0,0 C -2,0 C 19,3 km/h (3 Bft) 97,37 %
25.12.2018 04:44 2,1 C 4,4 C 1,7 C 87 % 1032,0 hPa 0,0 l/m 11,5 km/h (2 Bft) W 273 0 min 0,000 mm 0,0 UV-I 0 W/m 0,2 C -2,2 C 19,3 km/h (3 Bft) 93,62 %
25.12.2018 04:46 2,1 C 4,4 C 1,7 C 86 % 1032,0 hPa 0,0 l/m 12,0 km/h (2 Bft) W 277 0 min 0,000 mm 0,0 UV-I 0 W/m 0,0 C -2,6 C 19,3 km/h (3 Bft) 94,00 %
25.12.2018 04:48 2,1 C 4,4 C 1,7 C 86 % 1032,1 hPa 0,0 l/m 13,1 km/h (3 Bft) W 261 0 min 0,000 mm 0,0 UV-I 0 W/m 0,0 C -3,3 C 17,7 km/h (3 Bft) 92,00 %
25.12.2018 04:50 2,1 C 4,4 C 1,7 C 86 % 1032,1 hPa 0,0 l/m 11,8 km/h (2 Bft) W-SW 250 0 min 0,000 mm 0,0 UV-I 0 W/m 0,0 C -2,4 C 17,7 km/h (3 Bft) 95,74 %
25.12.2018 04:52 2,1 C 4,4 C 1,7 C 86 % 1032,1 hPa 0,0 l/m 11,8 km/h (2 Bft) W 275 0 min 0,000 mm 0,0 UV-I 0 W/m 0,0 C -2,4 C 17,7 km/h (3 Bft) 93,62 %
25.12.2018 04:54 2,1 C 4,4 C 1,7 C 86 % 1032,1 hPa 0,0 l/m 12,4 km/h (3 Bft) W 277 0 min 0,000 mm 0,0 UV-I 0 W/m 0,0 C -2,9 C 17,7 km/h (3 Bft) 91,49 %
25.12.2018 04:56 2,0 C 4,4 C 1,7 C 86 % 1032,1 hPa 0,0 l/m 13,8 km/h (3 Bft) W 262 0 min 0,000 mm 0,0 UV-I 0 W/m -0,1 C -3,9 C 24,1 km/h (4 Bft) 93,75 %
25.12.2018 04:58 2,0 C 4,4 C 1,7 C 86 % 1032,1 hPa 0,0 l/m 16,0 km/h (3 Bft) W-NW 303 0 min 0,000 mm 0,0 UV-I 0 W/m -0,1 C -5,1 C 29,0 km/h (5 Bft) 95,74 %
25.12.2018 05:00 2,0 C 4,4 C 1,7 C 86 % 1032,1 hPa 0,0 l/m 9,6 km/h (2 Bft) W 267 0 min 0,025 mm 0,0 UV-I 0 W/m -0,1 C -0,9 C 14,5 km/h (3 Bft) 98,00 %
25.12.2018 05:02 2,0 C 4,4 C 1,7 C 86 % 1032,1 hPa 0,0 l/m 10,4 km/h (2 Bft) W-SW 250 0 min 0,000 mm 0,0 UV-I 0 W/m -0,1 C -1,5 C 14,5 km/h (3 Bft) 97,14 %
25.12.2018 05:04 2,0 C 4,4 C 1,7 C 86 % 1032,1 hPa 0,0 l/m 14,9 km/h (3 Bft) W 263 0 min 0,000 mm 0,0 UV-I 0 W/m -0,1 C -4,5 C 22,5 km/h (4 Bft) 97,87 %
25.12.2018 05:06 2,0 C 4,4 C 1,7 C 86 % 1032,1 hPa 0,0 l/m 7,7 km/h (2 Bft) W-NW 294 0 min 0,000 mm 0,0 UV-I 0 W/m -0,1 C 0,7 C 16,1 km/h (3 Bft) 95,74 %
25.12.2018 05:08 2,0 C 4,4 C 1,1 C 86 % 1032,1 hPa 0,0 l/m 8,2 km/h (2 Bft) W-NW 288 0 min 0,000 mm 0,0 UV-I 0 W/m -0,1 C 0,3 C 14,5 km/h (3 Bft) 97,87 %
25.12.2018 05:10 1,9 C 4,4 C 1,1 C 86 % 1032,1 hPa 0,0 l/m 7,0 km/h (2 Bft) W 263 0 min 0,000 mm 0,0 UV-I 0 W/m -0,2 C 1,3 C 11,3 km/h (2 Bft) 100,00 %
25.12.2018 05:12 1,9 C 4,4 C 1,1 C 86 % 1032,1 hPa 0,0 l/m 12,0 km/h (2 Bft) W 281 0 min 0,000 mm 0,0 UV-I 0 W/m -0,2 C -2,8 C 22,5 km/h (4 Bft) 100,00 %
25.12.2018 05:14 1,9 C 4,4 C 1,1 C 86 % 1032,1 hPa 0,0 l/m 12,3 km/h (3 Bft) W 259 0 min 0,000 mm 0,0 UV-I 0 W/m -0,2 C -3,0 C 16,1 km/h (3 Bft) 88,00 %
25.12.2018 05:16 1,9 C 4,4 C 1,1 C 86 % 1032,1 hPa 0,0 l/m 12,3 km/h (3 Bft) W 266 0 min 0,000 mm 0,0 UV-I 0 W/m -0,2 C -3,0 C 17,7 km/h (3 Bft) 97,37 %
25.12.2018 05:18 1,9 C 4,4 C 1,1 C 86 % 1032,1 hPa 0,0 l/m 8,8 km/h (2 Bft) W 264 0 min 0,000 mm 0,0 UV-I 0 W/m -0,2 C -0,4 C 12,9 km/h (3 Bft) 100,00 %
25.12.2018 05:20 1,9 C 4,4 C 1,1 C 86 % 1032,1 hPa 0,0 l/m 9,3 km/h (2 Bft) W-NW 282 0 min 0,000 mm 0,0 UV-I 0 W/m -0,2 C -0,8 C 14,5 km/h (3 Bft) 100,00 %
25.12.2018 05:22 1,9 C 4,4 C 1,1 C 86 % 1032,1 hPa 0,0 l/m 10,9 km/h (2 Bft) W 273 0 min 0,000 mm 0,0 UV-I 0 W/m -0,2 C -2,0 C 14,5 km/h (3 Bft) 100,00 %
25.12.2018 05:24 1,9 C 4,4 C 1,1 C 86 % 1032,2 hPa 0,0 l/m 7,6 km/h (2 Bft) W-SW 255 0 min 0,000 mm 0,0 UV-I 0 W/m -0,2 C 0,7 C 11,3 km/h (2 Bft) 100,00 %
25.12.2018 05:26 1,8 C 4,4 C 1,1 C 86 % 1032,2 hPa 0,0 l/m 10,8 km/h (2 Bft) W 269 0 min 0,000 mm 0,0 UV-I 0 W/m -0,3 C -2,1 C 19,3 km/h (3 Bft) 100,00 %
25.12.2018 05:28 1,9 C 4,4 C 1,1 C 86 % 1032,2 hPa 0,0 l/m 11,0 km/h (2 Bft) W-SW 255 0 min 0,000 mm 0,0 UV-I 0 W/m -0,2 C -2,1 C 14,5 km/h (3 Bft) 94,34 %
25.12.2018 05:30 1,8 C 4,4 C 1,1 C 86 % 1032,3 hPa 0,0 l/m 7,4 km/h (2 Bft) W 275 0 min 0,000 mm 0,0 UV-I 0 W/m -0,3 C 0,8 C 12,9 km/h (3 Bft) 100,00 %
25.12.2018 05:32 1,8 C 4,4 C 1,1 C 86 % 1032,3 hPa 0,0 l/m 12,8 km/h (3 Bft) W-SW 248 0 min 0,000 mm 0,0 UV-I 0 W/m -0,3 C -3,5 C 17,7 km/h (3 Bft) 100,00 %
25.12.2018 05:34 1,8 C 4,4 C 1,1 C 86 % 1032,4 hPa 0,0 l/m 9,2 km/h (2 Bft) W 265 0 min 0,000 mm 0,0 UV-I 0 W/m -0,3 C -0,8 C 12,9 km/h (3 Bft) 97,87 %
25.12.2018 05:36 1,8 C 4,4 C 1,1 C 86 % 1032,3 hPa 0,0 l/m 10,3 km/h (2 Bft) W 278 0 min 0,000 mm 0,0 UV-I 0 W/m -0,3 C -1,7 C 17,7 km/h (3 Bft) 97,87 %
25.12.2018 05:38 1,8 C 4,4 C 1,1 C 86 % 1032,3 hPa 0,0 l/m 10,3 km/h (2 Bft) W 272 0 min 0,000 mm 0,0 UV-I 0 W/m -0,3 C -1,7 C 16,1 km/h (3 Bft) 100,00 %
25.12.2018 05:40 1,8 C 4,4 C 1,1 C 86 % 1032,3 hPa 0,0 l/m 12,7 km/h (3 Bft) W-NW 299 0 min 0,000 mm 0,0 UV-I 0 W/m -0,3 C -3,4 C 19,3 km/h (3 Bft) 96,00 %
25.12.2018 05:42 1,8 C 4,4 C 1,1 C 86 % 1032,2 hPa 0,0 l/m 14,5 km/h (3 Bft) W 272 0 min 0,000 mm 0,0 UV-I 0 W/m -0,3 C -4,5 C 24,1 km/h (4 Bft) 100,00 %
25.12.2018 05:44 1,8 C 4,4 C 1,1 C 86 % 1032,3 hPa 0,0 l/m 12,8 km/h (3 Bft) W-SW 238 0 min 0,000 mm 0,0 UV-I 0 W/m -0,3 C -3,5 C 19,3 km/h (3 Bft) 100,00 %
25.12.2018 05:46 1,8 C 4,4 C 1,1 C 86 % 1032,3 hPa 0,0 l/m 11,5 km/h (2 Bft) W 271 0 min 0,000 mm 0,0 UV-I 0 W/m -0,3 C -2,6 C 19,3 km/h (3 Bft) 100,00 %
25.12.2018 05:48 1,8 C 4,4 C 1,1 C 86 % 1032,3 hPa 0,0 l/m 10,5 km/h (2 Bft) W 277 0 min 0,000 mm 0,0 UV-I 0 W/m -0,3 C -1,8 C 16,1 km/h (3 Bft) 95,74 %
25.12.2018 05:50 1,8 C 4,4 C 1,1 C 86 % 1032,3 hPa 0,0 l/m 13,4 km/h (3 Bft) W 260 0 min 0,000 mm 0,0 UV-I 0 W/m -0,3 C -3,8 C 19,3 km/h (3 Bft) 100,00 %
25.12.2018 05:52 1,8 C 4,4 C 1,1 C 86 % 1032,3 hPa 0,0 l/m 14,2 km/h (3 Bft) W 263 0 min 0,000 mm 0,0 UV-I 0 W/m -0,3 C -4,3 C 19,3 km/h (3 Bft) 100,00 %
25.12.2018 05:54 1,8 C 4,4 C 1,1 C 86 % 1032,3 hPa 0,0 l/m 13,2 km/h (3 Bft) NW 304 0 min 0,000 mm 0,0 UV-I 0 W/m -0,3 C -3,7 C 19,3 km/h (3 Bft) 100,00 %
25.12.2018 05:56 1,8 C 4,4 C 1,1 C 86 % 1032,3 hPa 0,0 l/m 14,1 km/h (3 Bft) W-SW 257 0 min 0,000 mm 0,0 UV-I 0 W/m -0,3 C -4,3 C 20,9 km/h (4 Bft) 100,00 %
25.12.2018 05:58 1,8 C 4,4 C 1,1 C 86 % 1032,3 hPa 0,0 l/m 14,0 km/h (3 Bft) W 265 0 min 0,000 mm 0,0 UV-I 0 W/m -0,3 C -4,2 C 20,9 km/h (4 Bft) 100,00 %
25.12.2018 06:00 1,8 C 4,4 C 1,1 C 85 % 1032,3 hPa 0,0 l/m 11,3 km/h (2 Bft) W 273 0 min 0,000 mm 0,0 UV-I 0 W/m -0,4 C -2,4 C 17,7 km/h (3 Bft) 97,87 %
25.12.2018 06:02 1,8 C 4,4 C 1,1 C 85 % 1032,2 hPa 0,0 l/m 13,1 km/h (3 Bft) W 260 0 min 0,025 mm 0,0 UV-I 0 W/m -0,4 C -3,7 C 20,9 km/h (4 Bft) 97,37 %
25.12.2018 06:04 1,8 C 4,4 C 1,1 C 86 % 1032,3 hPa 0,0 l/m 13,0 km/h (3 Bft) W-SW 255 0 min 0,000 mm 0,0 UV-I 0 W/m -0,3 C -3,6 C 19,3 km/h (3 Bft) 97,92 %
25.12.2018 06:06 1,8 C 4,4 C 1,1 C 86 % 1032,3 hPa 0,0 l/m 11,5 km/h (2 Bft) W-NW 300 0 min 0,000 mm 0,0 UV-I 0 W/m -0,3 C -2,6 C 20,9 km/h (4 Bft) 97,87 %
25.12.2018 06:08 1,8 C 4,4 C 1,1 C 86 % 1032,3 hPa 0,0 l/m 13,8 km/h (3 Bft) W-SW 254 0 min 0,000 mm 0,0 UV-I 0 W/m -0,3 C -4,1 C 24,1 km/h (4 Bft) 93,62 %
25.12.2018 06:10 1,8 C 4,4 C 1,1 C 85 % 1032,3 hPa 0,0 l/m 14,5 km/h (3 Bft) W 278 0 min 0,000 mm 0,0 UV-I 0 W/m -0,4 C -4,5 C 20,9 km/h (4 Bft) 98,00 %
25.12.2018 06:12 1,8 C 4,4 C 1,1 C 85 % 1032,2 hPa 0,0 l/m 13,7 km/h (3 Bft) W 261 0 min 0,000 mm 0,0 UV-I 0 W/m -0,4 C -4,0 C 24,1 km/h (4 Bft) 95,74 %
25.12.2018 06:14 1,8 C 4,4 C 1,1 C 85 % 1032,3 hPa 0,0 l/m 11,7 km/h (2 Bft) W-NW 285 0 min 0,000 mm 0,0 UV-I 0 W/m -0,4 C -2,7 C 19,3 km/h (3 Bft) 95,74 %
25.12.2018 06:16 1,8 C 4,4 C 1,1 C 85 % 1032,2 hPa 0,0 l/m 10,0 km/h (2 Bft) W-NW 283 0 min 0,000 mm 0,0 UV-I 0 W/m -0,4 C -1,5 C 17,7 km/h (3 Bft) 95,74 %
25.12.2018 06:18 1,7 C 4,4 C 1,1 C 85 % 1032,3 hPa 0,0 l/m 14,2 km/h (3 Bft) W 273 0 min 0,000 mm 0,0 UV-I 0 W/m -0,5 C -4,5 C 19,3 km/h (3 Bft) 91,49 %
25.12.2018 06:20 1,8 C 4,4 C 1,1 C 86 % 1032,3 hPa 0,0 l/m 11,3 km/h (2 Bft) W-SW 254 0 min 0,000 mm 0,0 UV-I 0 W/m -0,3 C -2,4 C 17,7 km/h (3 Bft) 93,62 %
25.12.2018 06:22 1,7 C 4,4 C 0,6 C 86 % 1032,3 hPa 0,0 l/m 12,7 km/h (3 Bft) W-SW 240 0 min 0,000 mm 0,0 UV-I 0 W/m -0,4 C -3,5 C 17,7 km/h (3 Bft) 97,87 %
25.12.2018 06:24 1,7 C 4,4 C 0,6 C 86 % 1032,3 hPa 0,0 l/m 12,3 km/h (3 Bft) W 270 0 min 0,000 mm 0,0 UV-I 0 W/m -0,4 C -3,2 C 19,3 km/h (3 Bft) 91,49 %
25.12.2018 06:26 1,7 C 4,4 C 0,6 C 86 % 1032,3 hPa 0,0 l/m 11,0 km/h (2 Bft) W 265 0 min 0,000 mm 0,0 UV-I 0 W/m -0,4 C -2,3 C 17,7 km/h (3 Bft) 97,87 %
25.12.2018 06:28 1,7 C 4,4 C 0,6 C 86 % 1032,4 hPa 0,0 l/m 9,9 km/h (2 Bft) W 260 0 min 0,000 mm 0,0 UV-I 0 W/m -0,4 C -1,5 C 14,5 km/h (3 Bft) 98,00 %
25.12.2018 06:30 1,7 C 4,4 C 0,6 C 86 % 1032,4 hPa 0,0 l/m 10,2 km/h (2 Bft) W-SW 251 0 min 0,000 mm 0,0 UV-I 0 W/m -0,4 C -1,7 C 17,7 km/h (3 Bft) 97,37 %
25.12.2018 06:32 1,7 C 4,4 C 1,1 C 87 % 1032,5 hPa 0,0 l/m 11,1 km/h (2 Bft) W 281 0 min 0,000 mm 0,0 UV-I 0 W/m -0,2 C -2,4 C 16,1 km/h (3 Bft) 95,74 %
25.12.2018 06:34 1,7 C 4,4 C 1,1 C 87 % 1032,5 hPa 0,0 l/m 11,0 km/h (2 Bft) W 269 0 min 0,000 mm 0,0 UV-I 0 W/m -0,2 C -2,3 C 16,1 km/h (3 Bft) 97,87 %
25.12.2018 06:36 1,7 C 4,4 C 1,1 C 87 % 1032,5 hPa 0,0 l/m 12,6 km/h (3 Bft) W 269 0 min 0,000 mm 0,0 UV-I 0 W/m -0,2 C -3,4 C 16,1 km/h (3 Bft) 97,87 %
25.12.2018 06:38 1,7 C 4,4 C 1,1 C 87 % 1032,5 hPa 0,0 l/m 9,8 km/h (2 Bft) W 273 0 min 0,000 mm 0,0 UV-I 0 W/m -0,2 C -1,4 C 16,1 km/h (3 Bft) 93,62 %
25.12.2018 06:40 1,7 C 4,4 C 1,1 C 87 % 1032,5 hPa 0,0 l/m 10,3 km/h (2 Bft) W-SW 238 0 min 0,000 mm 0,0 UV-I 0 W/m -0,2 C -1,8 C 14,5 km/h (3 Bft) 93,62 %
25.12.2018 06:42 1,7 C 4,4 C 1,1 C 87 % 1032,5 hPa 0,0 l/m 10,9 km/h (2 Bft) W 266 0 min 0,000 mm 0,0 UV-I 0 W/m -0,2 C -2,3 C 14,5 km/h (3 Bft) 95,74 %
25.12.2018 06:44 1,7 C 4,4 C 1,1 C 87 % 1032,5 hPa 0,0 l/m 9,5 km/h (2 Bft) W-SW 237 0 min 0,000 mm 0,0 UV-I 0 W/m -0,2 C -1,2 C 14,5 km/h (3 Bft) 95,83 %
25.12.2018 06:46 1,7 C 4,4 C 1,1 C 87 % 1032,5 hPa 0,0 l/m 12,8 km/h (3 Bft) W-SW 249 0 min 0,000 mm 0,0 UV-I 0 W/m -0,2 C -3,6 C 17,7 km/h (3 Bft) 97,87 %
25.12.2018 06:48 1,7 C 4,4 C 1,1 C 87 % 1032,5 hPa 0,0 l/m 14,0 km/h (3 Bft) W-SW 248 0 min 0,000 mm 0,0 UV-I 0 W/m -0,2 C -4,3 C 19,3 km/h (3 Bft) 100,00 %
25.12.2018 06:50 1,7 C 4,4 C 1,1 C 87 % 1032,4 hPa 0,0 l/m 13,5 km/h (3 Bft) W-SW 244 0 min 0,000 mm 0,0 UV-I 0 W/m -0,2 C -4,0 C 19,3 km/h (3 Bft) 97,87 %
25.12.2018 06:52 1,7 C 4,4 C 1,1 C 87 % 1032,4 hPa 0,0 l/m 14,1 km/h (3 Bft) W-SW 239 0 min 0,000 mm 0,0 UV-I 0 W/m -0,2 C -4,4 C 19,3 km/h (3 Bft) 97,87 %
25.12.2018 06:54 1,7 C 4,4 C 1,1 C 87 % 1032,4 hPa 0,0 l/m 14,9 km/h (3 Bft) W-SW 246 0 min 0,000 mm 0,0 UV-I 0 W/m -0,2 C -4,9 C 22,5 km/h (4 Bft) 100,00 %
25.12.2018 06:56 1,7 C 4,4 C 1,1 C 87 % 1032,4 hPa 0,0 l/m 14,3 km/h (3 Bft) W 281 0 min 0,000 mm 0,0 UV-I 0 W/m -0,2 C -4,5 C 22,5 km/h (4 Bft) 97,87 %
25.12.2018 06:58 1,7 C 4,4 C 1,1 C 87 % 1032,3 hPa 0,0 l/m 12,7 km/h (3 Bft) SW 232 0 min 0,000 mm 0,0 UV-I 0 W/m -0,2 C -3,5 C 19,3 km/h (3 Bft) 100,00 %
25.12.2018 07:00 1,7 C 4,4 C 1,1 C 87 % 1032,2 hPa 0,0 l/m 12,8 km/h (3 Bft) SW 222 0 min 0,026 mm 0,0 UV-I 0 W/m -0,2 C -3,6 C 19,3 km/h (3 Bft) 97,87 %
25.12.2018 07:02 1,7 C 4,4 C 1,1 C 87 % 1032,3 hPa 0,0 l/m 15,5 km/h (3 Bft) W-SW 250 0 min 0,000 mm 0,0 UV-I 0 W/m -0,2 C -5,2 C 20,9 km/h (4 Bft) 95,74 %
25.12.2018 07:04 1,7 C 4,4 C 1,1 C 87 % 1032,3 hPa 0,0 l/m 10,5 km/h (2 Bft) SW 234 0 min 0,000 mm 0,0 UV-I 0 W/m -0,2 C -2,0 C 16,1 km/h (3 Bft) 98,00 %
25.12.2018 07:06 1,7 C 4,4 C 1,1 C 87 % 1032,4 hPa 0,0 l/m 9,8 km/h (2 Bft) SW 228 0 min 0,000 mm 0,0 UV-I 0 W/m -0,2 C -1,4 C 17,7 km/h (3 Bft) 100,00 %
25.12.2018 07:08 1,7 C 4,4 C 1,1 C 87 % 1032,4 hPa 0,0 l/m 11,4 km/h (2 Bft) W-SW 240 0 min 0,000 mm 0,0 UV-I 0 W/m -0,2 C -2,6 C 19,3 km/h (3 Bft) 98,00 %
25.12.2018 07:10 1,7 C 4,4 C 1,1 C 87 % 1032,4 hPa 0,0 l/m 13,4 km/h (3 Bft) W-SW 257 0 min 0,000 mm 0,0 UV-I 0 W/m -0,2 C -4,0 C 17,7 km/h (3 Bft) 100,00 %
25.12.2018 07:12 1,7 C 4,4 C 1,1 C 87 % 1032,4 hPa 0,0 l/m 12,8 km/h (3 Bft) W 261 0 min 0,000 mm 0,0 UV-I 0 W/m -0,2 C -3,6 C 17,7 km/h (3 Bft) 97,87 %
25.12.2018 07:14 1,6 C 4,4 C 1,1 C 87 % 1032,5 hPa 0,0 l/m 10,6 km/h (2 Bft) W-SW 250 0 min 0,000 mm 0,0 UV-I 0 W/m -0,3 C -2,1 C 17,7 km/h (3 Bft) 100,00 %
25.12.2018 07:16 1,6 C 4,4 C 1,1 C 87 % 1032,5 hPa 0,0 l/m 8,7 km/h (2 Bft) W-SW 246 0 min 0,000 mm 0,0 UV-I 0 W/m -0,3 C -0,6 C 12,9 km/h (3 Bft) 97,87 %
25.12.2018 07:18 1,6 C 4,4 C 1,1 C 87 % 1032,5 hPa 0,0 l/m 13,0 km/h (3 Bft) W 270 0 min 0,000 mm 0,0 UV-I 0 W/m -0,3 C -3,8 C 19,3 km/h (3 Bft) 95,74 %
25.12.2018 07:20 1,6 C 4,4 C 1,1 C 87 % 1032,5 hPa 0,0 l/m 11,6 km/h (2 Bft) W 271 0 min 0,000 mm 0,0 UV-I 0 W/m -0,3 C -2,9 C 19,3 km/h (3 Bft) 97,92 %
25.12.2018 07:22 1,6 C 4,4 C 1,1 C 87 % 1032,6 hPa 0,0 l/m 9,9 km/h (2 Bft) W-SW 247 0 min 0,000 mm 0,0 UV-I 0 W/m -0,3 C -1,6 C 17,7 km/h (3 Bft) 97,87 %
25.12.2018 07:24 1,6 C 4,4 C 1,1 C 87 % 1032,6 hPa 0,0 l/m 12,1 km/h (2 Bft) W-SW 256 0 min 0,000 mm 0,0 UV-I 0 W/m -0,3 C -3,2 C 17,7 km/h (3 Bft) 97,87 %
25.12.2018 07:26 1,6 C 4,4 C 1,1 C 87 % 1032,7 hPa 0,0 l/m 11,2 km/h (2 Bft) W 263 0 min 0,000 mm 0,0 UV-I 0 W/m -0,3 C -2,6 C 16,1 km/h (3 Bft) 95,74 %
25.12.2018 07:28 1,6 C 4,4 C 1,1 C 87 % 1032,7 hPa 0,0 l/m 14,0 km/h (3 Bft) W-SW 256 0 min 0,000 mm 0,0 UV-I 0 W/m -0,3 C -4,5 C 27,4 km/h (4 Bft) 97,87 %
25.12.2018 07:30 1,6 C 4,4 C 1,1 C 87 % 1032,7 hPa 0,0 l/m 14,6 km/h (3 Bft) W-SW 239 0 min 0,000 mm 0,0 UV-I 0 W/m -0,3 C -4,8 C 24,1 km/h (4 Bft) 89,36 %
25.12.2018 07:32 1,7 C 4,4 C 1,1 C 87 % 1032,7 hPa 0,0 l/m 13,2 km/h (3 Bft) W 262 0 min 0,000 mm 0,0 UV-I 0 W/m -0,2 C -3,8 C 17,7 km/h (3 Bft) 95,12 %
25.12.2018 07:34 1,7 C 4,4 C 1,1 C 87 % 1032,6 hPa 0,0 l/m 14,9 km/h (3 Bft) SW 235 0 min 0,000 mm 0,0 UV-I 0 W/m -0,2 C -4,9 C 22,5 km/h (4 Bft) 96,00 %
25.12.2018 07:36 1,7 C 4,4 C 1,1 C 86 % 1032,6 hPa 0,0 l/m 12,4 km/h (3 Bft) W-NW 288 0 min 0,000 mm 0,0 UV-I 0 W/m -0,4 C -3,3 C 19,3 km/h (3 Bft) 98,00 %
25.12.2018 07:38 1,7 C 4,4 C 1,1 C 86 % 1032,6 hPa 0,0 l/m 18,2 km/h (3 Bft) W-SW 251 0 min 0,000 mm 0,0 UV-I 0 W/m -0,4 C -6,6 C 24,1 km/h (4 Bft) 97,87 %
25.12.2018 07:40 1,7 C 4,4 C 1,1 C 86 % 1032,6 hPa 0,0 l/m 10,9 km/h (2 Bft) W 270 0 min 0,000 mm 0,0 UV-I 0 W/m -0,4 C -2,3 C 17,7 km/h (3 Bft) 100,00 %
25.12.2018 07:42 1,7 C 4,4 C 1,1 C 86 % 1032,6 hPa 0,0 l/m 12,7 km/h (3 Bft) W 259 0 min 0,000 mm 0,0 UV-I 0 W/m -0,4 C -3,5 C 17,7 km/h (3 Bft) 97,87 %
25.12.2018 07:44 1,7 C 4,4 C 1,1 C 86 % 1032,6 hPa 0,0 l/m 15,4 km/h (3 Bft) W 268 0 min 0,000 mm 0,0 UV-I 0 W/m -0,4 C -5,1 C 27,4 km/h (4 Bft) 98,00 %
25.12.2018 07:46 1,7 C 4,4 C 1,1 C 85 % 1032,7 hPa 0,0 l/m 14,5 km/h (3 Bft) W 279 0 min 0,000 mm 0,0 UV-I 0 W/m -0,5 C -4,6 C 22,5 km/h (4 Bft) 91,49 %
25.12.2018 07:48 1,7 C 4,4 C 1,1 C 85 % 1032,7 hPa 0,0 l/m 12,4 km/h (3 Bft) W 262 0 min 0,000 mm 0,0 UV-I 4 W/m -0,5 C -3,3 C 17,7 km/h (3 Bft) 100,00 %
25.12.2018 07:50 1,7 C 4,4 C 1,1 C 85 % 1032,7 hPa 0,0 l/m 13,5 km/h (3 Bft) W 263 0 min 0,000 mm 0,0 UV-I 5 W/m -0,5 C -4,0 C 17,7 km/h (3 Bft) 98,11 %
25.12.2018 07:52 1,7 C 4,4 C 1,1 C 85 % 1032,7 hPa 0,0 l/m 13,4 km/h (3 Bft) W-SW 245 0 min 0,000 mm 0,0 UV-I 5 W/m -0,5 C -4,0 C 19,3 km/h (3 Bft) 97,87 %
25.12.2018 07:54 1,7 C 4,4 C 1,1 C 85 % 1032,7 hPa 0,0 l/m 12,7 km/h (3 Bft) W-SW 257 0 min 0,000 mm 0,0 UV-I 5 W/m -0,5 C -3,5 C 17,7 km/h (3 Bft) 97,87 %
25.12.2018 07:56 1,7 C 4,4 C 1,1 C 85 % 1032,7 hPa 0,0 l/m 12,2 km/h (2 Bft) W 277 0 min 0,000 mm 0,0 UV-I 5 W/m -0,5 C -3,2 C 20,9 km/h (4 Bft) 95,74 %
25.12.2018 07:58 1,7 C 4,4 C 1,1 C 85 % 1032,7 hPa 0,0 l/m 13,4 km/h (3 Bft) W-SW 256 0 min 0,000 mm 0,0 UV-I 5 W/m -0,5 C -4,0 C 19,3 km/h (3 Bft) 95,74 %
25.12.2018 08:00 1,7 C 4,4 C 1,1 C 85 % 1032,6 hPa 0,0 l/m 13,9 km/h (3 Bft) W 265 0 min 0,025 mm 0,0 UV-I 5 W/m -0,5 C -4,3 C 20,9 km/h (4 Bft) 97,92 %
25.12.2018 08:02 1,7 C 4,4 C 1,1 C 85 % 1032,7 hPa 0,0 l/m 14,1 km/h (3 Bft) W 265 0 min 0,000 mm 0,0 UV-I 6 W/m -0,5 C -4,4 C 17,7 km/h (3 Bft) 97,87 %
25.12.2018 08:04 1,6 C 4,4 C 1,1 C 86 % 1032,7 hPa 0,0 l/m 12,4 km/h (3 Bft) W 273 0 min 0,000 mm 0,0 UV-I 7 W/m -0,5 C -3,4 C 17,7 km/h (3 Bft) 95,74 %
25.12.2018 08:06 1,6 C 4,4 C 1,1 C 86 % 1032,7 hPa 0,0 l/m 11,1 km/h (2 Bft) W 263 0 min 0,000 mm 0,0 UV-I 7 W/m -0,5 C -2,5 C 16,1 km/h (3 Bft) 97,87 %
25.12.2018 08:08 1,6 C 4,4 C 1,1 C 86 % 1032,7 hPa 0,0 l/m 9,4 km/h (2 Bft) W-SW 250 0 min 0,000 mm 0,0 UV-I 7 W/m -0,5 C -1,2 C 14,5 km/h (3 Bft) 96,00 %
25.12.2018 08:10 1,6 C 4,4 C 1,1 C 86 % 1032,7 hPa 0,0 l/m 12,6 km/h (3 Bft) W 270 0 min 0,000 mm 0,0 UV-I 8 W/m -0,5 C -3,6 C 17,7 km/h (3 Bft) 94,29 %
25.12.2018 08:12 1,6 C 4,4 C 1,1 C 86 % 1032,7 hPa 0,0 l/m 11,6 km/h (2 Bft) W-SW 241 0 min 0,000 mm 0,0 UV-I 9 W/m -0,5 C -2,9 C 17,7 km/h (3 Bft) 95,74 %
25.12.2018 08:14 1,6 C 4,4 C 1,1 C 85 % 1032,7 hPa 0,0 l/m 13,4 km/h (3 Bft) W 275 0 min 0,000 mm 0,0 UV-I 9 W/m -0,6 C -4,1 C 22,5 km/h (4 Bft) 96,00 %
25.12.2018 08:16 1,6 C 4,4 C 1,1 C 85 % 1032,7 hPa 0,0 l/m 10,6 km/h (2 Bft) W-SW 246 0 min 0,000 mm 0,0 UV-I 11 W/m -0,6 C -2,1 C 17,7 km/h (3 Bft) 95,74 %
25.12.2018 08:18 1,6 C 4,4 C 1,1 C 85 % 1032,6 hPa 0,0 l/m 11,2 km/h (2 Bft) W-SW 248 0 min 0,000 mm 0,0 UV-I 11 W/m -0,6 C -2,6 C 16,1 km/h (3 Bft) 95,74 %
25.12.2018 08:20 1,6 C 4,4 C 1,1 C 85 % 1032,6 hPa 0,0 l/m 11,8 km/h (2 Bft) W 273 0 min 0,000 mm 0,0 UV-I 12 W/m -0,6 C -3,0 C 17,7 km/h (3 Bft) 95,74 %
25.12.2018 08:22 1,6 C 4,4 C 1,1 C 85 % 1032,6 hPa 0,0 l/m 12,2 km/h (2 Bft) W-SW 238 0 min 0,000 mm 0,0 UV-I 14 W/m -0,6 C -3,3 C 19,3 km/h (3 Bft) 91,49 %
25.12.2018 08:24 1,6 C 4,4 C 1,1 C 85 % 1032,6 hPa 0,0 l/m 10,3 km/h (2 Bft) SW 230 0 min 0,000 mm 0,0 UV-I 16 W/m -0,6 C -1,9 C 16,1 km/h (3 Bft) 97,87 %
25.12.2018 08:26 1,6 C 4,4 C 1,1 C 86 % 1032,7 hPa 0,0 l/m 10,7 km/h (2 Bft) SW 230 0 min 0,000 mm 0,0 UV-I 18 W/m -0,5 C -2,2 C 16,1 km/h (3 Bft) 93,62 %
25.12.2018 08:28 1,6 C 4,4 C 1,7 C 85 % 1032,7 hPa 0,0 l/m 9,2 km/h (2 Bft) W-SW 244 0 min 0,000 mm 0,0 UV-I 19 W/m -0,6 C -1,0 C 14,5 km/h (3 Bft) 93,62 %
25.12.2018 08:30 1,6 C 4,4 C 1,7 C 85 % 1032,7 hPa 0,0 l/m 9,7 km/h (2 Bft) SW 221 0 min 0,000 mm 0,0 UV-I 21 W/m -0,6 C -1,4 C 16,1 km/h (3 Bft) 93,62 %
25.12.2018 08:32 1,6 C 4,4 C 1,7 C 85 % 1032,7 hPa 0,0 l/m 7,0 km/h (2 Bft) W-SW 240 0 min 0,000 mm 0,0 UV-I 23 W/m -0,6 C 1,0 C 12,9 km/h (3 Bft) 92,00 %
25.12.2018 08:34 1,6 C 4,4 C 1,7 C 85 % 1032,6 hPa 0,0 l/m 7,8 km/h (2 Bft) SW 224 0 min 0,000 mm 0,0 UV-I 26 W/m -0,6 C 0,2 C 11,3 km/h (2 Bft) 93,62 %
25.12.2018 08:36 1,6 C 4,4 C 1,7 C 85 % 1032,6 hPa 0,0 l/m 9,3 km/h (2 Bft) S-SW 212 0 min 0,000 mm 0,0 UV-I 29 W/m -0,6 C -1,1 C 12,9 km/h (3 Bft) 93,62 %
25.12.2018 08:38 1,6 C 4,4 C 1,7 C 85 % 1032,5 hPa 0,0 l/m 12,4 km/h (3 Bft) S-SW 200 0 min 0,000 mm 0,0 UV-I 33 W/m -0,6 C -3,4 C 19,3 km/h (3 Bft) 92,31 %
25.12.2018 08:40 1,6 C 4,4 C 1,7 C 85 % 1032,6 hPa 0,0 l/m 12,0 km/h (2 Bft) W-SW 238 0 min 0,000 mm 0,0 UV-I 35 W/m -0,6 C -3,2 C 17,7 km/h (3 Bft) 91,49 %
25.12.2018 08:42 1,6 C 4,4 C 1,7 C 86 % 1032,6 hPa 0,0 l/m 8,4 km/h (2 Bft) SW 232 0 min 0,000 mm 0,0 UV-I 39 W/m -0,5 C -0,3 C 14,5 km/h (3 Bft) 91,49 %
25.12.2018 08:44 1,6 C 4,4 C 1,7 C 86 % 1032,6 hPa 0,0 l/m 10,4 km/h (2 Bft) SW 235 0 min 0,000 mm 0,0 UV-I 43 W/m -0,5 C -2,0 C 14,5 km/h (3 Bft) 90,57 %
25.12.2018 08:46 1,6 C 4,4 C 1,7 C 86 % 1032,6 hPa 0,0 l/m 12,7 km/h (3 Bft) W-SW 243 0 min 0,000 mm 0,0 UV-I 48 W/m -0,5 C -3,6 C 22,5 km/h (4 Bft) 89,36 %
25.12.2018 08:48 1,6 C 4,4 C 1,7 C 86 % 1032,6 hPa 0,0 l/m 11,7 km/h (2 Bft) W 259 0 min 0,000 mm 0,0 UV-I 55 W/m -0,5 C -3,0 C 19,3 km/h (3 Bft) 93,62 %
25.12.2018 08:50 1,6 C 4,4 C 2,2 C 86 % 1032,6 hPa 0,0 l/m 11,7 km/h (2 Bft) W-SW 238 0 min 0,000 mm 0,0 UV-I 61 W/m -0,5 C -3,0 C 19,3 km/h (3 Bft) 93,62 %
25.12.2018 08:52 1,7 C 4,4 C 2,2 C 86 % 1032,6 hPa 0,0 l/m 13,2 km/h (3 Bft) S-SW 209 0 min 0,000 mm 0,0 UV-I 65 W/m -0,4 C -3,8 C 20,9 km/h (4 Bft) 91,49 %
25.12.2018 08:54 1,7 C 4,4 C 2,2 C 86 % 1032,6 hPa 0,0 l/m 14,6 km/h (3 Bft) W-SW 238 0 min 0,000 mm 0,0 UV-I 66 W/m -0,4 C -4,7 C 22,5 km/h (4 Bft) 95,74 %
25.12.2018 08:56 1,7 C 4,4 C 2,2 C 86 % 1032,6 hPa 0,0 l/m 14,5 km/h (3 Bft) SW 217 0 min 0,000 mm 0,0 UV-I 62 W/m -0,4 C -4,6 C 19,3 km/h (3 Bft) 95,74 %
25.12.2018 08:58 1,7 C 4,4 C 2,2 C 86 % 1032,6 hPa 0,0 l/m 11,4 km/h (2 Bft) SW 215 0 min 0,000 mm 0,0 UV-I 57 W/m -0,4 C -2,6 C 19,3 km/h (3 Bft) 96,00 %
25.12.2018 09:00 1,7 C 4,4 C 2,2 C 86 % 1032,6 hPa 0,0 l/m 12,8 km/h (3 Bft) SW 236 0 min 0,026 mm 0,0 UV-I 53 W/m -0,4 C -3,6 C 22,5 km/h (4 Bft) 95,74 %
25.12.2018 09:02 1,7 C 4,4 C 2,2 C 85 % 1032,5 hPa 0,0 l/m 15,7 km/h (3 Bft) SW 236 0 min 0,000 mm 0,0 UV-I 56 W/m -0,5 C -5,3 C 27,4 km/h (4 Bft) 97,14 %
25.12.2018 09:04 1,7 C 4,4 C 2,2 C 85 % 1032,5 hPa 0,0 l/m 13,9 km/h (3 Bft) W-SW 250 0 min 0,000 mm 0,0 UV-I 62 W/m -0,5 C -4,3 C 22,5 km/h (4 Bft) 98,00 %
25.12.2018 09:06 1,8 C 4,4 C 2,2 C 85 % 1032,5 hPa 0,0 l/m 15,0 km/h (3 Bft) SW 224 0 min 0,000 mm 0,0 UV-I 62 W/m -0,4 C -4,8 C 25,7 km/h (4 Bft) 100,00 %
25.12.2018 09:08 1,8 C 4,4 C 2,2 C 85 % 1032,6 hPa 0,0 l/m 19,6 km/h (3 Bft) SW 231 0 min 0,000 mm 0,0 UV-I 59 W/m -0,4 C -7,1 C 30,6 km/h (5 Bft) 100,00 %
25.12.2018 09:10 1,8 C 4,4 C 2,2 C 85 % 1032,6 hPa 0,0 l/m 15,4 km/h (3 Bft) SW 236 0 min 0,000 mm 0,0 UV-I 56 W/m -0,4 C -5,0 C 24,1 km/h (4 Bft) 100,00 %
25.12.2018 09:12 1,8 C 4,4 C 2,2 C 85 % 1032,6 hPa 0,0 l/m 13,9 km/h (3 Bft) S-SW 199 0 min 0,000 mm 0,0 UV-I 53 W/m -0,4 C -4,2 C 24,1 km/h (4 Bft) 100,00 %
25.12.2018 09:14 1,8 C 4,4 C 2,2 C 84 % 1032,5 hPa 0,0 l/m 11,0 km/h (2 Bft) W-SW 244 0 min 0,000 mm 0,0 UV-I 49 W/m -0,6 C -2,2 C 19,3 km/h (3 Bft) 100,00 %
25.12.2018 09:16 1,8 C 4,4 C 1,7 C 84 % 1032,5 hPa 0,0 l/m 14,8 km/h (3 Bft) SW 219 0 min 0,000 mm 0,0 UV-I 46 W/m -0,6 C -4,7 C 22,5 km/h (4 Bft) 98,00 %
25.12.2018 09:18 1,8 C 4,4 C 1,7 C 84 % 1032,5 hPa 0,0 l/m 14,1 km/h (3 Bft) S-SW 207 0 min 0,000 mm 0,0 UV-I 44 W/m -0,6 C -4,3 C 25,7 km/h (4 Bft) 97,44 %
25.12.2018 09:20 1,7 C 4,4 C 1,7 C 84 % 1032,5 hPa 0,0 l/m 14,3 km/h (3 Bft) W 261 0 min 0,000 mm 0,0 UV-I 47 W/m -0,7 C -4,5 C 17,7 km/h (3 Bft) 100,00 %
25.12.2018 09:22 1,7 C 4,4 C 1,7 C 84 % 1032,5 hPa 0,0 l/m 11,5 km/h (2 Bft) SW 214 0 min 0,000 mm 0,0 UV-I 53 W/m -0,7 C -2,7 C 19,3 km/h (3 Bft) 100,00 %
25.12.2018 09:24 1,7 C 4,4 C 1,7 C 84 % 1032,6 hPa 0,0 l/m 13,6 km/h (3 Bft) SW 223 0 min 0,000 mm 0,0 UV-I 66 W/m -0,7 C -4,1 C 22,5 km/h (4 Bft) 100,00 %
25.12.2018 09:26 1,7 C 4,4 C 2,2 C 85 % 1032,6 hPa 0,0 l/m 13,4 km/h (3 Bft) SW 231 0 min 0,000 mm 0,0 UV-I 87 W/m -0,5 C -4,0 C 19,3 km/h (3 Bft) 100,00 %
25.12.2018 09:28 1,7 C 4,4 C 2,2 C 85 % 1032,6 hPa 0,0 l/m 16,2 km/h (3 Bft) W-SW 245 2 min 0,000 mm 0,0 UV-I 113 W/m -0,5 C -5,6 C 25,7 km/h (4 Bft) 100,00 %
25.12.2018 09:30 1,7 C 4,4 C 2,2 C 85 % 1032,6 hPa 0,0 l/m 15,6 km/h (3 Bft) SW 232 2 min 0,000 mm 0,0 UV-I 136 W/m -0,5 C -5,3 C 24,1 km/h (4 Bft) 97,37 %
25.12.2018 09:32 1,8 C 4,4 C 2,8 C 85 % 1032,7 hPa 0,0 l/m 16,7 km/h (3 Bft) W-SW 247 2 min 0,000 mm 0,0 UV-I 188 W/m -0,4 C -5,7 C 30,6 km/h (5 Bft) 98,00 %
25.12.2018 09:34 1,8 C 4,4 C 2,8 C 84 % 1032,7 hPa 0,0 l/m 19,7 km/h (3 Bft) W-SW 252 2 min 0,000 mm 0,0 UV-I 204 W/m -0,6 C -7,2 C 27,4 km/h (4 Bft) 97,87 %
25.12.2018 09:36 1,9 C 4,4 C 2,8 C 84 % 1032,8 hPa 0,0 l/m 19,6 km/h (3 Bft) S 190 2 min 0,000 mm 0,0 UV-I 180 W/m -0,5 C -7,0 C 25,7 km/h (4 Bft) 98,00 %
25.12.2018 09:38 2,0 C 4,4 C 2,8 C 84 % 1032,7 hPa 0,0 l/m 17,8 km/h (3 Bft) W-SW 248 2 min 0,000 mm 0,0 UV-I 123 W/m -0,4 C -6,0 C 27,4 km/h (4 Bft) 100,00 %
25.12.2018 09:40 2,0 C 4,4 C 2,8 C 84 % 1032,8 hPa 0,0 l/m 17,6 km/h (3 Bft) W-SW 240 2 min 0,000 mm 0,0 UV-I 117 W/m -0,4 C -5,9 C 24,1 km/h (4 Bft) 100,00 %
25.12.2018 09:42 2,1 C 4,4 C 2,8 C 84 % 1032,8 hPa 0,0 l/m 18,5 km/h (3 Bft) W 264 2 min 0,000 mm 0,0 UV-I 116 W/m -0,3 C -6,2 C 27,4 km/h (4 Bft) 100,00 %
25.12.2018 09:44 2,1 C 4,4 C 2,8 C 84 % 1032,8 hPa 0,0 l/m 15,9 km/h (3 Bft) S-SW 198 0 min 0,000 mm 0,0 UV-I 110 W/m -0,3 C -4,9 C 32,2 km/h (5 Bft) 100,00 %
25.12.2018 09:46 2,1 C 4,4 C 2,8 C 84 % 1032,7 hPa 0,0 l/m 17,4 km/h (3 Bft) W-SW 247 0 min 0,000 mm 0,0 UV-I 107 W/m -0,3 C -5,7 C 27,4 km/h (4 Bft) 100,00 %
25.12.2018 09:48 2,1 C 4,4 C 2,8 C 84 % 1032,7 hPa 0,0 l/m 15,4 km/h (3 Bft) SW 228 0 min 0,000 mm 0,0 UV-I 104 W/m -0,3 C -4,7 C 22,5 km/h (4 Bft) 100,00 %
25.12.2018 09:50 2,1 C 4,4 C 2,8 C 84 % 1032,7 hPa 0,0 l/m 13,9 km/h (3 Bft) W-SW 257 0 min 0,000 mm 0,0 UV-I 103 W/m -0,3 C -3,8 C 19,3 km/h (3 Bft) 95,74 %
25.12.2018 09:52 2,1 C 4,4 C 2,8 C 84 % 1032,8 hPa 0,0 l/m 13,9 km/h (3 Bft) W-SW 246 0 min 0,000 mm 0,0 UV-I 103 W/m -0,3 C -3,8 C 20,9 km/h (4 Bft) 95,83 %
25.12.2018 09:54 2,1 C 4,4 C 2,8 C 84 % 1032,8 hPa 0,0 l/m 15,4 km/h (3 Bft) W 261 0 min 0,000 mm 0,0 UV-I 100 W/m -0,3 C -4,7 C 27,4 km/h (4 Bft) 97,87 %
25.12.2018 09:56 2,0 C 4,4 C 2,8 C 84 % 1032,8 hPa 0,0 l/m 15,6 km/h (3 Bft) W 270 0 min 0,000 mm 0,0 UV-I 101 W/m -0,4 C -4,9 C 20,9 km/h (4 Bft) 95,74 %
25.12.2018 09:58 2,0 C 4,4 C 2,8 C 84 % 1032,7 hPa 0,0 l/m 14,5 km/h (3 Bft) W-SW 250 0 min 0,000 mm 0,0 UV-I 103 W/m -0,4 C -4,3 C 24,1 km/h (4 Bft) 95,74 %
25.12.2018 10:00 1,9 C 4,4 C 2,8 C 84 % 1032,7 hPa 0,0 l/m 14,4 km/h (3 Bft) SW 232 0 min 0,050 mm 0,0 UV-I 110 W/m -0,5 C -4,3 C 20,9 km/h (4 Bft) 98,00 %
25.12.2018 10:02 2,0 C 4,4 C 2,8 C 84 % 1032,7 hPa 0,0 l/m 13,2 km/h (3 Bft) W-SW 257 0 min 0,000 mm 0,0 UV-I 121 W/m -0,4 C -3,5 C 22,5 km/h (4 Bft) 97,87 %
25.12.2018 10:04 2,0 C 4,4 C 2,8 C 84 % 1032,7 hPa 0,0 l/m 10,3 km/h (2 Bft) SW 230 0 min 0,000 mm 0,0 UV-I 132 W/m -0,4 C -1,5 C 17,7 km/h (3 Bft) 97,87 %
25.12.2018 10:06 2,1 C 4,4 C 2,8 C 84 % 1032,7 hPa 0,0 l/m 13,8 km/h (3 Bft) W-SW 242 2 min 0,000 mm 0,0 UV-I 142 W/m -0,3 C -3,7 C 24,1 km/h (4 Bft) 97,87 %
25.12.2018 10:08 2,1 C 4,4 C 3,3 C 84 % 1032,6 hPa 0,0 l/m 16,3 km/h (3 Bft) W-SW 244 2 min 0,000 mm 0,0 UV-I 139 W/m -0,3 C -5,1 C 24,1 km/h (4 Bft) 97,87 %
25.12.2018 10:10 2,1 C 4,4 C 3,3 C 84 % 1032,5 hPa 0,0 l/m 9,8 km/h (2 Bft) W-SW 248 0 min 0,000 mm 0,0 UV-I 135 W/m -0,3 C -1,0 C 16,1 km/h (3 Bft) 97,87 %
25.12.2018 10:12 2,2 C 4,4 C 3,3 C 84 % 1032,5 hPa 0,0 l/m 13,8 km/h (3 Bft) SW 234 0 min 0,000 mm 0,0 UV-I 127 W/m -0,2 C -3,6 C 19,3 km/h (3 Bft) 100,00 %
25.12.2018 10:14 2,2 C 4,4 C 3,3 C 84 % 1032,5 hPa 0,0 l/m 12,8 km/h (3 Bft) W 259 0 min 0,000 mm 0,0 UV-I 122 W/m -0,2 C -3,0 C 25,7 km/h (4 Bft) 100,00 %
25.12.2018 10:16 2,2 C 4,4 C 3,3 C 84 % 1032,6 hPa 0,0 l/m 14,0 km/h (3 Bft) W 270 0 min 0,000 mm 0,0 UV-I 117 W/m -0,2 C -3,7 C 24,1 km/h (4 Bft) 98,00 %
25.12.2018 10:18 2,2 C 4,4 C 3,3 C 84 % 1032,7 hPa 0,0 l/m 12,6 km/h (3 Bft) W-SW 257 0 min 0,000 mm 0,0 UV-I 118 W/m -0,2 C -2,9 C 20,9 km/h (4 Bft) 100,00 %
25.12.2018 10:20 2,2 C 4,4 C 3,3 C 84 % 1032,7 hPa 0,0 l/m 14,5 km/h (3 Bft) W-SW 247 0 min 0,000 mm 0,0 UV-I 121 W/m -0,2 C -4,0 C 19,3 km/h (3 Bft) 95,74 %
25.12.2018 10:22 2,2 C 4,4 C 3,3 C 84 % 1032,6 hPa 0,0 l/m 15,4 km/h (3 Bft) W-SW 246 0 min 0,000 mm 0,0 UV-I 120 W/m -0,2 C -4,5 C 22,5 km/h (4 Bft) 97,87 %
25.12.2018 10:24 2,2 C 4,4 C 3,3 C 84 % 1032,7 hPa 0,0 l/m 14,7 km/h (3 Bft) W-SW 244 0 min 0,000 mm 0,0 UV-I 120 W/m -0,2 C -4,1 C 22,5 km/h (4 Bft) 95,74 %
25.12.2018 10:26 2,3 C 4,4 C 3,3 C 85 % 1032,7 hPa 0,0 l/m 13,6 km/h (3 Bft) W 262 0 min 0,000 mm 0,0 UV-I 119 W/m 0,0 C -3,4 C 20,9 km/h (4 Bft) 97,14 %
25.12.2018 10:28 2,3 C 4,4 C 3,3 C 85 % 1032,7 hPa 0,0 l/m 15,6 km/h (3 Bft) W-SW 247 0 min 0,000 mm 0,0 UV-I 113 W/m 0,0 C -4,5 C 27,4 km/h (4 Bft) 96,00 %
25.12.2018 10:30 2,2 C 4,4 C 3,3 C 84 % 1032,8 hPa 0,0 l/m 16,5 km/h (3 Bft) W 266 0 min 0,000 mm 0,0 UV-I 106 W/m -0,2 C -5,1 C 25,7 km/h (4 Bft) 95,74 %
25.12.2018 10:32 2,2 C 4,4 C 3,3 C 84 % 1032,8 hPa 0,0 l/m 15,4 km/h (3 Bft) W 275 0 min 0,000 mm 0,0 UV-I 104 W/m -0,2 C -4,5 C 22,5 km/h (4 Bft) 95,83 %
25.12.2018 10:34 2,2 C 4,4 C 3,3 C 84 % 1032,8 hPa 0,0 l/m 13,1 km/h (3 Bft) W 265 0 min 0,000 mm 0,0 UV-I 104 W/m -0,2 C -3,2 C 19,3 km/h (3 Bft) 97,87 %
25.12.2018 10:36 2,2 C 4,4 C 3,3 C 84 % 1032,8 hPa 0,0 l/m 13,1 km/h (3 Bft) W-SW 243 0 min 0,000 mm 0,0 UV-I 105 W/m -0,2 C -3,2 C 20,9 km/h (4 Bft) 96,23 %
25.12.2018 10:38 2,3 C 4,4 C 3,3 C 84 % 1032,8 hPa 0,0 l/m 12,2 km/h (2 Bft) W-SW 250 0 min 0,000 mm 0,0 UV-I 105 W/m -0,1 C -2,5 C 17,7 km/h (3 Bft) 97,14 %
25.12.2018 10:40 2,3 C 4,4 C 3,3 C 84 % 1032,8 hPa 0,0 l/m 13,5 km/h (3 Bft) W-SW 253 0 min 0,000 mm 0,0 UV-I 104 W/m -0,1 C -3,3 C 19,3 km/h (3 Bft) 97,44 %
25.12.2018 10:42 2,3 C 4,4 C 3,3 C 84 % 1032,9 hPa 0,0 l/m 9,4 km/h (2 Bft) W 265 0 min 0,000 mm 0,0 UV-I 98 W/m -0,1 C -0,4 C 14,5 km/h (3 Bft) 95,16 %
25.12.2018 10:44 2,3 C 4,4 C 3,3 C 85 % 1032,9 hPa 0,0 l/m 9,5 km/h (2 Bft) W-SW 258 0 min 0,000 mm 0,0 UV-I 89 W/m 0,0 C -0,5 C 14,5 km/h (3 Bft) 96,00 %
25.12.2018 10:46 2,3 C 4,4 C 3,3 C 85 % 1032,9 hPa 0,0 l/m 9,7 km/h (2 Bft) SW 232 0 min 0,000 mm 0,0 UV-I 82 W/m 0,0 C -0,7 C 16,1 km/h (3 Bft) 93,62 %
25.12.2018 10:48 2,3 C 4,4 C 3,3 C 84 % 1032,9 hPa 0,0 l/m 13,4 km/h (3 Bft) W-SW 257 0 min 0,000 mm 0,0 UV-I 81 W/m -0,1 C -3,3 C 20,9 km/h (4 Bft) 95,74 %
25.12.2018 10:50 2,2 C 4,4 C 3,3 C 84 % 1032,9 hPa 0,0 l/m 14,1 km/h (3 Bft) W 267 0 min 0,000 mm 0,0 UV-I 81 W/m -0,2 C -3,8 C 22,5 km/h (4 Bft) 97,87 %
25.12.2018 10:52 2,3 C 4,4 C 3,3 C 84 % 1032,9 hPa 0,0 l/m 9,9 km/h (2 Bft) W-SW 251 0 min 0,000 mm 0,0 UV-I 84 W/m -0,1 C -0,8 C 16,1 km/h (3 Bft) 97,14 %
25.12.2018 10:54 2,3 C 4,4 C 3,3 C 84 % 1032,9 hPa 0,0 l/m 11,6 km/h (2 Bft) W-SW 250 0 min 0,000 mm 0,0 UV-I 84 W/m -0,1 C -2,1 C 16,1 km/h (3 Bft) 96,00 %
25.12.2018 10:56 2,3 C 4,4 C 3,3 C 83 % 1032,9 hPa 0,0 l/m 11,4 km/h (2 Bft) W-SW 249 0 min 0,000 mm 0,0 UV-I 80 W/m -0,3 C -1,9 C 17,7 km/h (3 Bft) 100,00 %
25.12.2018 10:58 2,3 C 4,4 C 3,3 C 83 % 1032,8 hPa 0,0 l/m 12,4 km/h (3 Bft) W 261 0 min 0,000 mm 0,0 UV-I 73 W/m -0,3 C -2,6 C 20,9 km/h (4 Bft) 100,00 %
25.12.2018 11:00 2,3 C 4,4 C 2,8 C 83 % 1032,8 hPa 0,0 l/m 14,6 km/h (3 Bft) W 272 0 min 0,051 mm 0,0 UV-I 70 W/m -0,3 C -4,0 C 25,7 km/h (4 Bft) 97,87 %
25.12.2018 11:02 2,3 C 4,4 C 2,8 C 83 % 1032,9 hPa 0,0 l/m 10,7 km/h (2 Bft) W 262 0 min 0,000 mm 0,0 UV-I 70 W/m -0,3 C -1,4 C 17,7 km/h (3 Bft) 97,87 %
25.12.2018 11:04 2,3 C 4,4 C 2,8 C 83 % 1033,0 hPa 0,0 l/m 6,6 km/h (2 Bft) W 269 0 min 0,000 mm 0,0 UV-I 70 W/m -0,3 C 2,1 C 11,3 km/h (2 Bft) 98,00 %
25.12.2018 11:06 2,3 C 4,4 C 2,8 C 83 % 1032,9 hPa 0,0 l/m 12,9 km/h (3 Bft) W 275 0 min 0,000 mm 0,0 UV-I 67 W/m -0,3 C -2,9 C 20,9 km/h (4 Bft) 96,00 %
25.12.2018 11:08 2,3 C 4,4 C 2,8 C 83 % 1032,8 hPa 0,0 l/m 16,7 km/h (3 Bft) W 273 0 min 0,000 mm 0,0 UV-I 67 W/m -0,3 C -5,1 C 20,9 km/h (4 Bft) 95,74 %
25.12.2018 11:10 2,3 C 4,4 C 2,8 C 83 % 1032,8 hPa 0,0 l/m 13,7 km/h (3 Bft) W-SW 254 0 min 0,000 mm 0,0 UV-I 72 W/m -0,3 C -3,4 C 19,3 km/h (3 Bft) 97,87 %
25.12.2018 11:12 2,3 C 4,4 C 2,8 C 83 % 1032,8 hPa 0,0 l/m 9,0 km/h (2 Bft) W 272 0 min 0,000 mm 0,0 UV-I 72 W/m -0,3 C -0,1 C 12,9 km/h (3 Bft) 97,22 %
25.12.2018 11:14 2,3 C 4,4 C 2,8 C 83 % 1032,7 hPa 0,0 l/m 9,5 km/h (2 Bft) W-SW 249 0 min 0,000 mm 0,0 UV-I 72 W/m -0,3 C -0,5 C 14,5 km/h (3 Bft) 96,00 %
25.12.2018 11:16 2,3 C 4,4 C 2,8 C 84 % 1032,6 hPa 0,0 l/m 12,0 km/h (2 Bft) W-SW 250 0 min 0,000 mm 0,0 UV-I 77 W/m -0,1 C -2,4 C 17,7 km/h (3 Bft) 98,00 %
25.12.2018 11:18 2,3 C 4,4 C 3,3 C 83 % 1032,5 hPa 0,0 l/m 9,8 km/h (2 Bft) W 267 0 min 0,000 mm 0,0 UV-I 85 W/m -0,3 C -0,8 C 19,3 km/h (3 Bft) 93,62 %
25.12.2018 11:20 2,3 C 4,4 C 3,3 C 83 % 1032,5 hPa 0,0 l/m 14,3 km/h (3 Bft) W 266 0 min 0,000 mm 0,0 UV-I 89 W/m -0,3 C -3,8 C 20,9 km/h (4 Bft) 96,00 %
25.12.2018 11:22 2,3 C 4,4 C 3,3 C 83 % 1032,5 hPa 0,0 l/m 14,2 km/h (3 Bft) W-NW 292 0 min 0,000 mm 0,0 UV-I 88 W/m -0,3 C -3,7 C 19,3 km/h (3 Bft) 97,87 %
25.12.2018 11:24 2,3 C 4,4 C 3,3 C 84 % 1032,5 hPa 0,0 l/m 8,4 km/h (2 Bft) W-NW 282 0 min 0,000 mm 0,0 UV-I 84 W/m -0,1 C 0,4 C 16,1 km/h (3 Bft) 100,00 %
25.12.2018 11:26 2,3 C 4,4 C 3,3 C 83 % 1032,5 hPa 0,0 l/m 13,4 km/h (3 Bft) W-NW 283 0 min 0,000 mm 0,0 UV-I 78 W/m -0,3 C -3,3 C 19,3 km/h (3 Bft) 100,00 %
25.12.2018 11:28 2,3 C 4,4 C 3,3 C 84 % 1032,5 hPa 0,0 l/m 11,6 km/h (2 Bft) W 262 0 min 0,000 mm 0,0 UV-I 76 W/m -0,1 C -2,1 C 17,7 km/h (3 Bft) 97,87 %
25.12.2018 11:30 2,4 C 4,4 C 3,3 C 84 % 1032,5 hPa 0,0 l/m 9,7 km/h (2 Bft) W-SW 243 0 min 0,000 mm 0,0 UV-I 76 W/m -0,0 C -0,6 C 16,1 km/h (3 Bft) 100,00 %
25.12.2018 11:32 2,4 C 4,4 C 3,3 C 84 % 1032,6 hPa 0,0 l/m 5,3 km/h (1 Bft) W 261 0 min 0,000 mm 0,0 UV-I 77 W/m -0,0 C 2,4 C 9,7 km/h (2 Bft) 97,87 %
25.12.2018 11:34 2,4 C 4,4 C 3,3 C 84 % 1032,4 hPa 0,0 l/m 8,3 km/h (2 Bft) W 275 0 min 0,000 mm 0,0 UV-I 91 W/m -0,0 C 0,6 C 12,9 km/h (3 Bft) 97,37 %
25.12.2018 11:36 2,4 C 4,4 C 3,3 C 84 % 1032,5 hPa 0,0 l/m 11,6 km/h (2 Bft) W-NW 286 0 min 0,000 mm 0,0 UV-I 104 W/m -0,0 C -2,0 C 17,7 km/h (3 Bft) 100,00 %
25.12.2018 11:38 2,4 C 4,4 C 3,3 C 84 % 1032,4 hPa 0,0 l/m 14,5 km/h (3 Bft) W 263 0 min 0,000 mm 0,0 UV-I 108 W/m -0,0 C -3,8 C 24,1 km/h (4 Bft) 100,00 %
25.12.2018 11:40 2,4 C 4,4 C 3,3 C 83 % 1032,5 hPa 0,0 l/m 14,9 km/h (3 Bft) W-NW 293 0 min 0,000 mm 0,0 UV-I 104 W/m -0,2 C -4,0 C 20,9 km/h (4 Bft) 95,74 %
25.12.2018 11:42 2,4 C 4,4 C 3,9 C 83 % 1032,5 hPa 0,0 l/m 9,7 km/h (2 Bft) W 271 0 min 0,000 mm 0,0 UV-I 100 W/m -0,2 C -0,6 C 12,9 km/h (3 Bft) 97,87 %
25.12.2018 11:44 2,4 C 4,4 C 3,3 C 83 % 1032,6 hPa 0,0 l/m 12,9 km/h (3 Bft) W 279 0 min 0,000 mm 0,0 UV-I 92 W/m -0,2 C -2,8 C 17,7 km/h (3 Bft) 100,00 %
25.12.2018 11:46 2,4 C 4,4 C 3,3 C 83 % 1032,6 hPa 0,0 l/m 15,9 km/h (3 Bft) W-SW 254 0 min 0,000 mm 0,0 UV-I 86 W/m -0,2 C -4,6 C 24,1 km/h (4 Bft) 100,00 %
25.12.2018 11:48 2,4 C 4,4 C 3,3 C 82 % 1032,6 hPa 0,0 l/m 12,3 km/h (3 Bft) W-NW 284 0 min 0,000 mm 0,0 UV-I 78 W/m -0,4 C -2,4 C 17,7 km/h (3 Bft) 100,00 %
25.12.2018 11:50 2,4 C 4,4 C 3,3 C 82 % 1032,6 hPa 0,0 l/m 11,1 km/h (2 Bft) W 266 0 min 0,000 mm 0,0 UV-I 75 W/m -0,4 C -1,6 C 16,1 km/h (3 Bft) 100,00 %
25.12.2018 11:52 2,4 C 4,4 C 3,3 C 82 % 1032,7 hPa 0,0 l/m 15,7 km/h (3 Bft) W-NW 284 0 min 0,000 mm 0,0 UV-I 72 W/m -0,4 C -4,5 C 24,1 km/h (4 Bft) 100,00 %
25.12.2018 11:54 2,4 C 4,4 C 3,3 C 81 % 1032,7 hPa 0,0 l/m 14,5 km/h (3 Bft) W 265 0 min 0,000 mm 0,0 UV-I 67 W/m -0,5 C -3,8 C 25,7 km/h (4 Bft) 94,00 %
25.12.2018 11:56 2,4 C 4,4 C 2,8 C 82 % 1032,7 hPa 0,0 l/m 14,1 km/h (3 Bft) W 260 0 min 0,000 mm 0,0 UV-I 68 W/m -0,4 C -3,6 C 19,3 km/h (3 Bft) 100,00 %
25.12.2018 11:58 2,4 C 4,4 C 3,3 C 81 % 1032,7 hPa 0,0 l/m 12,8 km/h (3 Bft) W 272 0 min 0,000 mm 0,0 UV-I 75 W/m -0,5 C -2,8 C 17,7 km/h (3 Bft) 100,00 %
25.12.2018 12:00 2,3 C 4,4 C 3,3 C 82 % 1032,6 hPa 0,0 l/m 13,7 km/h (3 Bft) W-NW 286 0 min 0,051 mm 0,0 UV-I 72 W/m -0,4 C -3,4 C 20,9 km/h (4 Bft) 100,00 %
25.12.2018 12:02 2,3 C 4,4 C 2,8 C 81 % 1032,6 hPa 0,0 l/m 12,9 km/h (3 Bft) W 261 0 min 0,000 mm 0,0 UV-I 70 W/m -0,6 C -2,9 C 19,3 km/h (3 Bft) 97,37 %
25.12.2018 12:04 2,3 C 4,4 C 3,3 C 81 % 1032,5 hPa 0,0 l/m 11,9 km/h (2 Bft) W-SW 251 0 min 0,000 mm 0,0 UV-I 76 W/m -0,6 C -2,3 C 20,9 km/h (4 Bft) 100,00 %
25.12.2018 12:06 2,3 C 4,4 C 3,3 C 81 % 1032,5 hPa 0,0 l/m 15,1 km/h (3 Bft) W-NW 293 0 min 0,000 mm 0,0 UV-I 91 W/m -0,6 C -4,3 C 19,3 km/h (3 Bft) 98,00 %
25.12.2018 12:08 2,3 C 4,4 C 3,3 C 81 % 1032,5 hPa 0,0 l/m 15,6 km/h (3 Bft) W-NW 282 0 min 0,000 mm 0,0 UV-I 99 W/m -0,6 C -4,5 C 22,5 km/h (4 Bft) 95,74 %
25.12.2018 12:10 2,3 C 4,4 C 3,3 C 81 % 1032,4 hPa 0,0 l/m 11,0 km/h (2 Bft) W 273 0 min 0,000 mm 0,0 UV-I 108 W/m -0,6 C -1,7 C 17,7 km/h (3 Bft) 97,87 %
25.12.2018 12:12 2,4 C 4,4 C 3,3 C 82 % 1032,4 hPa 0,0 l/m 10,6 km/h (2 Bft) W 274 0 min 0,000 mm 0,0 UV-I 111 W/m -0,4 C -1,3 C 19,3 km/h (3 Bft) 98,00 %
25.12.2018 12:14 2,4 C 4,4 C 3,3 C 82 % 1032,4 hPa 0,0 l/m 15,0 km/h (3 Bft) W 261 0 min 0,000 mm 0,0 UV-I 103 W/m -0,4 C -4,1 C 25,7 km/h (4 Bft) 95,74 %
25.12.2018 12:16 2,4 C 4,4 C 3,3 C 81 % 1032,3 hPa 0,0 l/m 16,0 km/h (3 Bft) W 271 0 min 0,000 mm 0,0 UV-I 101 W/m -0,5 C -4,6 C 25,7 km/h (4 Bft) 97,87 %
25.12.2018 12:18 2,4 C 4,4 C 3,3 C 81 % 1032,2 hPa 0,0 l/m 18,2 km/h (3 Bft) W 268 0 min 0,000 mm 0,0 UV-I 98 W/m -0,5 C -5,7 C 27,4 km/h (4 Bft) 97,87 %
25.12.2018 12:20 2,4 C 4,4 C 3,3 C 81 % 1032,2 hPa 0,0 l/m 16,7 km/h (3 Bft) W-NW 284 0 min 0,000 mm 0,0 UV-I 93 W/m -0,5 C -5,0 C 25,7 km/h (4 Bft) 91,49 %
25.12.2018 12:22 2,4 C 4,4 C 3,3 C 81 % 1032,2 hPa 0,0 l/m 16,8 km/h (3 Bft) W-SW 244 0 min 0,000 mm 0,0 UV-I 95 W/m -0,5 C -5,0 C 27,4 km/h (4 Bft) 86,84 %
25.12.2018 12:24 2,4 C 4,4 C 3,3 C 81 % 1032,3 hPa 0,0 l/m 15,3 km/h (3 Bft) W 259 0 min 0,000 mm 0,0 UV-I 91 W/m -0,5 C -4,2 C 24,1 km/h (4 Bft) 93,75 %
25.12.2018 12:26 2,4 C 4,4 C 3,3 C 81 % 1032,3 hPa 0,0 l/m 15,1 km/h (3 Bft) W-NW 282 0 min 0,000 mm 0,0 UV-I 87 W/m -0,5 C -4,1 C 22,5 km/h (4 Bft) 89,80 %
25.12.2018 12:28 2,4 C 4,4 C 3,3 C 81 % 1032,2 hPa 0,0 l/m 16,2 km/h (3 Bft) W 268 0 min 0,000 mm 0,0 UV-I 85 W/m -0,5 C -4,7 C 24,1 km/h (4 Bft) 93,62 %
25.12.2018 12:30 2,4 C 4,4 C 3,3 C 81 % 1032,3 hPa 0,0 l/m 12,6 km/h (3 Bft) W 267 0 min 0,000 mm 0,0 UV-I 83 W/m -0,5 C -2,6 C 19,3 km/h (3 Bft) 91,67 %
25.12.2018 12:32 2,4 C 4,4 C 3,3 C 81 % 1032,2 hPa 0,0 l/m 18,7 km/h (3 Bft) W 271 0 min 0,000 mm 0,0 UV-I 84 W/m -0,5 C -6,0 C 30,6 km/h (5 Bft) 91,49 %
25.12.2018 12:34 2,4 C 4,4 C 3,3 C 81 % 1032,3 hPa 0,0 l/m 16,6 km/h (3 Bft) W 259 0 min 0,000 mm 0,0 UV-I 83 W/m -0,5 C -4,9 C 29,0 km/h (5 Bft) 93,62 %
25.12.2018 12:36 2,4 C 4,4 C 2,8 C 81 % 1032,3 hPa 0,0 l/m 20,2 km/h (4 Bft) W-SW 248 0 min 0,000 mm 0,0 UV-I 82 W/m -0,5 C -6,6 C 29,0 km/h (5 Bft) 91,49 %
25.12.2018 12:38 2,4 C 4,4 C 3,3 C 81 % 1032,3 hPa 0,0 l/m 16,1 km/h (3 Bft) W 262 0 min 0,000 mm 0,0 UV-I 86 W/m -0,5 C -4,7 C 20,9 km/h (4 Bft) 90,00 %
25.12.2018 12:40 2,4 C 4,4 C 3,3 C 81 % 1032,4 hPa 0,0 l/m 18,5 km/h (3 Bft) W-NW 298 0 min 0,000 mm 0,0 UV-I 87 W/m -0,5 C -5,9 C 29,0 km/h (5 Bft) 91,49 %
25.12.2018 12:42 2,4 C 4,4 C 3,3 C 81 % 1032,4 hPa 0,0 l/m 15,3 km/h (3 Bft) W-NW 291 0 min 0,000 mm 0,0 UV-I 84 W/m -0,5 C -4,2 C 20,9 km/h (4 Bft) 97,37 %
25.12.2018 12:44 2,4 C 4,4 C 3,3 C 81 % 1032,4 hPa 0,0 l/m 10,4 km/h (2 Bft) W 268 0 min 0,000 mm 0,0 UV-I 79 W/m -0,5 C -1,1 C 14,5 km/h (3 Bft) 93,62 %
25.12.2018 12:46 2,4 C 4,4 C 3,3 C 81 % 1032,5 hPa 0,0 l/m 15,9 km/h (3 Bft) W-NW 291 0 min 0,000 mm 0,0 UV-I 77 W/m -0,5 C -4,6 C 30,6 km/h (5 Bft) 90,57 %
25.12.2018 12:48 2,4 C 4,4 C 3,3 C 81 % 1032,4 hPa 0,0 l/m 14,5 km/h (3 Bft) W-NW 283 0 min 0,000 mm 0,0 UV-I 76 W/m -0,5 C -3,8 C 24,1 km/h (4 Bft) 96,00 %
25.12.2018 12:50 2,4 C 4,4 C 3,3 C 81 % 1032,4 hPa 0,0 l/m 13,9 km/h (3 Bft) W-NW 285 0 min 0,000 mm 0,0 UV-I 76 W/m -0,5 C -3,4 C 24,1 km/h (4 Bft) 97,87 %
25.12.2018 12:52 2,4 C 4,4 C 3,3 C 81 % 1032,5 hPa 0,0 l/m 11,9 km/h (2 Bft) W-NW 297 0 min 0,000 mm 0,0 UV-I 76 W/m -0,5 C -2,2 C 20,9 km/h (4 Bft) 93,62 %
25.12.2018 12:54 2,4 C 4,4 C 3,3 C 81 % 1032,5 hPa 0,0 l/m 13,4 km/h (3 Bft) W 259 0 min 0,000 mm 0,0 UV-I 80 W/m -0,5 C -3,1 C 22,5 km/h (4 Bft) 94,29 %
25.12.2018 12:56 2,4 C 4,4 C 3,3 C 81 % 1032,5 hPa 0,0 l/m 11,8 km/h (2 Bft) W-NW 293 0 min 0,000 mm 0,0 UV-I 83 W/m -0,5 C -2,1 C 16,1 km/h (3 Bft) 95,74 %
25.12.2018 12:58 2,4 C 4,4 C 3,3 C 81 % 1032,5 hPa 0,0 l/m 18,7 km/h (3 Bft) W 268 0 min 0,000 mm 0,0 UV-I 81 W/m -0,5 C -6,0 C 30,6 km/h (5 Bft) 97,87 %
25.12.2018 13:00 2,4 C 4,4 C 3,3 C 81 % 1032,6 hPa 0,0 l/m 14,1 km/h (3 Bft) W 273 0 min 0,051 mm 0,0 UV-I 82 W/m -0,5 C -3,6 C 24,1 km/h (4 Bft) 95,74 %
25.12.2018 13:02 2,4 C 4,4 C 3,3 C 81 % 1032,7 hPa 0,0 l/m 13,6 km/h (3 Bft) W 267 0 min 0,000 mm 0,0 UV-I 79 W/m -0,5 C -3,3 C 20,9 km/h (4 Bft) 97,87 %
25.12.2018 13:04 2,4 C 4,4 C 3,3 C 81 % 1032,8 hPa 0,0 l/m 11,0 km/h (2 Bft) W 262 0 min 0,000 mm 0,0 UV-I 69 W/m -0,5 C -1,5 C 20,9 km/h (4 Bft) 93,75 %
25.12.2018 13:06 2,4 C 4,4 C 3,3 C 81 % 1032,8 hPa 0,0 l/m 11,2 km/h (2 Bft) W-NW 292 0 min 0,000 mm 0,0 UV-I 66 W/m -0,5 C -1,7 C 20,9 km/h (4 Bft) 97,87 %
25.12.2018 13:08 2,4 C 4,4 C 3,3 C 81 % 1032,8 hPa 0,0 l/m 11,8 km/h (2 Bft) W 280 0 min 0,000 mm 0,0 UV-I 68 W/m -0,5 C -2,1 C 19,3 km/h (3 Bft) 95,74 %
25.12.2018 13:10 2,4 C 4,4 C 3,3 C 81 % 1032,8 hPa 0,0 l/m 13,7 km/h (3 Bft) W 279 0 min 0,000 mm 0,0 UV-I 69 W/m -0,5 C -3,3 C 20,9 km/h (4 Bft) 97,87 %
25.12.2018 13:12 2,5 C 4,4 C 3,3 C 81 % 1032,7 hPa 0,0 l/m 14,0 km/h (3 Bft) W 269 0 min 0,000 mm 0,0 UV-I 67 W/m -0,4 C -3,4 C 22,5 km/h (4 Bft) 98,00 %
25.12.2018 13:14 2,5 C 4,4 C 3,3 C 82 % 1032,8 hPa 0,0 l/m 12,9 km/h (3 Bft) W 267 0 min 0,000 mm 0,0 UV-I 61 W/m -0,3 C -2,7 C 20,9 km/h (4 Bft) 96,00 %
25.12.2018 13:16 2,5 C 4,4 C 2,8 C 81 % 1032,7 hPa 0,0 l/m 16,3 km/h (3 Bft) W-NW 283 0 min 0,000 mm 0,0 UV-I 56 W/m -0,4 C -4,7 C 24,1 km/h (4 Bft) 97,87 %
25.12.2018 13:18 2,4 C 4,4 C 2,8 C 81 % 1032,7 hPa 0,0 l/m 20,0 km/h (4 Bft) W 262 0 min 0,000 mm 0,0 UV-I 51 W/m -0,5 C -6,5 C 30,6 km/h (5 Bft) 100,00 %
25.12.2018 13:20 2,4 C 4,4 C 2,8 C 81 % 1032,7 hPa 0,0 l/m 18,6 km/h (3 Bft) W-NW 292 0 min 0,000 mm 0,0 UV-I 46 W/m -0,5 C -5,9 C 38,6 km/h (5 Bft) 100,00 %
25.12.2018 13:22 2,4 C 4,4 C 2,8 C 81 % 1032,7 hPa 0,0 l/m 16,4 km/h (3 Bft) W 269 0 min 0,000 mm 0,0 UV-I 50 W/m -0,5 C -4,8 C 24,1 km/h (4 Bft) 95,74 %
25.12.2018 13:24 2,4 C 4,4 C 2,8 C 81 % 1032,7 hPa 0,0 l/m 17,5 km/h (3 Bft) W 275 0 min 0,000 mm 0,0 UV-I 53 W/m -0,5 C -5,4 C 27,4 km/h (4 Bft) 100,00 %
25.12.2018 13:26 2,4 C 4,4 C 2,8 C 81 % 1032,6 hPa 0,0 l/m 11,3 km/h (2 Bft) W 261 0 min 0,000 mm 0,0 UV-I 55 W/m -0,5 C -1,8 C 17,7 km/h (3 Bft) 97,87 %
25.12.2018 13:28 2,4 C 4,4 C 2,8 C 81 % 1032,5 hPa 0,0 l/m 16,8 km/h (3 Bft) W 273 0 min 0,000 mm 0,0 UV-I 63 W/m -0,5 C -5,0 C 24,1 km/h (4 Bft) 97,87 %
25.12.2018 13:30 2,4 C 4,4 C 2,8 C 81 % 1032,5 hPa 0,0 l/m 12,8 km/h (3 Bft) W 259 0 min 0,000 mm 0,0 UV-I 65 W/m -0,5 C -2,8 C 19,3 km/h (3 Bft) 93,62 %
25.12.2018 13:32 2,5 C 4,4 C 2,8 C 81 % 1032,5 hPa 0,0 l/m 18,8 km/h (3 Bft) W-NW 284 0 min 0,000 mm 0,0 UV-I 70 W/m -0,4 C -5,9 C 30,6 km/h (5 Bft) 97,87 %
25.12.2018 13:34 2,4 C 4,4 C 2,8 C 81 % 1032,6 hPa 0,0 l/m 13,5 km/h (3 Bft) W-NW 294 0 min 0,000 mm 0,0 UV-I 70 W/m -0,5 C -3,2 C 20,9 km/h (4 Bft) 100,00 %
25.12.2018 13:36 2,5 C 4,4 C 3,3 C 81 % 1032,6 hPa 0,0 l/m 11,1 km/h (2 Bft) W 274 0 min 0,000 mm 0,0 UV-I 65 W/m -0,4 C -1,5 C 17,7 km/h (3 Bft) 97,87 %
25.12.2018 13:38 2,5 C 4,4 C 2,8 C 81 % 1032,5 hPa 0,0 l/m 17,6 km/h (3 Bft) W 259 0 min 0,000 mm 0,0 UV-I 58 W/m -0,4 C -5,3 C 25,7 km/h (4 Bft) 98,00 %
25.12.2018 13:40 2,5 C 4,4 C 2,8 C 81 % 1032,6 hPa 0,0 l/m 17,9 km/h (3 Bft) W-SW 249 0 min 0,000 mm 0,0 UV-I 57 W/m -0,4 C -5,4 C 27,4 km/h (4 Bft) 97,87 %
25.12.2018 13:42 2,5 C 4,4 C 2,8 C 81 % 1032,5 hPa 0,0 l/m 16,6 km/h (3 Bft) W-SW 257 0 min 0,000 mm 0,0 UV-I 54 W/m -0,4 C -4,8 C 27,4 km/h (4 Bft) 92,00 %
25.12.2018 13:44 2,5 C 4,4 C 2,8 C 81 % 1032,5 hPa 0,0 l/m 18,4 km/h (3 Bft) W-NW 284 0 min 0,000 mm 0,0 UV-I 54 W/m -0,4 C -5,7 C 27,4 km/h (4 Bft) 96,00 %
25.12.2018 13:46 2,5 C 4,4 C 2,8 C 81 % 1032,4 hPa 0,0 l/m 14,3 km/h (3 Bft) W 273 0 min 0,000 mm 0,0 UV-I 55 W/m -0,4 C -3,6 C 20,9 km/h (4 Bft) 97,87 %
25.12.2018 13:48 2,5 C 4,4 C 2,8 C 81 % 1032,5 hPa 0,0 l/m 14,4 km/h (3 Bft) W 278 0 min 0,000 mm 0,0 UV-I 58 W/m -0,4 C -3,6 C 20,9 km/h (4 Bft) 97,22 %
25.12.2018 13:50 2,5 C 4,4 C 2,8 C 81 % 1032,4 hPa 0,0 l/m 16,5 km/h (3 Bft) W-NW 296 0 min 0,000 mm 0,0 UV-I 56 W/m -0,4 C -4,8 C 22,5 km/h (4 Bft) 97,87 %
25.12.2018 13:52 2,5 C 4,4 C 2,8 C 81 % 1032,5 hPa 0,0 l/m 13,0 km/h (3 Bft) W 261 0 min 0,000 mm 0,0 UV-I 58 W/m -0,4 C -2,8 C 24,1 km/h (4 Bft) 97,87 %
25.12.2018 13:54 2,5 C 4,4 C 2,8 C 81 % 1032,5 hPa 0,0 l/m 17,7 km/h (3 Bft) W-NW 282 0 min 0,000 mm 0,0 UV-I 58 W/m -0,4 C -5,4 C 30,6 km/h (5 Bft) 95,74 %
25.12.2018 13:56 2,5 C 4,4 C 2,8 C 80 % 1032,6 hPa 0,0 l/m 16,3 km/h (3 Bft) W 264 0 min 0,000 mm 0,0 UV-I 60 W/m -0,6 C -4,7 C 24,1 km/h (4 Bft) 97,87 %
25.12.2018 13:58 2,5 C 4,4 C 2,8 C 81 % 1032,6 hPa 0,0 l/m 18,8 km/h (3 Bft) W-SW 257 0 min 0,000 mm 0,0 UV-I 58 W/m -0,4 C -5,9 C 27,4 km/h (4 Bft) 93,62 %
25.12.2018 14:00 2,6 C 4,4 C 2,8 C 80 % 1032,5 hPa 0,0 l/m 15,8 km/h (3 Bft) W-SW 256 0 min 0,051 mm 0,0 UV-I 55 W/m -0,5 C -4,3 C 20,9 km/h (4 Bft) 91,43 %
25.12.2018 14:02 2,6 C 4,4 C 2,8 C 80 % 1032,5 hPa 0,0 l/m 15,6 km/h (3 Bft) W 261 0 min 0,000 mm 0,0 UV-I 52 W/m -0,5 C -4,2 C 22,5 km/h (4 Bft) 100,00 %
25.12.2018 14:04 2,6 C 4,4 C 2,8 C 80 % 1032,6 hPa 0,0 l/m 13,8 km/h (3 Bft) W 263 0 min 0,000 mm 0,0 UV-I 45 W/m -0,5 C -3,1 C 22,5 km/h (4 Bft) 97,87 %
25.12.2018 14:06 2,6 C 4,4 C 2,8 C 80 % 1032,7 hPa 0,0 l/m 11,9 km/h (2 Bft) SW 230 0 min 0,000 mm 0,0 UV-I 44 W/m -0,5 C -1,9 C 24,1 km/h (4 Bft) 100,00 %
25.12.2018 14:08 2,6 C 4,4 C 2,8 C 80 % 1032,7 hPa 0,0 l/m 15,5 km/h (3 Bft) W 273 0 min 0,000 mm 0,0 UV-I 43 W/m -0,5 C -4,1 C 24,1 km/h (4 Bft) 97,87 %
25.12.2018 14:10 2,6 C 4,4 C 2,8 C 80 % 1032,7 hPa 0,0 l/m 14,1 km/h (3 Bft) W-SW 258 0 min 0,000 mm 0,0 UV-I 42 W/m -0,5 C -3,3 C 25,7 km/h (4 Bft) 100,00 %
25.12.2018 14:12 2,6 C 4,4 C 2,8 C 79 % 1032,8 hPa 0,0 l/m 14,9 km/h (3 Bft) W 280 0 min 0,000 mm 0,0 UV-I 42 W/m -0,7 C -3,8 C 20,9 km/h (4 Bft) 100,00 %
25.12.2018 14:14 2,6 C 4,4 C 2,8 C 79 % 1032,8 hPa 0,0 l/m 16,6 km/h (3 Bft) W 277 0 min 0,000 mm 0,0 UV-I 39 W/m -0,7 C -4,7 C 22,5 km/h (4 Bft) 100,00 %
25.12.2018 14:16 2,6 C 4,4 C 2,8 C 79 % 1032,8 hPa 0,0 l/m 11,6 km/h (2 Bft) W 265 0 min 0,000 mm 0,0 UV-I 39 W/m -0,7 C -1,7 C 20,9 km/h (4 Bft) 100,00 %
25.12.2018 14:18 2,6 C 4,4 C 2,8 C 79 % 1032,8 hPa 0,0 l/m 16,6 km/h (3 Bft) W 278 0 min 0,000 mm 0,0 UV-I 39 W/m -0,7 C -4,7 C 22,5 km/h (4 Bft) 97,87 %
25.12.2018 14:20 2,6 C 4,4 C 2,8 C 79 % 1032,8 hPa 0,0 l/m 14,8 km/h (3 Bft) W 267 0 min 0,000 mm 0,0 UV-I 39 W/m -0,7 C -3,7 C 20,9 km/h (4 Bft) 100,00 %
25.12.2018 14:22 2,6 C 4,4 C 2,8 C 79 % 1032,9 hPa 0,0 l/m 18,0 km/h (3 Bft) W 267 0 min 0,000 mm 0,0 UV-I 39 W/m -0,7 C -5,4 C 29,0 km/h (5 Bft) 97,87 %
25.12.2018 14:24 2,6 C 4,4 C 2,8 C 78 % 1033,0 hPa 0,0 l/m 13,4 km/h (3 Bft) W 261 0 min 0,000 mm 0,0 UV-I 36 W/m -0,8 C -2,9 C 24,1 km/h (4 Bft) 95,74 %
25.12.2018 14:26 2,6 C 4,4 C 2,8 C 78 % 1033,0 hPa 0,0 l/m 11,9 km/h (2 Bft) W-SW 242 0 min 0,000 mm 0,0 UV-I 35 W/m -0,8 C -1,9 C 19,3 km/h (3 Bft) 95,74 %
25.12.2018 14:28 2,6 C 4,4 C 2,8 C 78 % 1033,0 hPa 0,0 l/m 14,5 km/h (3 Bft) W-NW 292 0 min 0,000 mm 0,0 UV-I 33 W/m -0,8 C -3,5 C 22,5 km/h (4 Bft) 97,92 %
25.12.2018 14:30 2,6 C 4,4 C 2,8 C 78 % 1033,1 hPa 0,0 l/m 15,9 km/h (3 Bft) W 265 0 min 0,000 mm 0,0 UV-I 33 W/m -0,8 C -4,3 C 25,7 km/h (4 Bft) 94,74 %
25.12.2018 14:32 2,6 C 4,4 C 2,8 C 78 % 1033,1 hPa 0,0 l/m 13,3 km/h (3 Bft) W-SW 251 0 min 0,000 mm 0,0 UV-I 34 W/m -0,8 C -2,8 C 19,3 km/h (3 Bft) 97,87 %
25.12.2018 14:34 2,6 C 4,4 C 2,8 C 78 % 1033,0 hPa 0,0 l/m 17,1 km/h (3 Bft) W 263 0 min 0,000 mm 0,0 UV-I 35 W/m -0,8 C -4,9 C 22,5 km/h (4 Bft) 95,74 %
25.12.2018 14:36 2,6 C 4,4 C 2,8 C 78 % 1033,1 hPa 0,0 l/m 14,0 km/h (3 Bft) W 280 0 min 0,000 mm 0,0 UV-I 35 W/m -0,8 C -3,3 C 25,7 km/h (4 Bft) 97,87 %
25.12.2018 14:38 2,6 C 4,4 C 2,8 C 77 % 1033,0 hPa 0,0 l/m 17,0 km/h (3 Bft) W 273 0 min 0,000 mm 0,0 UV-I 36 W/m -1,0 C -4,9 C 29,0 km/h (5 Bft) 97,87 %
25.12.2018 14:40 2,6 C 4,4 C 2,8 C 77 % 1033,0 hPa 0,0 l/m 15,8 km/h (3 Bft) W 274 0 min 0,000 mm 0,0 UV-I 37 W/m -1,0 C -4,3 C 20,9 km/h (4 Bft) 97,87 %
25.12.2018 14:42 2,6 C 4,4 C 2,8 C 77 % 1033,0 hPa 0,0 l/m 15,7 km/h (3 Bft) W 273 0 min 0,000 mm 0,0 UV-I 34 W/m -1,0 C -4,2 C 24,1 km/h (4 Bft) 98,00 %
25.12.2018 14:44 2,6 C 4,4 C 2,8 C 77 % 1033,0 hPa 0,0 l/m 18,8 km/h (3 Bft) W 263 0 min 0,000 mm 0,0 UV-I 33 W/m -1,0 C -5,7 C 27,4 km/h (4 Bft) 95,74 %
25.12.2018 14:46 2,6 C 4,4 C 2,8 C 77 % 1033,0 hPa 0,0 l/m 16,6 km/h (3 Bft) W 271 0 min 0,000 mm 0,0 UV-I 30 W/m -1,0 C -4,7 C 22,5 km/h (4 Bft) 95,74 %
25.12.2018 14:48 2,7 C 4,4 C 2,8 C 77 % 1032,9 hPa 0,0 l/m 18,0 km/h (3 Bft) W 263 0 min 0,000 mm 0,0 UV-I 30 W/m -0,9 C -5,2 C 25,7 km/h (4 Bft) 96,00 %
25.12.2018 14:50 2,6 C 4,4 C 2,8 C 77 % 1033,0 hPa 0,0 l/m 17,7 km/h (3 Bft) W 268 0 min 0,000 mm 0,0 UV-I 29 W/m -1,0 C -5,2 C 25,7 km/h (4 Bft) 97,87 %
25.12.2018 14:52 2,6 C 4,4 C 2,8 C 77 % 1033,0 hPa 0,0 l/m 16,5 km/h (3 Bft) W 268 0 min 0,000 mm 0,0 UV-I 27 W/m -1,0 C -4,6 C 22,5 km/h (4 Bft) 97,87 %
25.12.2018 14:54 2,6 C 4,4 C 2,8 C 77 % 1033,0 hPa 0,0 l/m 18,2 km/h (3 Bft) W 281 0 min 0,000 mm 0,0 UV-I 26 W/m -1,0 C -5,5 C 25,7 km/h (4 Bft) 97,37 %
25.12.2018 14:56 2,6 C 4,4 C 2,8 C 77 % 1033,0 hPa 0,0 l/m 14,7 km/h (3 Bft) W 273 0 min 0,000 mm 0,0 UV-I 25 W/m -1,0 C -3,7 C 24,1 km/h (4 Bft) 93,75 %
25.12.2018 14:58 2,6 C 4,4 C 2,8 C 77 % 1033,0 hPa 0,0 l/m 20,3 km/h (4 Bft) W 273 0 min 0,000 mm 0,0 UV-I 24 W/m -1,0 C -6,4 C 29,0 km/h (5 Bft) 93,88 %
25.12.2018 15:00 2,6 C 4,4 C 2,2 C 77 % 1033,0 hPa 0,0 l/m 17,5 km/h (3 Bft) W 260 0 min 0,050 mm 0,0 UV-I 23 W/m -1,0 C -5,1 C 27,4 km/h (4 Bft) 97,92 %
25.12.2018 15:02 2,6 C 4,4 C 2,2 C 77 % 1033,0 hPa 0,0 l/m 18,2 km/h (3 Bft) W 267 0 min 0,000 mm 0,0 UV-I 22 W/m -1,0 C -5,5 C 25,7 km/h (4 Bft) 95,74 %
25.12.2018 15:04 2,6 C 4,4 C 2,2 C 77 % 1033,1 hPa 0,0 l/m 11,6 km/h (2 Bft) W-NW 285 0 min 0,000 mm 0,0 UV-I 22 W/m -1,0 C -1,7 C 16,1 km/h (3 Bft) 93,62 %
25.12.2018 15:06 2,6 C 4,4 C 2,2 C 77 % 1033,1 hPa 0,0 l/m 13,2 km/h (3 Bft) W-SW 254 0 min 0,000 mm 0,0 UV-I 23 W/m -1,0 C -2,8 C 19,3 km/h (3 Bft) 93,62 %
25.12.2018 15:08 2,6 C 4,4 C 2,2 C 77 % 1033,1 hPa 0,0 l/m 14,6 km/h (3 Bft) W-NW 287 0 min 0,000 mm 0,0 UV-I 21 W/m -1,0 C -3,6 C 22,5 km/h (4 Bft) 97,87 %
25.12.2018 15:10 2,6 C 4,4 C 2,2 C 77 % 1033,1 hPa 0,0 l/m 15,1 km/h (3 Bft) NW 309 0 min 0,000 mm 0,0 UV-I 21 W/m -1,0 C -3,9 C 20,9 km/h (4 Bft) 98,00 %
25.12.2018 15:12 2,6 C 4,4 C 2,2 C 77 % 1033,2 hPa 0,0 l/m 16,5 km/h (3 Bft) W 275 0 min 0,000 mm 0,0 UV-I 19 W/m -1,0 C -4,6 C 25,7 km/h (4 Bft) 93,62 %
25.12.2018 15:14 2,6 C 4,4 C 2,2 C 77 % 1033,2 hPa 0,0 l/m 18,9 km/h (3 Bft) W-SW 245 0 min 0,000 mm 0,0 UV-I 19 W/m -1,0 C -5,8 C 30,6 km/h (5 Bft) 97,87 %
25.12.2018 15:16 2,6 C 4,4 C 2,2 C 77 % 1033,2 hPa 0,0 l/m 14,8 km/h (3 Bft) W-SW 258 0 min 0,000 mm 0,0 UV-I 18 W/m -1,0 C -3,7 C 20,9 km/h (4 Bft) 100,00 %
25.12.2018 15:18 2,6 C 4,4 C 2,2 C 77 % 1033,2 hPa 0,0 l/m 18,8 km/h (3 Bft) W-NW 288 0 min 0,000 mm 0,0 UV-I 18 W/m -1,0 C -5,7 C 27,4 km/h (4 Bft) 100,00 %
25.12.2018 15:20 2,6 C 4,4 C 2,2 C 77 % 1033,2 hPa 0,0 l/m 15,3 km/h (3 Bft) W-NW 283 0 min 0,000 mm 0,0 UV-I 17 W/m -1,0 C -4,0 C 22,5 km/h (4 Bft) 95,74 %
25.12.2018 15:22 2,6 C 4,4 C 2,2 C 76 % 1033,2 hPa 0,0 l/m 15,4 km/h (3 Bft) W 267 0 min 0,000 mm 0,0 UV-I 16 W/m -1,2 C -4,1 C 20,9 km/h (4 Bft) 97,87 %
25.12.2018 15:24 2,6 C 4,4 C 2,2 C 76 % 1033,3 hPa 0,0 l/m 17,7 km/h (3 Bft) W 265 0 min 0,000 mm 0,0 UV-I 18 W/m -1,2 C -5,2 C 29,0 km/h (5 Bft) 97,87 %
25.12.2018 15:26 2,6 C 4,4 C 2,2 C 76 % 1033,4 hPa 0,0 l/m 11,8 km/h (2 Bft) W-NW 287 0 min 0,000 mm 0,0 UV-I 18 W/m -1,2 C -1,9 C 16,1 km/h (3 Bft) 97,37 %
25.12.2018 15:28 2,6 C 4,4 C 2,2 C 76 % 1033,4 hPa 0,0 l/m 14,5 km/h (3 Bft) W-NW 284 0 min 0,000 mm 0,0 UV-I 18 W/m -1,2 C -3,5 C 24,1 km/h (4 Bft) 100,00 %
25.12.2018 15:30 2,6 C 4,4 C 2,2 C 76 % 1033,4 hPa 0,0 l/m 14,5 km/h (3 Bft) W-SW 246 0 min 0,000 mm 0,0 UV-I 16 W/m -1,2 C -3,5 C 22,5 km/h (4 Bft) 97,87 %
25.12.2018 15:32 2,6 C 4,4 C 2,2 C 76 % 1033,4 hPa 0,0 l/m 19,4 km/h (3 Bft) W-SW 258 0 min 0,000 mm 0,0 UV-I 16 W/m -1,2 C -6,0 C 25,7 km/h (4 Bft) 97,87 %
25.12.2018 15:34 2,6 C 4,4 C 2,2 C 76 % 1033,4 hPa 0,0 l/m 20,5 km/h (4 Bft) W 269 0 min 0,000 mm 0,0 UV-I 16 W/m -1,2 C -6,5 C 30,6 km/h (5 Bft) 100,00 %
25.12.2018 15:36 2,6 C 4,4 C 2,2 C 76 % 1033,3 hPa 0,0 l/m 15,4 km/h (3 Bft) W-SW 246 0 min 0,000 mm 0,0 UV-I 15 W/m -1,2 C -4,1 C 22,5 km/h (4 Bft) 100,00 %
25.12.2018 15:38 2,6 C 4,4 C 2,2 C 76 % 1033,4 hPa 0,0 l/m 13,3 km/h (3 Bft) W 281 0 min 0,000 mm 0,0 UV-I 14 W/m -1,2 C -2,8 C 22,5 km/h (4 Bft) 97,87 %
25.12.2018 15:40 2,6 C 4,4 C 2,2 C 76 % 1033,4 hPa 0,0 l/m 14,2 km/h (3 Bft) W-SW 238 0 min 0,000 mm 0,0 UV-I 12 W/m -1,2 C -3,4 C 24,1 km/h (4 Bft) 100,00 %
25.12.2018 15:42 2,6 C 4,4 C 2,2 C 76 % 1033,4 hPa 0,0 l/m 16,9 km/h (3 Bft) W 277 0 min 0,000 mm 0,0 UV-I 11 W/m -1,2 C -4,8 C 30,6 km/h (5 Bft) 100,00 %
25.12.2018 15:44 2,6 C 4,4 C 2,2 C 76 % 1033,4 hPa 0,0 l/m 18,9 km/h (3 Bft) W-NW 288 0 min 0,000 mm 0,0 UV-I 11 W/m -1,2 C -5,8 C 30,6 km/h (5 Bft) 97,87 %
25.12.2018 15:46 2,6 C 4,4 C 2,2 C 76 % 1033,4 hPa 0,0 l/m 16,6 km/h (3 Bft) W 277 0 min 0,000 mm 0,0 UV-I 11 W/m -1,2 C -4,7 C 29,0 km/h (5 Bft) 97,87 %
25.12.2018 15:48 2,6 C 4,4 C 2,2 C 76 % 1033,5 hPa 0,0 l/m 14,1 km/h (3 Bft) W 261 0 min 0,000 mm 0,0 UV-I 11 W/m -1,2 C -3,3 C 24,1 km/h (4 Bft) 97,87 %
25.12.2018 15:50 2,6 C 4,4 C 2,2 C 76 % 1033,5 hPa 0,0 l/m 13,4 km/h (3 Bft) W 264 0 min 0,000 mm 0,0 UV-I 11 W/m -1,2 C -2,9 C 17,7 km/h (3 Bft) 100,00 %
25.12.2018 15:52 2,6 C 4,4 C 2,2 C 76 % 1033,6 hPa 0,0 l/m 16,1 km/h (3 Bft) W 269 0 min 0,000 mm 0,0 UV-I 9 W/m -1,2 C -4,4 C 24,1 km/h (4 Bft) 98,00 %
25.12.2018 15:54 2,6 C 4,4 C 2,2 C 76 % 1033,6 hPa 0,0 l/m 17,2 km/h (3 Bft) W 279 0 min 0,000 mm 0,0 UV-I 9 W/m -1,2 C -5,0 C 25,7 km/h (4 Bft) 100,00 %
25.12.2018 15:56 2,6 C 4,4 C 2,2 C 76 % 1033,6 hPa 0,0 l/m 13,3 km/h (3 Bft) W 262 0 min 0,000 mm 0,0 UV-I 9 W/m -1,2 C -2,8 C 16,1 km/h (3 Bft) 100,00 %
25.12.2018 15:58 2,6 C 4,4 C 2,2 C 77 % 1033,6 hPa 0,0 l/m 14,7 km/h (3 Bft) W 263 0 min 0,000 mm 0,0 UV-I 9 W/m -1,0 C -3,7 C 20,9 km/h (4 Bft) 97,87 %
25.12.2018 16:00 2,6 C 4,4 C 2,2 C 77 % 1033,6 hPa 0,0 l/m 17,0 km/h (3 Bft) W 267 0 min 0,026 mm 0,0 UV-I 9 W/m -1,0 C -4,9 C 24,1 km/h (4 Bft) 100,00 %
25.12.2018 16:02 2,6 C 4,4 C 2,2 C 76 % 1033,7 hPa 0,0 l/m 13,0 km/h (3 Bft) W-SW 255 0 min 0,000 mm 0,0 UV-I 7 W/m -1,2 C -2,7 C 20,9 km/h (4 Bft) 100,00 %
25.12.2018 16:04 2,6 C 4,4 C 2,2 C 77 % 1033,7 hPa 0,0 l/m 15,4 km/h (3 Bft) W 267 0 min 0,000 mm 0,0 UV-I 7 W/m -1,0 C -4,1 C 20,9 km/h (4 Bft) 97,14 %
25.12.2018 16:06 2,6 C 4,4 C 2,2 C 77 % 1033,7 hPa 0,0 l/m 13,6 km/h (3 Bft) W-SW 238 0 min 0,000 mm 0,0 UV-I 5 W/m -1,0 C -3,0 C 20,9 km/h (4 Bft) 100,00 %
25.12.2018 16:08 2,6 C 4,4 C 2,2 C 77 % 1033,7 hPa 0,0 l/m 13,9 km/h (3 Bft) W-SW 245 0 min 0,000 mm 0,0 UV-I 5 W/m -1,0 C -3,2 C 20,9 km/h (4 Bft) 97,87 %
25.12.2018 16:10 2,6 C 4,4 C 2,2 C 77 % 1033,8 hPa 0,0 l/m 11,2 km/h (2 Bft) W 277 0 min 0,000 mm 0,0 UV-I 5 W/m -1,0 C -1,5 C 16,1 km/h (3 Bft) 98,00 %
25.12.2018 16:12 2,6 C 4,4 C 2,2 C 77 % 1033,8 hPa 0,0 l/m 14,7 km/h (3 Bft) W 276 0 min 0,000 mm 0,0 UV-I 5 W/m -1,0 C -3,7 C 17,7 km/h (3 Bft) 95,74 %
25.12.2018 16:14 2,5 C 4,4 C 2,2 C 77 % 1033,7 hPa 0,0 l/m 14,6 km/h (3 Bft) W-SW 243 0 min 0,000 mm 0,0 UV-I 5 W/m -1,1 C -3,7 C 20,9 km/h (4 Bft) 97,87 %
25.12.2018 16:16 2,5 C 4,4 C 2,2 C 77 % 1033,8 hPa 0,0 l/m 14,9 km/h (3 Bft) W-NW 284 0 min 0,000 mm 0,0 UV-I 4 W/m -1,1 C -3,9 C 20,9 km/h (4 Bft) 95,83 %
25.12.2018 16:18 2,5 C 4,4 C 2,2 C 77 % 1033,8 hPa 0,0 l/m 13,4 km/h (3 Bft) W-SW 257 0 min 0,000 mm 0,0 UV-I 0 W/m -1,1 C -3,0 C 17,7 km/h (3 Bft) 93,62 %
25.12.2018 16:20 2,5 C 4,4 C 2,2 C 78 % 1033,8 hPa 0,0 l/m 12,9 km/h (3 Bft) SW 227 0 min 0,000 mm 0,0 UV-I 0 W/m -0,9 C -2,7 C 19,3 km/h (3 Bft) 91,49 %
25.12.2018 16:22 2,5 C 4,4 C 2,2 C 77 % 1033,8 hPa 0,0 l/m 17,2 km/h (3 Bft) SW 233 0 min 0,000 mm 0,0 UV-I 0 W/m -1,1 C -5,1 C 22,5 km/h (4 Bft) 95,74 %
25.12.2018 16:24 2,5 C 4,4 C 2,2 C 78 % 1033,8 hPa 0,0 l/m 14,6 km/h (3 Bft) W-NW 284 0 min 0,000 mm 0,0 UV-I 0 W/m -0,9 C -3,7 C 24,1 km/h (4 Bft) 95,74 %
25.12.2018 16:26 2,5 C 4,4 C 2,2 C 77 % 1033,8 hPa 0,0 l/m 16,5 km/h (3 Bft) SW 234 0 min 0,000 mm 0,0 UV-I 0 W/m -1,1 C -4,8 C 29,0 km/h (5 Bft) 95,74 %
25.12.2018 16:28 2,5 C 4,4 C 2,2 C 77 % 1033,8 hPa 0,0 l/m 12,0 km/h (2 Bft) W 267 0 min 0,000 mm 0,0 UV-I 0 W/m -1,1 C -2,1 C 16,1 km/h (3 Bft) 91,49 %
25.12.2018 16:30 2,5 C 4,4 C 2,2 C 78 % 1033,8 hPa 0,0 l/m 14,8 km/h (3 Bft) W-SW 252 0 min 0,000 mm 0,0 UV-I 0 W/m -0,9 C -3,8 C 19,3 km/h (3 Bft) 94,00 %
25.12.2018 16:32 2,5 C 4,4 C 2,2 C 78 % 1033,8 hPa 0,0 l/m 13,7 km/h (3 Bft) W 271 0 min 0,000 mm 0,0 UV-I 0 W/m -0,9 C -3,2 C 20,9 km/h (4 Bft) 92,11 %
25.12.2018 16:34 2,5 C 4,4 C 2,2 C 78 % 1033,8 hPa 0,0 l/m 13,8 km/h (3 Bft) W-SW 250 0 min 0,000 mm 0,0 UV-I 0 W/m -0,9 C -3,3 C 19,3 km/h (3 Bft) 93,62 %
25.12.2018 16:36 2,5 C 4,4 C 2,2 C 78 % 1033,8 hPa 0,0 l/m 15,3 km/h (3 Bft) W-SW 240 0 min 0,000 mm 0,0 UV-I 0 W/m -0,9 C -4,1 C 25,7 km/h (4 Bft) 95,74 %
25.12.2018 16:38 2,5 C 4,4 C 2,2 C 78 % 1033,8 hPa 0,0 l/m 15,1 km/h (3 Bft) W-SW 257 0 min 0,000 mm 0,0 UV-I 0 W/m -0,9 C -4,0 C 20,9 km/h (4 Bft) 93,62 %
25.12.2018 16:40 2,5 C 4,4 C 2,2 C 78 % 1033,9 hPa 0,0 l/m 15,7 km/h (3 Bft) W-SW 237 0 min 0,000 mm 0,0 UV-I 0 W/m -0,9 C -4,3 C 22,5 km/h (4 Bft) 95,74 %
25.12.2018 16:42 2,5 C 4,4 C 2,2 C 79 % 1033,9 hPa 0,0 l/m 14,5 km/h (3 Bft) SW 226 0 min 0,000 mm 0,0 UV-I 0 W/m -0,8 C -3,7 C 20,9 km/h (4 Bft) 96,23 %
25.12.2018 16:44 2,4 C 4,4 C 2,2 C 79 % 1033,9 hPa 0,0 l/m 12,2 km/h (2 Bft) W 265 0 min 0,000 mm 0,0 UV-I 0 W/m -0,9 C -2,4 C 20,9 km/h (4 Bft) 89,36 %
25.12.2018 16:46 2,4 C 4,4 C 2,2 C 79 % 1033,9 hPa 0,0 l/m 13,4 km/h (3 Bft) SW 229 0 min 0,000 mm 0,0 UV-I 0 W/m -0,9 C -3,1 C 19,3 km/h (3 Bft) 94,00 %
25.12.2018 16:48 2,4 C 4,4 C 2,2 C 79 % 1033,9 hPa 0,0 l/m 16,2 km/h (3 Bft) W-SW 254 0 min 0,000 mm 0,0 UV-I 0 W/m -0,9 C -4,7 C 24,1 km/h (4 Bft) 95,74 %
25.12.2018 16:50 2,4 C 4,4 C 2,2 C 79 % 1034,0 hPa 0,0 l/m 15,6 km/h (3 Bft) SW 225 0 min 0,000 mm 0,0 UV-I 0 W/m -0,9 C -4,4 C 25,7 km/h (4 Bft) 95,74 %
25.12.2018 16:52 2,4 C 4,4 C 2,2 C 79 % 1034,0 hPa 0,0 l/m 13,3 km/h (3 Bft) W-SW 241 0 min 0,000 mm 0,0 UV-I 0 W/m -0,9 C -3,1 C 25,7 km/h (4 Bft) 95,74 %
25.12.2018 16:54 2,4 C 4,4 C 2,2 C 80 % 1033,9 hPa 0,0 l/m 16,4 km/h (3 Bft) W-SW 240 0 min 0,000 mm 0,0 UV-I 0 W/m -0,7 C -4,8 C 20,9 km/h (4 Bft) 95,74 %
25.12.2018 16:56 2,4 C 4,4 C 2,2 C 80 % 1033,9 hPa 0,0 l/m 17,7 km/h (3 Bft) W 267 0 min 0,000 mm 0,0 UV-I 0 W/m -0,7 C -5,5 C 24,1 km/h (4 Bft) 94,44 %
25.12.2018 16:58 2,4 C 4,4 C 2,2 C 80 % 1033,9 hPa 0,0 l/m 16,2 km/h (3 Bft) W-SW 252 0 min 0,000 mm 0,0 UV-I 0 W/m -0,7 C -4,7 C 25,7 km/h (4 Bft) 95,74 %
25.12.2018 17:00 2,4 C 4,4 C 2,2 C 80 % 1034,0 hPa 0,0 l/m 18,5 km/h (3 Bft) SW 232 0 min 0,025 mm 0,0 UV-I 0 W/m -0,7 C -5,9 C 27,4 km/h (4 Bft) 93,62 %
25.12.2018 17:02 2,4 C 4,4 C 2,2 C 80 % 1034,0 hPa 0,0 l/m 16,5 km/h (3 Bft) W 275 0 min 0,000 mm 0,0 UV-I 0 W/m -0,7 C -4,9 C 25,7 km/h (4 Bft) 95,74 %
25.12.2018 17:04 2,4 C 4,4 C 2,2 C 80 % 1033,9 hPa 0,0 l/m 17,4 km/h (3 Bft) W 279 0 min 0,000 mm 0,0 UV-I 0 W/m -0,7 C -5,3 C 30,6 km/h (5 Bft) 97,87 %
25.12.2018 17:06 2,4 C 4,4 C 2,2 C 80 % 1033,9 hPa 0,0 l/m 14,7 km/h (3 Bft) W 261 0 min 0,000 mm 0,0 UV-I 0 W/m -0,7 C -3,9 C 27,4 km/h (4 Bft) 93,62 %
25.12.2018 17:08 2,4 C 4,4 C 2,2 C 80 % 1034,0 hPa 0,0 l/m 14,6 km/h (3 Bft) W 276 0 min 0,000 mm 0,0 UV-I 0 W/m -0,7 C -3,8 C 20,9 km/h (4 Bft) 95,74 %
25.12.2018 17:10 2,4 C 4,4 C 2,2 C 80 % 1034,0 hPa 0,0 l/m 16,6 km/h (3 Bft) W 269 0 min 0,000 mm 0,0 UV-I 0 W/m -0,7 C -4,9 C 24,1 km/h (4 Bft) 95,74 %
25.12.2018 17:12 2,4 C 4,4 C 2,2 C 80 % 1034,0 hPa 0,0 l/m 15,4 km/h (3 Bft) W-SW 253 0 min 0,000 mm 0,0 UV-I 0 W/m -0,7 C -4,3 C 19,3 km/h (3 Bft) 93,62 %
25.12.2018 17:14 2,4 C 4,4 C 2,2 C 80 % 1034,0 hPa 0,0 l/m 14,3 km/h (3 Bft) W-SW 250 0 min 0,000 mm 0,0 UV-I 0 W/m -0,7 C -3,7 C 20,9 km/h (4 Bft) 96,00 %
25.12.2018 17:16 2,4 C 4,4 C 2,2 C 80 % 1034,0 hPa 0,0 l/m 15,0 km/h (3 Bft) W-SW 251 0 min 0,000 mm 0,0 UV-I 0 W/m -0,7 C -4,1 C 22,5 km/h (4 Bft) 97,87 %
25.12.2018 17:18 2,4 C 4,4 C 2,2 C 80 % 1034,0 hPa 0,0 l/m 15,9 km/h (3 Bft) W-NW 285 0 min 0,000 mm 0,0 UV-I 0 W/m -0,7 C -4,6 C 25,7 km/h (4 Bft) 96,00 %
25.12.2018 17:20 2,4 C 4,4 C 2,2 C 80 % 1034,0 hPa 0,0 l/m 15,5 km/h (3 Bft) W 263 0 min 0,000 mm 0,0 UV-I 0 W/m -0,7 C -4,3 C 19,3 km/h (3 Bft) 95,74 %
25.12.2018 17:22 2,4 C 4,4 C 2,2 C 80 % 1034,0 hPa 0,0 l/m 15,8 km/h (3 Bft) W-NW 288 0 min 0,000 mm 0,0 UV-I 0 W/m -0,7 C -4,5 C 25,7 km/h (4 Bft) 100,00 %
25.12.2018 17:24 2,3 C 4,4 C 2,2 C 80 % 1033,9 hPa 0,0 l/m 16,5 km/h (3 Bft) W-SW 254 0 min 0,000 mm 0,0 UV-I 0 W/m -0,8 C -5,0 C 22,5 km/h (4 Bft) 96,08 %
25.12.2018 17:26 2,3 C 4,4 C 2,2 C 81 % 1033,9 hPa 0,0 l/m 14,3 km/h (3 Bft) W-SW 255 0 min 0,000 mm 0,0 UV-I 0 W/m -0,6 C -3,8 C 22,5 km/h (4 Bft) 98,00 %
25.12.2018 17:28 2,3 C 4,4 C 2,2 C 81 % 1033,8 hPa 0,0 l/m 14,6 km/h (3 Bft) W-SW 244 0 min 0,000 mm 0,0 UV-I 0 W/m -0,6 C -4,0 C 20,9 km/h (4 Bft) 96,00 %
25.12.2018 17:30 2,3 C 4,4 C 2,2 C 81 % 1033,9 hPa 0,0 l/m 17,3 km/h (3 Bft) W 264 0 min 0,000 mm 0,0 UV-I 0 W/m -0,6 C -5,4 C 24,1 km/h (4 Bft) 95,74 %
25.12.2018 17:32 2,3 C 4,4 C 2,2 C 81 % 1033,9 hPa 0,0 l/m 16,9 km/h (3 Bft) W 260 0 min 0,000 mm 0,0 UV-I 0 W/m -0,6 C -5,2 C 27,4 km/h (4 Bft) 93,62 %
25.12.2018 17:34 2,3 C 4,4 C 2,2 C 81 % 1033,8 hPa 0,0 l/m 19,0 km/h (3 Bft) W-SW 243 0 min 0,000 mm 0,0 UV-I 0 W/m -0,6 C -6,2 C 25,7 km/h (4 Bft) 97,92 %
25.12.2018 17:36 2,3 C 4,4 C 2,2 C 81 % 1033,9 hPa 0,0 l/m 16,1 km/h (3 Bft) W 261 0 min 0,000 mm 0,0 UV-I 0 W/m -0,6 C -4,8 C 22,5 km/h (4 Bft) 97,56 %
25.12.2018 17:38 2,3 C 4,4 C 2,2 C 81 % 1033,9 hPa 0,0 l/m 16,4 km/h (3 Bft) W 281 0 min 0,000 mm 0,0 UV-I 0 W/m -0,6 C -5,0 C 24,1 km/h (4 Bft) 97,87 %
25.12.2018 17:40 2,3 C 4,4 C 2,2 C 81 % 1033,9 hPa 0,0 l/m 12,3 km/h (3 Bft) W-SW 253 0 min 0,000 mm 0,0 UV-I 0 W/m -0,6 C -2,6 C 20,9 km/h (4 Bft) 95,74 %
25.12.2018 17:42 2,3 C 4,4 C 2,2 C 81 % 1033,9 hPa 0,0 l/m 16,4 km/h (3 Bft) W 265 0 min 0,000 mm 0,0 UV-I 0 W/m -0,6 C -5,0 C 25,7 km/h (4 Bft) 98,00 %
25.12.2018 17:44 2,3 C 4,4 C 2,2 C 81 % 1033,9 hPa 0,0 l/m 13,8 km/h (3 Bft) SW 221 0 min 0,000 mm 0,0 UV-I 0 W/m -0,6 C -3,5 C 22,5 km/h (4 Bft) 97,37 %
25.12.2018 17:46 2,3 C 4,4 C 2,2 C 81 % 1034,0 hPa 0,0 l/m 12,9 km/h (3 Bft) W 259 0 min 0,000 mm 0,0 UV-I 0 W/m -0,6 C -2,9 C 22,5 km/h (4 Bft) 97,87 %
25.12.2018 17:48 2,3 C 4,4 C 2,2 C 81 % 1034,0 hPa 0,0 l/m 13,9 km/h (3 Bft) W-SW 254 0 min 0,000 mm 0,0 UV-I 0 W/m -0,6 C -3,6 C 22,5 km/h (4 Bft) 100,00 %
25.12.2018 17:50 2,3 C 4,4 C 2,2 C 81 % 1034,0 hPa 0,0 l/m 14,2 km/h (3 Bft) W-SW 242 0 min 0,000 mm 0,0 UV-I 0 W/m -0,6 C -3,7 C 20,9 km/h (4 Bft) 97,87 %
25.12.2018 17:52 2,3 C 4,4 C 2,2 C 81 % 1034,1 hPa 0,0 l/m 17,0 km/h (3 Bft) SW 236 0 min 0,000 mm 0,0 UV-I 0 W/m -0,6 C -5,3 C 25,7 km/h (4 Bft) 96,00 %
25.12.2018 17:54 2,3 C 4,4 C 2,2 C 81 % 1034,1 hPa 0,0 l/m 15,7 km/h (3 Bft) W-SW 240 0 min 0,000 mm 0,0 UV-I 0 W/m -0,6 C -4,6 C 24,1 km/h (4 Bft) 100,00 %
25.12.2018 17:56 2,3 C 4,4 C 2,2 C 81 % 1034,1 hPa 0,0 l/m 15,6 km/h (3 Bft) W-SW 238 0 min 0,000 mm 0,0 UV-I 0 W/m -0,6 C -4,5 C 24,1 km/h (4 Bft) 97,87 %
25.12.2018 17:58 2,3 C 4,4 C 2,2 C 81 % 1034,0 hPa 0,0 l/m 12,6 km/h (3 Bft) W-SW 252 0 min 0,000 mm 0,0 UV-I 0 W/m -0,6 C -2,7 C 19,3 km/h (3 Bft) 100,00 %
25.12.2018 18:00 2,2 C 4,4 C 1,7 C 81 % 1034,0 hPa 0,0 l/m 14,1 km/h (3 Bft) S-SW 207 0 min 0,026 mm 0,0 UV-I 0 W/m -0,7 C -3,8 C 20,9 km/h (4 Bft) 97,92 %
25.12.2018 18:02 2,2 C 4,4 C 1,7 C 81 % 1034,0 hPa 0,0 l/m 15,9 km/h (3 Bft) W 260 0 min 0,000 mm 0,0 UV-I 0 W/m -0,7 C -4,8 C 22,5 km/h (4 Bft) 100,00 %
25.12.2018 18:04 2,2 C 4,4 C 1,7 C 81 % 1034,0 hPa 0,0 l/m 12,8 km/h (3 Bft) W-SW 243 0 min 0,000 mm 0,0 UV-I 0 W/m -0,7 C -3,0 C 19,3 km/h (3 Bft) 93,62 %
25.12.2018 18:06 2,2 C 4,4 C 1,7 C 81 % 1034,0 hPa 0,0 l/m 14,7 km/h (3 Bft) SW 235 0 min 0,000 mm 0,0 UV-I 0 W/m -0,7 C -4,1 C 22,5 km/h (4 Bft) 97,87 %
25.12.2018 18:08 2,2 C 4,4 C 1,7 C 81 % 1033,9 hPa 0,0 l/m 15,1 km/h (3 Bft) W-SW 244 0 min 0,000 mm 0,0 UV-I 0 W/m -0,7 C -4,4 C 24,1 km/h (4 Bft) 100,00 %
25.12.2018 18:10 2,2 C 4,4 C 1,7 C 81 % 1033,9 hPa 0,0 l/m 14,2 km/h (3 Bft) W 265 0 min 0,000 mm 0,0 UV-I 0 W/m -0,7 C -3,9 C 20,9 km/h (4 Bft) 100,00 %
25.12.2018 18:12 2,2 C 4,4 C 1,7 C 81 % 1034,0 hPa 0,0 l/m 15,5 km/h (3 Bft) W-SW 249 0 min 0,000 mm 0,0 UV-I 0 W/m -0,7 C -4,6 C 22,5 km/h (4 Bft) 100,00 %
25.12.2018 18:14 2,2 C 4,4 C 1,7 C 81 % 1034,0 hPa 0,0 l/m 11,0 km/h (2 Bft) W-SW 245 0 min 0,000 mm 0,0 UV-I 0 W/m -0,7 C -1,8 C 16,1 km/h (3 Bft) 97,87 %
25.12.2018 18:16 2,2 C 4,4 C 1,7 C 81 % 1034,0 hPa 0,0 l/m 14,9 km/h (3 Bft) W-SW 251 0 min 0,000 mm 0,0 UV-I 0 W/m -0,7 C -4,3 C 22,5 km/h (4 Bft) 100,00 %
25.12.2018 18:18 2,2 C 4,4 C 2,2 C 81 % 1034,0 hPa 0,0 l/m 17,3 km/h (3 Bft) SW 231 0 min 0,000 mm 0,0 UV-I 0 W/m -0,7 C -5,5 C 22,5 km/h (4 Bft) 100,00 %
25.12.2018 18:20 2,2 C 4,4 C 1,7 C 81 % 1034,0 hPa 0,0 l/m 17,3 km/h (3 Bft) W-SW 251 0 min 0,000 mm 0,0 UV-I 0 W/m -0,7 C -5,5 C 25,7 km/h (4 Bft) 100,00 %
25.12.2018 18:22 2,2 C 4,4 C 1,7 C 81 % 1033,9 hPa 0,0 l/m 18,7 km/h (3 Bft) W-SW 237 0 min 0,000 mm 0,0 UV-I 0 W/m -0,7 C -6,2 C 24,1 km/h (4 Bft) 100,00 %
25.12.2018 18:24 2,2 C 4,4 C 2,2 C 81 % 1033,9 hPa 0,0 l/m 16,9 km/h (3 Bft) W-SW 249 0 min 0,000 mm 0,0 UV-I 0 W/m -0,7 C -5,3 C 25,7 km/h (4 Bft) 100,00 %
25.12.2018 18:26 2,2 C 4,4 C 2,2 C 81 % 1033,9 hPa 0,0 l/m 11,9 km/h (2 Bft) W-SW 246 0 min 0,000 mm 0,0 UV-I 0 W/m -0,7 C -2,4 C 17,7 km/h (3 Bft) 97,14 %
25.12.2018 18:28 2,2 C 4,4 C 2,2 C 81 % 1033,9 hPa 0,0 l/m 11,5 km/h (2 Bft) S-SW 207 0 min 0,000 mm 0,0 UV-I 0 W/m -0,7 C -2,1 C 17,7 km/h (3 Bft) 100,00 %
25.12.2018 18:30 2,2 C 4,4 C 1,7 C 81 % 1033,9 hPa 0,0 l/m 14,4 km/h (3 Bft) W-SW 243 0 min 0,000 mm 0,0 UV-I 0 W/m -0,7 C -4,0 C 22,5 km/h (4 Bft) 100,00 %
25.12.2018 18:32 2,2 C 4,4 C 1,7 C 81 % 1034,0 hPa 0,0 l/m 15,4 km/h (3 Bft) SW 230 0 min 0,000 mm 0,0 UV-I 0 W/m -0,7 C -4,5 C 20,9 km/h (4 Bft) 100,00 %
25.12.2018 18:34 2,2 C 4,4 C 1,7 C 81 % 1033,9 hPa 0,0 l/m 14,2 km/h (3 Bft) W-SW 243 0 min 0,000 mm 0,0 UV-I 0 W/m -0,7 C -3,9 C 22,5 km/h (4 Bft) 98,00 %
25.12.2018 18:36 2,2 C 4,4 C 1,7 C 81 % 1033,9 hPa 0,0 l/m 15,8 km/h (3 Bft) W-SW 246 0 min 0,000 mm 0,0 UV-I 0 W/m -0,7 C -4,8 C 20,9 km/h (4 Bft) 97,87 %
25.12.2018 18:38 2,2 C 4,4 C 1,7 C 81 % 1033,9 hPa 0,0 l/m 12,8 km/h (3 Bft) W-SW 241 0 min 0,000 mm 0,0 UV-I 0 W/m -0,7 C -3,0 C 19,3 km/h (3 Bft) 97,87 %
25.12.2018 18:40 2,2 C 4,4 C 1,7 C 81 % 1033,9 hPa 0,0 l/m 16,1 km/h (3 Bft) W-SW 252 0 min 0,000 mm 0,0 UV-I 0 W/m -0,7 C -4,9 C 22,5 km/h (4 Bft) 98,00 %
25.12.2018 18:42 2,2 C 4,4 C 1,7 C 81 % 1033,9 hPa 0,0 l/m 11,2 km/h (2 Bft) SW 232 0 min 0,000 mm 0,0 UV-I 0 W/m -0,7 C -1,9 C 17,7 km/h (3 Bft) 94,74 %
25.12.2018 18:44 2,2 C 4,4 C 1,7 C 81 % 1033,9 hPa 0,0 l/m 12,5 km/h (3 Bft) W-SW 240 0 min 0,000 mm 0,0 UV-I 0 W/m -0,7 C -2,8 C 16,1 km/h (3 Bft) 95,83 %
25.12.2018 18:46 2,2 C 4,4 C 1,7 C 81 % 1033,8 hPa 0,0 l/m 10,9 km/h (2 Bft) W 266 0 min 0,000 mm 0,0 UV-I 0 W/m -0,7 C -1,7 C 14,5 km/h (3 Bft) 91,49 %
25.12.2018 18:48 2,1 C 4,4 C 1,7 C 81 % 1033,8 hPa 0,0 l/m 14,2 km/h (3 Bft) SW 220 0 min 0,000 mm 0,0 UV-I 0 W/m -0,8 C -4,0 C 24,1 km/h (4 Bft) 92,00 %
25.12.2018 18:50 2,1 C 4,4 C 1,7 C 81 % 1033,8 hPa 0,0 l/m 14,3 km/h (3 Bft) SW 224 0 min 0,000 mm 0,0 UV-I 0 W/m -0,8 C -4,0 C 20,9 km/h (4 Bft) 96,00 %
25.12.2018 18:52 2,2 C 4,4 C 1,7 C 81 % 1033,8 hPa 0,0 l/m 14,6 km/h (3 Bft) W-NW 296 0 min 0,000 mm 0,0 UV-I 0 W/m -0,7 C -4,1 C 19,3 km/h (3 Bft) 92,11 %
25.12.2018 18:54 2,2 C 4,4 C 1,7 C 81 % 1033,7 hPa 0,0 l/m 13,6 km/h (3 Bft) W 267 0 min 0,000 mm 0,0 UV-I 0 W/m -0,7 C -3,5 C 19,3 km/h (3 Bft) 93,62 %
25.12.2018 18:56 2,2 C 4,4 C 1,7 C 81 % 1033,7 hPa 0,0 l/m 16,6 km/h (3 Bft) SW 223 0 min 0,000 mm 0,0 UV-I 0 W/m -0,7 C -5,2 C 24,1 km/h (4 Bft) 93,62 %
25.12.2018 18:58 2,2 C 4,4 C 1,7 C 81 % 1033,7 hPa 0,0 l/m 13,7 km/h (3 Bft) W-SW 245 0 min 0,000 mm 0,0 UV-I 0 W/m -0,7 C -3,6 C 19,3 km/h (3 Bft) 96,00 %
25.12.2018 19:00 2,2 C 4,4 C 1,7 C 81 % 1033,7 hPa 0,0 l/m 14,6 km/h (3 Bft) W 262 0 min 0,000 mm 0,0 UV-I 0 W/m -0,7 C -4,1 C 24,1 km/h (4 Bft) 95,74 %
25.12.2018 19:02 2,2 C 4,4 C 1,7 C 81 % 1033,7 hPa 0,0 l/m 14,6 km/h (3 Bft) SW 227 0 min 0,025 mm 0,0 UV-I 0 W/m -0,7 C -4,1 C 20,9 km/h (4 Bft) 95,74 %
25.12.2018 19:04 2,2 C 4,4 C 1,7 C 81 % 1033,7 hPa 0,0 l/m 15,5 km/h (3 Bft) W-SW 252 0 min 0,000 mm 0,0 UV-I 0 W/m -0,7 C -4,6 C 20,9 km/h (4 Bft) 94,00 %
25.12.2018 19:06 2,2 C 4,4 C 1,7 C 81 % 1033,6 hPa 0,0 l/m 14,7 km/h (3 Bft) SW 227 0 min 0,000 mm 0,0 UV-I 0 W/m -0,7 C -4,1 C 20,9 km/h (4 Bft) 95,12 %
25.12.2018 19:08 2,2 C 4,4 C 1,7 C 80 % 1033,6 hPa 0,0 l/m 13,9 km/h (3 Bft) W-SW 241 0 min 0,000 mm 0,0 UV-I 0 W/m -0,9 C -3,7 C 19,3 km/h (3 Bft) 95,74 %
25.12.2018 19:10 2,1 C 4,4 C 1,7 C 80 % 1033,6 hPa 0,0 l/m 15,9 km/h (3 Bft) W 265 0 min 0,000 mm 0,0 UV-I 0 W/m -1,0 C -4,9 C 24,1 km/h (4 Bft) 100,00 %
25.12.2018 19:12 2,2 C 4,4 C 1,7 C 80 % 1033,5 hPa 0,0 l/m 14,1 km/h (3 Bft) W 261 0 min 0,000 mm 0,0 UV-I 0 W/m -0,9 C -3,8 C 22,5 km/h (4 Bft) 97,87 %
25.12.2018 19:14 2,2 C 4,4 C 1,7 C 80 % 1033,6 hPa 0,0 l/m 14,9 km/h (3 Bft) W 270 0 min 0,000 mm 0,0 UV-I 0 W/m -0,9 C -4,3 C 22,5 km/h (4 Bft) 100,00 %
25.12.2018 19:16 2,1 C 4,4 C 1,7 C 80 % 1033,6 hPa 0,0 l/m 14,6 km/h (3 Bft) SW 225 0 min 0,000 mm 0,0 UV-I 0 W/m -1,0 C -4,2 C 24,1 km/h (4 Bft) 97,87 %
25.12.2018 19:18 2,2 C 4,4 C 1,7 C 80 % 1033,7 hPa 0,0 l/m 16,0 km/h (3 Bft) SW 222 0 min 0,000 mm 0,0 UV-I 0 W/m -0,9 C -4,9 C 24,1 km/h (4 Bft) 96,00 %
25.12.2018 19:20 2,2 C 4,4 C 1,7 C 80 % 1033,7 hPa 0,0 l/m 16,3 km/h (3 Bft) W-SW 248 0 min 0,000 mm 0,0 UV-I 0 W/m -0,9 C -5,0 C 24,1 km/h (4 Bft) 100,00 %
25.12.2018 19:22 2,2 C 4,4 C 1,7 C 80 % 1033,7 hPa 0,0 l/m 16,9 km/h (3 Bft) W-SW 257 0 min 0,000 mm 0,0 UV-I 0 W/m -0,9 C -5,3 C 24,1 km/h (4 Bft) 100,00 %
25.12.2018 19:24 2,2 C 4,4 C 1,7 C 80 % 1033,7 hPa 0,0 l/m 13,2 km/h (3 Bft) SW 232 0 min 0,000 mm 0,0 UV-I 0 W/m -0,9 C -3,2 C 22,5 km/h (4 Bft) 100,00 %
25.12.2018 19:26 2,1 C 4,4 C 1,7 C 80 % 1033,8 hPa 0,0 l/m 14,5 km/h (3 Bft) W 269 0 min 0,000 mm 0,0 UV-I 0 W/m -1,0 C -4,2 C 22,5 km/h (4 Bft) 100,00 %
25.12.2018 19:28 2,1 C 4,4 C 1,7 C 80 % 1033,8 hPa 0,0 l/m 14,3 km/h (3 Bft) W 266 0 min 0,000 mm 0,0 UV-I 0 W/m -1,0 C -4,0 C 24,1 km/h (4 Bft) 94,00 %
25.12.2018 19:30 2,1 C 4,4 C 1,7 C 80 % 1033,8 hPa 0,0 l/m 15,4 km/h (3 Bft) SW 234 0 min 0,000 mm 0,0 UV-I 0 W/m -1,0 C -4,7 C 19,3 km/h (3 Bft) 100,00 %
25.12.2018 19:32 2,1 C 4,4 C 1,7 C 80 % 1033,8 hPa 0,0 l/m 17,4 km/h (3 Bft) W 273 0 min 0,000 mm 0,0 UV-I 0 W/m -1,0 C -5,7 C 24,1 km/h (4 Bft) 100,00 %
25.12.2018 19:34 2,1 C 4,4 C 1,7 C 80 % 1033,7 hPa 0,0 l/m 12,6 km/h (3 Bft) W-SW 254 0 min 0,000 mm 0,0 UV-I 0 W/m -1,0 C -3,0 C 17,7 km/h (3 Bft) 98,00 %
25.12.2018 19:36 2,1 C 4,4 C 1,7 C 80 % 1033,7 hPa 0,0 l/m 14,5 km/h (3 Bft) W 271 0 min 0,000 mm 0,0 UV-I 0 W/m -1,0 C -4,2 C 19,3 km/h (3 Bft) 100,00 %
25.12.2018 19:38 2,1 C 4,4 C 1,7 C 80 % 1033,7 hPa 0,0 l/m 14,8 km/h (3 Bft) W-SW 238 0 min 0,000 mm 0,0 UV-I 0 W/m -1,0 C -4,3 C 22,5 km/h (4 Bft) 100,00 %
25.12.2018 19:40 2,1 C 4,4 C 1,7 C 80 % 1033,7 hPa 0,0 l/m 16,6 km/h (3 Bft) W-SW 257 0 min 0,000 mm 0,0 UV-I 0 W/m -1,0 C -5,3 C 22,5 km/h (4 Bft) 95,74 %
25.12.2018 19:42 2,1 C 4,4 C 1,7 C 80 % 1033,7 hPa 0,0 l/m 15,9 km/h (3 Bft) W-SW 251 0 min 0,000 mm 0,0 UV-I 0 W/m -1,0 C -4,9 C 24,1 km/h (4 Bft) 100,00 %
25.12.2018 19:44 2,1 C 4,4 C 1,7 C 80 % 1033,7 hPa 0,0 l/m 18,0 km/h (3 Bft) W-SW 248 0 min 0,000 mm 0,0 UV-I 0 W/m -1,0 C -6,0 C 25,7 km/h (4 Bft) 97,87 %
25.12.2018 19:46 2,1 C 4,4 C 1,7 C 80 % 1033,7 hPa 0,0 l/m 14,7 km/h (3 Bft) W 263 0 min 0,000 mm 0,0 UV-I 0 W/m -1,0 C -4,3 C 22,5 km/h (4 Bft) 100,00 %
25.12.2018 19:48 2,1 C 4,4 C 1,7 C 80 % 1033,7 hPa 0,0 l/m 14,2 km/h (3 Bft) W 267 0 min 0,000 mm 0,0 UV-I 0 W/m -1,0 C -4,0 C 19,3 km/h (3 Bft) 100,00 %
25.12.2018 19:50 2,1 C 4,4 C 1,1 C 80 % 1033,7 hPa 0,0 l/m 18,3 km/h (3 Bft) W 259 0 min 0,000 mm 0,0 UV-I 0 W/m -1,0 C -6,1 C 25,7 km/h (4 Bft) 100,00 %
25.12.2018 19:52 2,0 C 4,4 C 1,1 C 80 % 1033,7 hPa 0,0 l/m 16,4 km/h (3 Bft) W 270 0 min 0,000 mm 0,0 UV-I 0 W/m -1,1 C -5,3 C 24,1 km/h (4 Bft) 100,00 %
25.12.2018 19:54 2,0 C 4,4 C 1,1 C 81 % 1033,7 hPa 0,0 l/m 14,2 km/h (3 Bft) W-SW 241 0 min 0,000 mm 0,0 UV-I 0 W/m -0,9 C -4,1 C 20,9 km/h (4 Bft) 98,00 %
25.12.2018 19:56 2,0 C 4,4 C 1,1 C 81 % 1033,7 hPa 0,0 l/m 14,5 km/h (3 Bft) SW 226 0 min 0,000 mm 0,0 UV-I 0 W/m -0,9 C -4,3 C 20,9 km/h (4 Bft) 97,87 %
25.12.2018 19:58 1,9 C 4,4 C 1,1 C 81 % 1033,7 hPa 0,0 l/m 17,1 km/h (3 Bft) W 274 0 min 0,000 mm 0,0 UV-I 0 W/m -1,0 C -5,8 C 27,4 km/h (4 Bft) 97,87 %
25.12.2018 20:00 1,9 C 4,4 C 1,1 C 81 % 1033,7 hPa 0,0 l/m 17,3 km/h (3 Bft) W-SW 258 0 min 0,025 mm 0,0 UV-I 0 W/m -1,0 C -5,9 C 24,1 km/h (4 Bft) 95,74 %
25.12.2018 20:02 1,9 C 4,4 C 1,1 C 81 % 1033,7 hPa 0,0 l/m 18,0 km/h (3 Bft) W-SW 258 0 min 0,000 mm 0,0 UV-I 0 W/m -1,0 C -6,3 C 24,1 km/h (4 Bft) 96,00 %
25.12.2018 20:04 1,9 C 4,4 C 1,1 C 81 % 1033,6 hPa 0,0 l/m 15,4 km/h (3 Bft) W 261 0 min 0,000 mm 0,0 UV-I 0 W/m -1,0 C -4,9 C 20,9 km/h (4 Bft) 97,92 %
25.12.2018 20:06 1,9 C 4,4 C 1,1 C 80 % 1033,5 hPa 0,0 l/m 18,6 km/h (3 Bft) W-NW 284 0 min 0,000 mm 0,0 UV-I 0 W/m -1,2 C -6,5 C 27,4 km/h (4 Bft) 95,74 %
25.12.2018 20:09 1,9 C 4,4 C 1,1 C 81 % 1033,5 hPa 0,0 l/m 12,1 km/h (2 Bft) W-SW 254 0 min 0,000 mm 0,0 UV-I 0 W/m -1,0 C -2,9 C 17,7 km/h (3 Bft) 97,26 %
25.12.2018 20:10 1,9 C 4,4 C 1,1 C 81 % 1033,5 hPa 0,0 l/m 16,0 km/h (3 Bft) W 267 0 min 0,000 mm 0,0 UV-I 0 W/m -1,0 C -5,2 C 22,5 km/h (4 Bft) 95,83 %
25.12.2018 20:12 1,9 C 4,4 C 1,1 C 81 % 1033,4 hPa 0,0 l/m 16,8 km/h (3 Bft) W 275 0 min 0,000 mm 0,0 UV-I 0 W/m -1,0 C -5,7 C 22,5 km/h (4 Bft) 97,87 %
25.12.2018 20:14 1,9 C 4,4 C 1,1 C 81 % 1033,5 hPa 0,0 l/m 14,7 km/h (3 Bft) W 270 0 min 0,000 mm 0,0 UV-I 0 W/m -1,0 C -4,5 C 20,9 km/h (4 Bft) 97,87 %
25.12.2018 20:16 1,9 C 4,4 C 1,1 C 81 % 1033,4 hPa 0,0 l/m 18,9 km/h (3 Bft) W 281 0 min 0,000 mm 0,0 UV-I 0 W/m -1,0 C -6,7 C 24,1 km/h (4 Bft) 97,87 %
25.12.2018 20:18 1,9 C 4,4 C 1,1 C 80 % 1033,5 hPa 0,0 l/m 16,9 km/h (3 Bft) W 275 0 min 0,000 mm 0,0 UV-I 0 W/m -1,2 C -5,7 C 24,1 km/h (4 Bft) 94,29 %
25.12.2018 20:20 1,9 C 4,4 C 1,1 C 80 % 1033,4 hPa 0,0 l/m 17,5 km/h (3 Bft) W-SW 255 0 min 0,000 mm 0,0 UV-I 0 W/m -1,2 C -6,0 C 25,7 km/h (4 Bft) 98,00 %
25.12.2018 20:22 1,9 C 4,4 C 1,1 C 80 % 1033,4 hPa 0,0 l/m 15,8 km/h (3 Bft) W-SW 242 0 min 0,000 mm 0,0 UV-I 0 W/m -1,2 C -5,1 C 27,4 km/h (4 Bft) 98,11 %
25.12.2018 20:24 1,9 C 4,4 C 1,1 C 80 % 1033,5 hPa 0,0 l/m 11,7 km/h (2 Bft) W-NW 291 0 min 0,000 mm 0,0 UV-I 0 W/m -1,2 C -2,6 C 16,1 km/h (3 Bft) 95,74 %
25.12.2018 20:26 1,9 C 4,4 C 1,7 C 80 % 1033,4 hPa 0,0 l/m 16,3 km/h (3 Bft) W 272 0 min 0,000 mm 0,0 UV-I 0 W/m -1,2 C -5,4 C 22,5 km/h (4 Bft) 94,00 %
25.12.2018 20:28 1,9 C 4,4 C 1,7 C 80 % 1033,5 hPa 0,0 l/m 12,2 km/h (2 Bft) W 271 0 min 0,000 mm 0,0 UV-I 0 W/m -1,2 C -2,9 C 16,1 km/h (3 Bft) 97,87 %
25.12.2018 20:30 1,9 C 4,4 C 1,7 C 80 % 1033,5 hPa 0,0 l/m 11,8 km/h (2 Bft) W-SW 258 0 min 0,000 mm 0,0 UV-I 0 W/m -1,2 C -2,7 C 19,3 km/h (3 Bft) 93,62 %
25.12.2018 20:32 1,9 C 4,4 C 1,7 C 80 % 1033,4 hPa 0,0 l/m 17,4 km/h (3 Bft) W 259 0 min 0,000 mm 0,0 UV-I 0 W/m -1,2 C -6,0 C 24,1 km/h (4 Bft) 97,87 %
25.12.2018 20:34 1,9 C 4,4 C 1,7 C 80 % 1033,5 hPa 0,0 l/m 12,0 km/h (2 Bft) W-SW 248 0 min 0,000 mm 0,0 UV-I 0 W/m -1,2 C -2,8 C 19,3 km/h (3 Bft) 95,74 %
25.12.2018 20:36 1,9 C 4,4 C 1,7 C 80 % 1033,4 hPa 0,0 l/m 12,3 km/h (3 Bft) W 262 0 min 0,000 mm 0,0 UV-I 0 W/m -1,2 C -3,0 C 16,1 km/h (3 Bft) 95,74 %
25.12.2018 20:38 1,9 C 4,4 C 1,1 C 80 % 1033,4 hPa 0,0 l/m 9,9 km/h (2 Bft) W-NW 292 0 min 0,000 mm 0,0 UV-I 0 W/m -1,2 C -1,3 C 16,1 km/h (3 Bft) 91,43 %
25.12.2018 20:40 1,9 C 4,4 C 1,1 C 79 % 1033,4 hPa 0,0 l/m 15,6 km/h (3 Bft) W 263 0 min 0,000 mm 0,0 UV-I 0 W/m -1,3 C -5,0 C 25,7 km/h (4 Bft) 97,92 %
25.12.2018 20:42 1,9 C 4,4 C 1,1 C 79 % 1033,4 hPa 0,0 l/m 15,3 km/h (3 Bft) W 271 0 min 0,000 mm 0,0 UV-I 0 W/m -1,3 C -4,8 C 22,5 km/h (4 Bft) 95,74 %
25.12.2018 20:44 1,9 C 4,4 C 1,1 C 79 % 1033,3 hPa 0,0 l/m 13,9 km/h (3 Bft) W 277 0 min 0,000 mm 0,0 UV-I 0 W/m -1,3 C -4,0 C 20,9 km/h (4 Bft) 95,74 %
25.12.2018 20:46 1,9 C 4,4 C 1,1 C 79 % 1033,3 hPa 0,0 l/m 13,0 km/h (3 Bft) W-SW 247 0 min 0,000 mm 0,0 UV-I 0 W/m -1,3 C -3,5 C 22,5 km/h (4 Bft) 94,00 %
25.12.2018 20:48 1,9 C 4,4 C 1,1 C 79 % 1033,3 hPa 0,0 l/m 12,9 km/h (3 Bft) W 278 0 min 0,000 mm 0,0 UV-I 0 W/m -1,3 C -3,4 C 17,7 km/h (3 Bft) 94,34 %
25.12.2018 20:50 1,8 C 4,4 C 1,1 C 79 % 1033,2 hPa 0,0 l/m 10,2 km/h (2 Bft) W-SW 255 0 min 0,000 mm 0,0 UV-I 0 W/m -1,4 C -1,6 C 17,7 km/h (3 Bft) 95,74 %
25.12.2018 20:52 1,8 C 4,4 C 1,1 C 79 % 1033,3 hPa 0,0 l/m 13,7 km/h (3 Bft) SW 234 0 min 0,000 mm 0,0 UV-I 0 W/m -1,4 C -4,0 C 24,1 km/h (4 Bft) 89,36 %
25.12.2018 20:54 1,8 C 4,4 C 1,1 C 79 % 1033,3 hPa 0,0 l/m 16,6 km/h (3 Bft) W-SW 254 0 min 0,000 mm 0,0 UV-I 0 W/m -1,4 C -5,7 C 24,1 km/h (4 Bft) 95,74 %
25.12.2018 20:56 1,8 C 4,4 C 1,1 C 79 % 1033,3 hPa 0,0 l/m 14,9 km/h (3 Bft) W 261 0 min 0,000 mm 0,0 UV-I 0 W/m -1,4 C -4,7 C 22,5 km/h (4 Bft) 93,62 %
25.12.2018 20:58 1,8 C 4,4 C 1,1 C 79 % 1033,4 hPa 0,0 l/m 12,1 km/h (2 Bft) W 263 0 min 0,000 mm 0,0 UV-I 0 W/m -1,4 C -3,0 C 17,7 km/h (3 Bft) 95,74 %
25.12.2018 21:00 1,8 C 4,4 C 1,1 C 79 % 1033,3 hPa 0,0 l/m 11,2 km/h (2 Bft) W 269 0 min 0,000 mm 0,0 UV-I 0 W/m -1,4 C -2,4 C 19,3 km/h (3 Bft) 92,11 %
25.12.2018 21:02 1,8 C 4,4 C 1,1 C 79 % 1033,4 hPa 0,0 l/m 14,7 km/h (3 Bft) SW 229 0 min 0,026 mm 0,0 UV-I 0 W/m -1,4 C -4,6 C 22,5 km/h (4 Bft) 94,00 %
25.12.2018 21:04 1,8 C 4,4 C 1,1 C 79 % 1033,4 hPa 0,0 l/m 12,0 km/h (2 Bft) SW 232 0 min 0,000 mm 0,0 UV-I 0 W/m -1,4 C -2,9 C 17,7 km/h (3 Bft) 94,00 %
25.12.2018 21:06 1,8 C 4,4 C 1,1 C 79 % 1033,3 hPa 0,0 l/m 11,4 km/h (2 Bft) W 266 0 min 0,000 mm 0,0 UV-I 0 W/m -1,4 C -2,5 C 17,7 km/h (3 Bft) 97,37 %
25.12.2018 21:08 1,8 C 4,4 C 1,1 C 79 % 1033,3 hPa 0,0 l/m 12,8 km/h (3 Bft) W 259 0 min 0,000 mm 0,0 UV-I 0 W/m -1,4 C -3,5 C 22,5 km/h (4 Bft) 91,49 %
25.12.2018 21:10 1,8 C 4,4 C 1,1 C 79 % 1033,4 hPa 0,0 l/m 13,6 km/h (3 Bft) W 270 0 min 0,000 mm 0,0 UV-I 0 W/m -1,4 C -4,0 C 17,7 km/h (3 Bft) 95,74 %
25.12.2018 21:12 1,8 C 4,4 C 1,1 C 79 % 1033,4 hPa 0,0 l/m 14,4 km/h (3 Bft) W 273 0 min 0,000 mm 0,0 UV-I 0 W/m -1,4 C -4,5 C 20,9 km/h (4 Bft) 94,00 %
25.12.2018 21:14 1,8 C 4,4 C 1,1 C 79 % 1033,4 hPa 0,0 l/m 13,6 km/h (3 Bft) W-SW 256 0 min 0,000 mm 0,0 UV-I 0 W/m -1,4 C -4,0 C 19,3 km/h (3 Bft) 91,49 %
25.12.2018 21:16 1,8 C 4,4 C 1,1 C 79 % 1033,4 hPa 0,0 l/m 11,7 km/h (2 Bft) W-SW 258 0 min 0,000 mm 0,0 UV-I 0 W/m -1,4 C -2,7 C 14,5 km/h (3 Bft) 93,75 %
25.12.2018 21:19 1,7 C 4,4 C 1,1 C 79 % 1033,4 hPa 0,0 l/m 16,1 km/h (3 Bft) W 261 0 min 0,000 mm 0,0 UV-I 0 W/m -1,5 C -5,5 C 22,5 km/h (4 Bft) 93,42 %
25.12.2018 21:20 1,7 C 4,4 C 1,1 C 79 % 1033,4 hPa 0,0 l/m 15,6 km/h (3 Bft) W 259 0 min 0,000 mm 0,0 UV-I 0 W/m -1,5 C -5,3 C 19,3 km/h (3 Bft) 86,96 %
25.12.2018 21:22 1,8 C 4,4 C 1,1 C 79 % 1033,3 hPa 0,0 l/m 11,7 km/h (2 Bft) W 267 0 min 0,000 mm 0,0 UV-I 0 W/m -1,4 C -2,7 C 16,1 km/h (3 Bft) 95,74 %
25.12.2018 21:24 1,7 C 4,4 C 1,1 C 79 % 1033,3 hPa 0,0 l/m 10,5 km/h (2 Bft) W 265 0 min 0,000 mm 0,0 UV-I 0 W/m -1,5 C -2,0 C 14,5 km/h (3 Bft) 95,83 %
25.12.2018 21:26 1,7 C 4,4 C 1,1 C 79 % 1033,3 hPa 0,0 l/m 13,4 km/h (3 Bft) W 261 0 min 0,000 mm 0,0 UV-I 0 W/m -1,5 C -4,0 C 17,7 km/h (3 Bft) 95,74 %
25.12.2018 21:28 1,7 C 4,4 C 1,1 C 79 % 1033,3 hPa 0,0 l/m 12,2 km/h (2 Bft) W-SW 251 0 min 0,000 mm 0,0 UV-I 0 W/m -1,5 C -3,2 C 16,1 km/h (3 Bft) 95,74 %
25.12.2018 21:30 1,7 C 4,4 C 1,1 C 79 % 1033,3 hPa 0,0 l/m 7,8 km/h (2 Bft) W 271 0 min 0,000 mm 0,0 UV-I 0 W/m -1,5 C 0,3 C 14,5 km/h (3 Bft) 93,62 %
25.12.2018 21:32 1,7 C 4,4 C 1,1 C 79 % 1033,3 hPa 0,0 l/m 8,6 km/h (2 Bft) W-SW 256 0 min 0,000 mm 0,0 UV-I 0 W/m -1,5 C -0,4 C 14,5 km/h (3 Bft) 94,29 %
25.12.2018 21:34 1,7 C 4,4 C 1,1 C 79 % 1033,3 hPa 0,0 l/m 12,4 km/h (3 Bft) W 273 0 min 0,000 mm 0,0 UV-I 0 W/m -1,5 C -3,3 C 19,3 km/h (3 Bft) 95,74 %
25.12.2018 21:36 1,7 C 4,4 C 1,1 C 79 % 1033,3 hPa 0,0 l/m 11,2 km/h (2 Bft) W 281 0 min 0,000 mm 0,0 UV-I 0 W/m -1,5 C -2,5 C 16,1 km/h (3 Bft) 97,87 %
25.12.2018 21:38 1,7 C 4,4 C 1,1 C 79 % 1033,3 hPa 0,0 l/m 9,8 km/h (2 Bft) W 276 0 min 0,000 mm 0,0 UV-I 0 W/m -1,5 C -1,4 C 12,9 km/h (3 Bft) 100,00 %
25.12.2018 21:40 1,7 C 4,4 C 1,1 C 79 % 1033,4 hPa 0,0 l/m 10,0 km/h (2 Bft) W-NW 294 0 min 0,000 mm 0,0 UV-I 0 W/m -1,5 C -1,6 C 14,5 km/h (3 Bft) 96,00 %
25.12.2018 21:42 1,7 C 4,4 C 1,1 C 80 % 1033,4 hPa 0,0 l/m 11,5 km/h (2 Bft) W-NW 289 0 min 0,000 mm 0,0 UV-I 0 W/m -1,4 C -2,7 C 17,7 km/h (3 Bft) 100,00 %
25.12.2018 21:44 1,7 C 4,4 C 1,1 C 79 % 1033,3 hPa 0,0 l/m 9,3 km/h (2 Bft) W-NW 290 0 min 0,000 mm 0,0 UV-I 0 W/m -1,5 C -1,0 C 16,1 km/h (3 Bft) 97,87 %
25.12.2018 21:46 1,7 C 4,4 C 1,1 C 80 % 1033,3 hPa 0,0 l/m 12,3 km/h (3 Bft) W-NW 293 0 min 0,000 mm 0,0 UV-I 0 W/m -1,4 C -3,2 C 17,7 km/h (3 Bft) 95,74 %
25.12.2018 21:48 1,7 C 4,4 C 1,1 C 79 % 1033,3 hPa 0,0 l/m 10,7 km/h (2 Bft) NW 309 0 min 0,000 mm 0,0 UV-I 0 W/m -1,5 C -2,1 C 14,5 km/h (3 Bft) 98,00 %
25.12.2018 21:50 1,7 C 4,4 C 1,1 C 79 % 1033,4 hPa 0,0 l/m 9,8 km/h (2 Bft) W 275 0 min 0,000 mm 0,0 UV-I 0 W/m -1,5 C -1,4 C 14,5 km/h (3 Bft) 100,00 %
25.12.2018 21:52 1,7 C 4,4 C 1,1 C 79 % 1033,3 hPa 0,0 l/m 7,8 km/h (2 Bft) W-NW 300 0 min 0,000 mm 0,0 UV-I 0 W/m -1,5 C 0,3 C 11,3 km/h (2 Bft) 100,00 %
25.12.2018 21:54 1,7 C 4,4 C 1,1 C 79 % 1033,4 hPa 0,0 l/m 8,4 km/h (2 Bft) W 269 0 min 0,000 mm 0,0 UV-I 0 W/m -1,5 C -0,2 C 12,9 km/h (3 Bft) 97,87 %
25.12.2018 21:56 1,7 C 4,4 C 1,1 C 79 % 1033,3 hPa 0,0 l/m 9,0 km/h (2 Bft) W 269 0 min 0,000 mm 0,0 UV-I 0 W/m -1,5 C -0,8 C 14,5 km/h (3 Bft) 100,00 %
25.12.2018 21:58 1,7 C 4,4 C 1,1 C 79 % 1033,3 hPa 0,0 l/m 8,5 km/h (2 Bft) W 265 0 min 0,000 mm 0,0 UV-I 0 W/m -1,5 C -0,3 C 14,5 km/h (3 Bft) 100,00 %
25.12.2018 22:00 1,6 C 4,4 C 1,1 C 79 % 1033,3 hPa 0,0 l/m 8,2 km/h (2 Bft) W-SW 254 0 min 0,000 mm 0,0 UV-I 0 W/m -1,6 C -0,2 C 12,9 km/h (3 Bft) 97,22 %
25.12.2018 22:02 1,7 C 4,4 C 1,1 C 79 % 1033,2 hPa 0,0 l/m 8,9 km/h (2 Bft) W-SW 250 0 min 0,025 mm 0,0 UV-I 0 W/m -1,5 C -0,7 C 14,5 km/h (3 Bft) 100,00 %
25.12.2018 22:04 1,7 C 4,4 C 1,1 C 79 % 1033,2 hPa 0,0 l/m 7,7 km/h (2 Bft) W 269 0 min 0,000 mm 0,0 UV-I 0 W/m -1,5 C 0,4 C 11,3 km/h (2 Bft) 96,00 %
25.12.2018 22:06 1,7 C 4,4 C 1,1 C 79 % 1033,1 hPa 0,0 l/m 5,7 km/h (1 Bft) W 269 0 min 0,000 mm 0,0 UV-I 0 W/m -1,5 C 1,7 C 9,7 km/h (2 Bft) 96,23 %
25.12.2018 22:08 1,6 C 4,4 C 1,1 C 79 % 1033,1 hPa 0,0 l/m 7,9 km/h (2 Bft) W 262 0 min 0,000 mm 0,0 UV-I 0 W/m -1,6 C 0,1 C 12,9 km/h (3 Bft) 100,00 %
25.12.2018 22:10 1,7 C 4,4 C 1,1 C 79 % 1033,1 hPa 0,0 l/m 8,5 km/h (2 Bft) W-NW 282 0 min 0,000 mm 0,0 UV-I 0 W/m -1,5 C -0,3 C 12,9 km/h (3 Bft) 97,56 %
25.12.2018 22:12 1,7 C 4,4 C 1,1 C 79 % 1033,1 hPa 0,0 l/m 7,2 km/h (2 Bft) W-NW 282 0 min 0,000 mm 0,0 UV-I 0 W/m -1,5 C 0,9 C 11,3 km/h (2 Bft) 100,00 %
25.12.2018 22:14 1,6 C 4,4 C 1,1 C 79 % 1033,1 hPa 0,0 l/m 4,4 km/h (1 Bft) W-NW 290 0 min 0,000 mm 0,0 UV-I 0 W/m -1,6 C 1,6 C 6,4 km/h (2 Bft) 100,00 %
25.12.2018 22:16 1,6 C 4,4 C 1,1 C 79 % 1033,1 hPa 0,0 l/m 8,3 km/h (2 Bft) W-SW 254 0 min 0,000 mm 0,0 UV-I 0 W/m -1,6 C -0,2 C 12,9 km/h (3 Bft) 100,00 %
25.12.2018 22:18 1,6 C 4,4 C 1,1 C 79 % 1033,1 hPa 0,0 l/m 6,6 km/h (2 Bft) W 275 0 min 0,000 mm 0,0 UV-I 0 W/m -1,6 C 1,4 C 11,3 km/h (2 Bft) 97,87 %
25.12.2018 22:20 1,6 C 4,4 C 1,1 C 79 % 1033,2 hPa 0,0 l/m 5,1 km/h (1 Bft) W-SW 254 0 min 0,000 mm 0,0 UV-I 0 W/m -1,6 C 1,6 C 8,0 km/h (2 Bft) 95,74 %
25.12.2018 22:22 1,6 C 4,4 C 1,1 C 79 % 1033,2 hPa 0,0 l/m 4,5 km/h (1 Bft) W-SW 255 0 min 0,000 mm 0,0 UV-I 0 W/m -1,6 C 1,6 C 6,4 km/h (2 Bft) 97,14 %
25.12.2018 22:24 1,6 C 4,4 C 1,1 C 80 % 1033,2 hPa 0,0 l/m 5,9 km/h (2 Bft) W-SW 245 0 min 0,000 mm 0,0 UV-I 0 W/m -1,5 C 1,6 C 11,3 km/h (2 Bft) 93,62 %
25.12.2018 22:26 1,6 C 4,4 C 1,1 C 79 % 1033,2 hPa 0,0 l/m 6,1 km/h (2 Bft) W-SW 247 0 min 0,000 mm 0,0 UV-I 0 W/m -1,6 C 1,6 C 11,3 km/h (2 Bft) 100,00 %
25.12.2018 22:29 1,6 C 4,4 C 1,1 C 80 % 1033,3 hPa 0,0 l/m 6,2 km/h (2 Bft) W 270 0 min 0,000 mm 0,0 UV-I 0 W/m -1,5 C 1,6 C 12,9 km/h (3 Bft) 96,20 %
25.12.2018 22:30 1,6 C 4,4 C 1,1 C 80 % 1033,3 hPa 0,0 l/m 8,0 km/h (2 Bft) W 280 0 min 0,000 mm 0,0 UV-I 0 W/m -1,5 C 0,0 C 11,3 km/h (2 Bft) 96,15 %
25.12.2018 22:32 1,6 C 4,4 C 1,1 C 80 % 1033,3 hPa 0,0 l/m 5,2 km/h (1 Bft) W 266 0 min 0,000 mm 0,0 UV-I 0 W/m -1,5 C 1,6 C 6,4 km/h (2 Bft) 97,22 %
25.12.2018 22:34 1,5 C 4,4 C 1,1 C 80 % 1033,3 hPa 0,0 l/m 6,3 km/h (2 Bft) W 265 0 min 0,000 mm 0,0 UV-I 0 W/m -1,6 C 1,5 C 11,3 km/h (2 Bft) 98,28 %
25.12.2018 22:36 1,5 C 4,4 C 0,6 C 80 % 1033,3 hPa 0,0 l/m 7,9 km/h (2 Bft) SW 229 0 min 0,000 mm 0,0 UV-I 0 W/m -1,6 C 0,0 C 14,5 km/h (3 Bft) 97,22 %
25.12.2018 22:39 1,4 C 4,4 C 0,6 C 80 % 1033,2 hPa 0,0 l/m 10,1 km/h (2 Bft) W-NW 288 0 min 0,000 mm 0,0 UV-I 0 W/m -1,7 C -2,0 C 14,5 km/h (3 Bft) 95,12 %
25.12.2018 22:40 1,4 C 4,4 C 0,6 C 80 % 1033,2 hPa 0,0 l/m 8,3 km/h (2 Bft) W-SW 254 0 min 0,000 mm 0,0 UV-I 0 W/m -1,7 C -0,5 C 12,9 km/h (3 Bft) 100,00 %
25.12.2018 22:42 1,4 C 4,4 C 1,1 C 80 % 1033,2 hPa 0,0 l/m 9,4 km/h (2 Bft) W 267 0 min 0,000 mm 0,0 UV-I 0 W/m -1,7 C -1,4 C 12,9 km/h (3 Bft) 97,87 %
25.12.2018 22:44 1,5 C 4,4 C 0,6 C 80 % 1033,3 hPa 0,0 l/m 7,2 km/h (2 Bft) W 267 0 min 0,000 mm 0,0 UV-I 0 W/m -1,6 C 0,7 C 11,3 km/h (2 Bft) 96,00 %
25.12.2018 22:46 1,4 C 4,4 C 1,1 C 80 % 1033,2 hPa 0,0 l/m 12,2 km/h (2 Bft) W 272 0 min 0,000 mm 0,0 UV-I 0 W/m -1,7 C -3,5 C 17,7 km/h (3 Bft) 91,49 %
25.12.2018 22:48 1,4 C 4,4 C 1,1 C 80 % 1033,3 hPa 0,0 l/m 10,6 km/h (2 Bft) W 281 0 min 0,000 mm 0,0 UV-I 0 W/m -1,7 C -2,4 C 16,1 km/h (3 Bft) 95,74 %
25.12.2018 22:50 1,4 C 4,4 C 1,1 C 80 % 1033,3 hPa 0,0 l/m 6,6 km/h (2 Bft) W 272 0 min 0,000 mm 0,0 UV-I 0 W/m -1,7 C 1,2 C 12,9 km/h (3 Bft) 95,74 %
25.12.2018 22:52 1,4 C 4,4 C 0,6 C 80 % 1033,3 hPa 0,0 l/m 7,6 km/h (2 Bft) W 261 0 min 0,000 mm 0,0 UV-I 0 W/m -1,7 C 0,2 C 12,9 km/h (3 Bft) 100,00 %
25.12.2018 22:54 1,4 C 4,4 C 0,6 C 80 % 1033,3 hPa 0,0 l/m 7,9 km/h (2 Bft) W 264 0 min 0,000 mm 0,0 UV-I 0 W/m -1,7 C -0,1 C 12,9 km/h (3 Bft) 93,62 %
25.12.2018 22:56 1,4 C 4,4 C 1,1 C 80 % 1033,3 hPa 0,0 l/m 9,2 km/h (2 Bft) W 260 0 min 0,000 mm 0,0 UV-I 0 W/m -1,7 C -1,2 C 12,9 km/h (3 Bft) 95,74 %
25.12.2018 22:58 1,4 C 4,4 C 0,6 C 81 % 1033,3 hPa 0,0 l/m 9,3 km/h (2 Bft) W-SW 253 0 min 0,000 mm 0,0 UV-I 0 W/m -1,5 C -1,3 C 14,5 km/h (3 Bft) 95,74 %
25.12.2018 23:00 1,4 C 4,4 C 0,6 C 81 % 1033,3 hPa 0,0 l/m 7,2 km/h (2 Bft) W-SW 249 0 min 0,026 mm 0,0 UV-I 0 W/m -1,5 C 0,6 C 14,5 km/h (3 Bft) 97,87 %
25.12.2018 23:02 1,4 C 4,4 C 0,6 C 81 % 1033,3 hPa 0,0 l/m 8,1 km/h (2 Bft) W 270 0 min 0,000 mm 0,0 UV-I 0 W/m -1,5 C -0,3 C 12,9 km/h (3 Bft) 97,87 %
25.12.2018 23:04 1,3 C 4,4 C 0,6 C 81 % 1033,3 hPa 0,0 l/m 7,9 km/h (2 Bft) W 271 0 min 0,000 mm 0,0 UV-I 0 W/m -1,6 C -0,2 C 12,9 km/h (3 Bft) 97,87 %
25.12.2018 23:06 1,3 C 4,4 C 0,6 C 81 % 1033,4 hPa 0,0 l/m 8,1 km/h (2 Bft) SW 233 0 min 0,000 mm 0,0 UV-I 0 W/m -1,6 C -0,4 C 11,3 km/h (2 Bft) 95,74 %
25.12.2018 23:08 1,3 C 4,4 C 0,6 C 81 % 1033,3 hPa 0,0 l/m 6,9 km/h (2 Bft) W 261 0 min 0,000 mm 0,0 UV-I 0 W/m -1,6 C 0,8 C 11,3 km/h (2 Bft) 95,74 %
25.12.2018 23:10 1,2 C 4,4 C 0,6 C 82 % 1033,3 hPa 0,0 l/m 7,9 km/h (2 Bft) W 272 0 min 0,000 mm 0,0 UV-I 0 W/m -1,5 C -0,3 C 14,5 km/h (3 Bft) 98,00 %
25.12.2018 23:12 1,2 C 4,4 C 0,6 C 82 % 1033,3 hPa 0,0 l/m 7,0 km/h (2 Bft) W-SW 252 0 min 0,000 mm 0,0 UV-I 0 W/m -1,5 C 0,6 C 11,3 km/h (2 Bft) 97,87 %
25.12.2018 23:14 1,2 C 4,4 C 0,6 C 82 % 1033,3 hPa 0,0 l/m 6,0 km/h (2 Bft) W 260 0 min 0,000 mm 0,0 UV-I 0 W/m -1,5 C 1,2 C 12,9 km/h (3 Bft) 97,87 %
25.12.2018 23:16 1,2 C 4,4 C 0,6 C 82 % 1033,3 hPa 0,0 l/m 6,1 km/h (2 Bft) W 266 0 min 0,000 mm 0,0 UV-I 0 W/m -1,5 C 1,2 C 9,7 km/h (2 Bft) 95,74 %
25.12.2018 23:19 1,1 C 4,4 C 0,6 C 82 % 1033,2 hPa 0,0 l/m 6,1 km/h (2 Bft) W-SW 258 0 min 0,000 mm 0,0 UV-I 0 W/m -1,6 C 1,1 C 11,3 km/h (2 Bft) 97,18 %
25.12.2018 23:20 1,1 C 4,4 C 0,6 C 83 % 1033,2 hPa 0,0 l/m 6,3 km/h (2 Bft) W 274 0 min 0,000 mm 0,0 UV-I 0 W/m -1,5 C 1,1 C 9,7 km/h (2 Bft) 100,00 %
25.12.2018 23:22 1,1 C 4,4 C 0,6 C 83 % 1033,2 hPa 0,0 l/m 6,8 km/h (2 Bft) W-SW 257 0 min 0,000 mm 0,0 UV-I 0 W/m -1,5 C 0,7 C 11,3 km/h (2 Bft) 97,37 %
25.12.2018 23:24 1,1 C 4,4 C 0,0 C 83 % 1033,2 hPa 0,0 l/m 6,5 km/h (2 Bft) SW 235 0 min 0,000 mm 0,0 UV-I 0 W/m -1,5 C 1,0 C 11,3 km/h (2 Bft) 91,49 %
25.12.2018 23:26 1,0 C 4,4 C 0,0 C 83 % 1033,2 hPa 0,0 l/m 6,4 km/h (2 Bft) W-SW 251 0 min 0,000 mm 0,0 UV-I 0 W/m -1,6 C 1,0 C 12,9 km/h (3 Bft) 95,74 %
25.12.2018 23:28 1,0 C 4,4 C 0,0 C 83 % 1033,2 hPa 0,0 l/m 6,3 km/h (2 Bft) W 259 0 min 0,000 mm 0,0 UV-I 0 W/m -1,6 C 1,0 C 9,7 km/h (2 Bft) 97,87 %
25.12.2018 23:30 1,0 C 4,4 C 0,0 C 83 % 1033,2 hPa 0,0 l/m 6,5 km/h (2 Bft) W-SW 248 0 min 0,000 mm 0,0 UV-I 0 W/m -1,6 C 0,9 C 11,3 km/h (2 Bft) 98,00 %
25.12.2018 23:32 1,0 C 4,4 C 0,6 C 84 % 1033,1 hPa 0,0 l/m 8,1 km/h (2 Bft) W-SW 242 0 min 0,000 mm 0,0 UV-I 0 W/m -1,4 C -0,7 C 11,3 km/h (2 Bft) 97,87 %
25.12.2018 23:34 1,0 C 4,4 C 0,6 C 84 % 1033,1 hPa 0,0 l/m 8,9 km/h (2 Bft) W 265 0 min 0,000 mm 0,0 UV-I 0 W/m -1,4 C -1,4 C 16,1 km/h (3 Bft) 97,87 %
25.12.2018 23:36 0,9 C 4,4 C 0,6 C 84 % 1033,1 hPa 0,0 l/m 7,8 km/h (2 Bft) W-SW 258 0 min 0,000 mm 0,0 UV-I 0 W/m -1,5 C -0,5 C 11,3 km/h (2 Bft) 97,87 %
25.12.2018 23:38 0,9 C 4,4 C 0,0 C 84 % 1033,1 hPa 0,0 l/m 7,9 km/h (2 Bft) W-SW 241 0 min 0,000 mm 0,0 UV-I 0 W/m -1,5 C -0,6 C 12,9 km/h (3 Bft) 97,87 %
25.12.2018 23:40 0,9 C 4,4 C 0,0 C 84 % 1033,1 hPa 0,0 l/m 5,9 km/h (2 Bft) W-SW 246 0 min 0,000 mm 0,0 UV-I 0 W/m -1,5 C 0,9 C 8,0 km/h (2 Bft) 95,74 %
25.12.2018 23:42 0,9 C 4,4 C 0,6 C 84 % 1033,1 hPa 0,0 l/m 7,2 km/h (2 Bft) W 260 0 min 0,000 mm 0,0 UV-I 0 W/m -1,5 C 0,1 C 12,9 km/h (3 Bft) 100,00 %
25.12.2018 23:44 0,9 C 4,4 C 0,6 C 84 % 1033,0 hPa 0,0 l/m 7,6 km/h (2 Bft) W-SW 251 0 min 0,000 mm 0,0 UV-I 0 W/m -1,5 C -0,3 C 14,5 km/h (3 Bft) 95,74 %
25.12.2018 23:46 0,9 C 4,4 C 0,6 C 84 % 1032,9 hPa 0,0 l/m 6,8 km/h (2 Bft) W-SW 250 0 min 0,000 mm 0,0 UV-I 0 W/m -1,5 C 0,5 C 11,3 km/h (2 Bft) 93,62 %
25.12.2018 23:48 0,9 C 4,4 C 0,6 C 84 % 1032,9 hPa 0,0 l/m 7,4 km/h (2 Bft) W-SW 245 0 min 0,000 mm 0,0 UV-I 0 W/m -1,5 C -0,1 C 11,3 km/h (2 Bft) 95,74 %
25.12.2018 23:50 0,9 C 4,4 C 0,6 C 84 % 1032,9 hPa 0,0 l/m 7,5 km/h (2 Bft) W-SW 244 0 min 0,000 mm 0,0 UV-I 0 W/m -1,5 C -0,2 C 11,3 km/h (2 Bft) 97,87 %
25.12.2018 23:52 0,9 C 4,4 C 0,6 C 84 % 1032,9 hPa 0,0 l/m 7,9 km/h (2 Bft) W-SW 249 0 min 0,000 mm 0,0 UV-I 0 W/m -1,5 C -0,6 C 14,5 km/h (3 Bft) 97,22 %
25.12.2018 23:54 0,9 C 4,4 C 0,6 C 84 % 1032,9 hPa 0,0 l/m 9,0 km/h (2 Bft) SW 224 0 min 0,000 mm 0,0 UV-I 0 W/m -1,5 C -1,6 C 14,5 km/h (3 Bft) 96,15 %
25.12.2018 23:56 0,9 C 4,4 C 0,6 C 84 % 1032,9 hPa 0,0 l/m 9,5 km/h (2 Bft) W-SW 253 0 min 0,000 mm 0,0 UV-I 0 W/m -1,5 C -2,0 C 16,1 km/h (3 Bft) 97,87 %
25.12.2018 23:58 0,9 C 4,4 C 0,6 C 84 % 1032,9 hPa 0,0 l/m 11,0 km/h (2 Bft) W-SW 242 0 min 0,000 mm 0,0 UV-I 0 W/m -1,5 C -3,2 C 17,7 km/h (3 Bft) 97,87 %
_ Min-Zeit 23:36 00:00 23:24 15:22 00:04 - 22:14 - - - - - - 22:39 03:46 22:14 12:22
Minimum _ 0,9 C 4,4 C 0,0 C 76 % 1030,8 hPa - 4,4 km/h (1 Bft) - - - - - - -1,7 C -7,7 C 6,4 km/h (2 Bft) 86,84 %
_ Max-Zeit 01:02 00:00 11:42 00:00 17:52 00:00 03:46 - - 09:28 11:00 00:00 09:34 00:56 11:32 03:08 01:18
Maximum _ 3,1 C 4,4 C 3,9 C 90 % 1034,1 hPa 0,0 l/m 21,8 km/h
W (4 Bft)
- - 2 min 0,051 mm 0,0 UV-I 204 W/m 1,5 C 2,4 C 38,6 km/h
W (5 Bft)
100,00 %
Durchschnitt _ 2,2 C 4,4 C 1,9 C 83 % 1032,7 hPa #0,0 l/m 13,3 km/h (3 Bft) W - #20 min. #0,737 mm 0,0 UV-I 60 W/m -0,4 C -3,1 C 20,6 km/h (4 Bft) 96,86 %